[[[{"header":{"parameterUnit":"kt","parameterCategory":2,"dx":1,"dy":1,"la1":29.285339999999998,"la2":30.599998999999997,"lo1":-89.70041500000002,"lo2":-87.6738589999976,"nx":112,"ny":82,"refTime":"2022-10-28T18:00:00:Z","depth":0,"parameterNumber":1,"parameterNumberName":"U-component_of_WINDS"},"data":[-13.0847,-13.3616,0.0,-11.5715,-11.5614,0.0,-9.7042,-9.4852,-9.6142,-9.4333,-9.4015,-9.5846,-10.1602,-9.6391,-9.1814,-9.3219,-8.9004,-8.4677,0.0,-8.1917,-8.3583,-8.7768,-9.2662,-9.7942,-10.3545,0.0,0.0,0.0,0.0,0.0,0.0,0.0,-14.911,-14.6016,-14.8562,-15.0264,-15.0797,-15.3995,-15.7007,-15.9907,-16.179,-16.3245,-16.4527,-16.4527,-16.4527,-16.4527,-16.4527,-16.4527,-16.4527,-16.4527,-16.4527,-16.4527,-16.4527,-16.4791,-16.5251,-16.4725,-16.4527,-16.4791,-16.6829,-16.7815,-16.7998,-16.688,-16.5923,-16.4046,-15.8673,-15.5585,-15.3415,-15.1167,-15.0209,-15.0186,-15.1059,-15.1001,-15.0768,-15.1175,-15.1233,-15.0884,-14.9605,-15.0012,-15.0303,-14.9488,-14.9314,-14.8965,-14.7743,-14.9605,-15.0826,-14.9547,-15.1117,-15.2339,-15.199,-15.2978,-15.3618,-15.3211,-15.3909,-15.4433,-15.4433,-15.3676,-15.3327,-15.3851,-15.3851,-15.4491,-15.577,-15.6294,-15.6182,-15.575,-15.4999,-15.3672,-15.143,-14.9022,-14.7792,-14.7792,-14.6211,-14.4018,0.0,0.0,-12.3957,-10.4961,0.0,-10.5348,-8.97,-8.8026,-8.9185,-8.7253,-8.9499,-9.128,-8.9427,-8.8647,-8.7817,-8.6399,-8.5386,-8.4233,0.0,-8.2174,0.0,-8.8476,-9.6377,-10.2854,0.0,0.0,0.0,0.0,0.0,0.0,0.0,-14.6878,-14.7107,-14.3891,-14.7259,-14.9516,-15.0102,-15.3328,-15.6426,-15.9349,-16.1465,-16.2608,-16.2927,-16.314,-16.3245,-16.3245,-16.3245,-16.3666,-16.4527,-16.4527,-16.4527,-16.4527,-16.4527,-16.4527,-16.4527,-16.4527,-16.4527,-16.4725,-16.6237,-16.7684,-16.8441,-16.5952,-16.439,-16.2537,-15.714,-15.3696,-15.1259,-14.938,-14.879,-14.9023,-15.0303,-15.0303,-15.0186,-15.1059,-15.1582,-15.1408,-14.9721,-15.0361,-15.0884,-14.9605,-14.9023,-14.85,-14.7685,-14.9605,-15.0943,-15.0128,-15.1408,-15.2339,-15.1931,-15.3037,-15.3676,-15.3211,-15.3967,-15.4491,-15.4491,-15.3676,-15.3153,-15.3153,-15.3153,-15.356,-15.4433,-15.4614,-15.4503,-15.3931,-15.3039,-15.1259,-14.8713,-14.6774,-14.5607,-14.5011,-14.3918,-14.1775,-11.2483,-10.876,-10.6635,-9.2533,-9.0215,-9.0279,-8.5842,-8.5836,-8.6802,-8.6867,-8.7897,-8.8798,-8.8863,-8.7639,-8.6223,-8.4877,-8.4941,0.0,0.0,-8.4426,-8.6679,-8.9323,0.0,0.0,0.0,0.0,0.0,0.0,0.0,0.0,-14.582,-14.6321,-14.6016,-14.6016,-14.8217,-14.9399,-14.9527,-15.2657,-15.5486,-15.7928,-15.9237,-15.986,-15.9796,-16.035,-16.0681,-16.0681,-16.0681,-16.2156,-16.4358,-16.4358,-16.4527,-16.4527,-16.4527,-16.4527,-16.4527,-16.4527,-16.4527,-16.4725,-16.6171,-16.7618,-16.8309,-16.5647,-16.1724,-15.7537,-15.4179,-15.0029,-14.6329,-14.5799,-14.6522,-14.7802,-14.9023,-15.0303,-15.1233,-15.1292,-15.228,-15.2513,-15.0012,-15.0419,-15.0943,-14.9663,-14.8441,-14.7627,-14.7627,-14.9605,-15.1233,-15.1233,-15.1292,-15.1757,-15.3037,-15.2106,-15.1815,-15.3095,-15.3153,-15.3153,-15.3153,-15.3153,-15.3153,-15.3153,-15.3153,-15.3153,-15.3153,-15.3666,-15.3873,-15.3873,-15.1287,-14.9168,-14.7917,-14.4626,-14.2537,-14.1157,-14.032,-13.8858,-9.9147,-10.0302,-10.2683,-9.1698,-9.3177,-9.5367,-8.7961,-8.5836,-8.5643,-8.6673,-8.5579,0.0,0.0,0.0,-8.2423,-8.3075,0.0,-9.2147,0.0,-9.762,0.0,0.0,0.0,0.0,0.0,0.0,0.0,0.0,0.0,0.0,-14.0001,-14.2405,-14.3503,-14.2993,-14.5318,-14.7524,-14.9467,-15.0354,-15.235,-15.5243,-15.5597,-15.6246,-15.7175,-15.7291,-15.7635,-15.8206,-15.9954,-16.1118,-16.1941,-16.3666,-16.4527,-16.4527,-16.4527,-16.4527,-16.4527,-16.4527,-16.4527,-16.4527,-16.4988,-16.5382,-16.5016,-16.0659,-15.7843,-15.5402,-15.0664,-14.7617,-14.5799,-14.5666,-14.6865,-14.8552,-14.9838,-15.1125,-15.2353,-15.3289,-15.4098,-15.4142,-15.2455,-15.2397,-15.228,-15.1001,-14.9721,-14.8849,-14.8849,-15.0186,-15.1233,-15.1233,-15.2048,-15.3095,-15.4433,-15.3444,-15.3153,-15.4433,-15.3735,-15.3153,-15.3153,-15.3153,-15.3153,-15.3153,-15.3153,-15.3153,-15.3153,-15.3724,-15.324,-15.1689,-15.1398,-14.9731,-14.7057,-14.6235,-14.5076,-14.3693,-14.1974,-13.9666,-9.3947,-9.4649,-9.7653,-8.9718,-9.2217,-9.4719,-8.746,-8.5601,-8.5473,-8.5906,0.0,0.0,0.0,0.0,0.0,0.0,-9.2469,0.0,0.0,0.0,-11.2806,0.0,0.0,0.0,0.0,0.0,0.0,0.0,0.0,-13.2411,-13.7574,-14.0683,-14.2082,-14.1752,-14.4195,-14.6798,-14.9527,-14.9527,-15.0922,-15.3872,-15.4051,-15.4233,-15.4175,-15.4473,-15.4831,-15.5604,-15.7007,-15.8836,-16.09,-16.2264,-16.3561,-16.4527,-16.4527,-16.4527,-16.4527,-16.4527,-16.4527,-16.4593,-16.5251,-16.4295,-16.2566,-16.0626,-15.7368,-15.3568,-14.9998,-14.7339,-14.5666,-14.5932,-14.6856,-14.8117,-15.0337,-15.1259,-15.2042,-15.3858,-15.4763,-15.4956,-15.4142,-15.4433,-15.4433,-15.3153,-15.1815,-15.0943,-15.0943,-15.1582,-15.2048,-15.2048,-15.2688,-15.3618,-15.4956,-15.4491,-15.4316,-15.5072,-15.4433,-15.3793,-15.3211,-15.3153,-15.3153,-15.3153,-15.3153,-15.3153,-15.3153,-15.3296,-15.2924,-15.1689,-15.0849,-14.9125,-14.6769,-14.6261,-14.5372,-14.4289,-14.1576,-13.8646,-9.3177,-9.0492,-9.1891,-8.7116,-8.8517,-9.0237,-8.6717,0.0,-8.7289,-8.7717,0.0,-8.7391,-8.758,0.0,0.0,0.0,0.0,0.0,-9.8362,-10.7957,-11.5075,0.0,0.0,0.0,0.0,0.0,-12.7891,-13.7166,-13.0539,-12.9597,-13.7332,-14.0298,-14.1752,-14.1752,-14.4195,-14.6666,-14.9016,-14.9016,-15.0228,-15.2473,-15.3024,-15.2473,-15.1043,-15.1607,-15.2165,-15.2841,-15.3208,-15.584,-15.9954,-16.0571,-16.2049,-16.4046,-16.4046,-16.415,-16.4527,-16.4527,-16.4527,-16.4659,-16.604,-16.397,-16.1067,-16.2853,-15.8405,-15.2092,-15.0695,-14.7991,-14.5666,-14.6329,-14.671,-14.7487,-15.0562,-15.1059,-15.128,-15.3741,-15.4763,-15.5189,-15.5363,-15.6236,-15.6701,-15.5596,-15.4316,-15.3327,-15.3153,-15.3153,-15.3153,-15.3153,-15.3269,-15.3851,-15.5189,-15.5363,-15.5421,-15.5596,-15.5305,-15.4665,-15.3502,-15.3211,-15.3153,-15.3153,-15.3153,-15.3153,-15.3153,-15.3153,-15.3095,-15.3179,-15.0526,-14.8518,-14.739,-14.6035,-14.4782,-14.3597,-14.0121,-13.6885,-8.8011,-8.4905,-8.5601,-8.5845,-8.4887,-8.5967,0.0,0.0,0.0,-10.4504,-10.4568,-10.3432,-10.5018,0.0,0.0,0.0,0.0,0.0,0.0,0.0,0.0,0.0,0.0,0.0,0.0,-13.2929,-13.4733,-13.7564,-13.6242,-13.5951,-13.7739,-14.0298,-14.1752,-14.1752,-14.4195,-14.5799,-14.6271,-14.6271,-14.6535,-14.7132,-14.7263,-14.7394,-14.7583,-14.8233,-14.9007,-14.9714,-15.2226,-15.3875,-15.5131,-15.9061,-16.1009,-16.1509,-16.1509,-16.2649,-16.4527,-16.4527,-16.4527,-16.4527,-16.4856,-16.3123,-16.0607,-15.9531,-15.6079,-15.1903,-14.9603,-14.7291,-14.5666,-14.6329,-14.7355,-14.866,-15.0798,-15.1706,-15.2394,-15.3917,-15.4763,-15.5421,-15.6468,-15.6876,-15.6992,-15.6759,-15.5654,-15.4433,-15.3327,-15.3153,-15.3153,-15.3153,-15.4084,-15.5247,-15.6527,-15.6701,-15.7108,-15.8155,-15.641,-15.5072,-15.4782,-15.3793,-15.3153,-15.3153,-15.3153,-15.3153,-15.3153,-15.415,-15.5115,-15.5758,-15.3136,-15.1565,-15.134,-14.9026,-14.6457,-14.3597,-14.0121,-13.7195,-8.5414,-8.3206,-8.4093,-8.3516,-8.339,0.0,0.0,-9.2078,-9.5187,-10.1853,-10.3579,-10.4461,-10.6159,0.0,0.0,0.0,0.0,0.0,0.0,0.0,0.0,0.0,0.0,0.0,0.0,-13.5296,-13.6517,-13.7739,-13.7797,-13.7797,-13.7797,-13.9658,-14.0705,-14.0705,-14.2625,-14.3614,-14.3614,-14.4253,-14.4602,-14.4602,-14.5242,-14.6065,-14.7178,-14.7571,-14.8292,-14.9323,-15.0853,-15.2287,-15.3573,-15.6075,-15.7123,-15.7354,-15.9732,-16.1509,-16.2756,-16.4046,-16.4527,-16.4527,-16.4527,-16.2049,-15.8673,-15.7115,-15.4496,-15.1253,-14.8104,-14.7198,-14.7471,-14.7499,-14.7999,-14.9071,-15.1757,-15.2411,-15.2687,-15.3976,-15.4238,-15.4491,-15.5829,-15.6119,-15.6119,-15.6119,-15.5596,-15.4723,-15.3386,-15.3153,-15.3153,-15.3153,-15.4316,-15.5596,-15.6876,-15.7632,-15.8272,-15.8911,-15.7806,-15.6527,-15.5247,-15.4549,-15.3851,-15.3211,-15.3793,-15.4001,-15.3576,-15.543,-15.6326,-15.5908,-15.4023,-15.2386,-15.114,-14.9545,-14.6106,-14.1048,-13.9345,-13.619,-8.3393,-8.2394,-8.3723,-8.2024,-8.2905,0.0,-8.7621,-9.1727,-9.6046,-10.0368,-10.369,-10.6366,0.0,0.0,0.0,0.0,0.0,0.0,0.0,0.0,0.0,0.0,0.0,0.0,0.0,-13.547,-13.6808,-13.7739,-13.7797,-13.7797,-13.7797,-13.9018,-13.9716,-13.9716,-14.1054,-14.1752,-14.1752,-14.2974,-14.3614,-14.3672,-14.4951,-14.6197,-14.7309,-14.744,-14.8162,-14.9323,-14.9451,-15.0601,-15.2718,-15.3208,-15.333,-15.3754,-15.7813,-15.9843,-16.1009,-16.2968,-16.3666,-16.3666,-16.3666,-16.0396,-15.6012,-15.4769,-15.2565,-14.9883,-14.6574,-14.6987,-14.8519,-14.8067,-14.8084,-14.9054,-15.2017,-15.2569,-15.2549,-15.3837,-15.3573,-15.3502,-15.4898,-15.5131,-15.5072,-15.484,-15.4782,-15.4433,-15.3327,-15.3153,-15.3153,-15.3153,-15.4316,-15.5538,-15.6585,-15.7806,-15.8679,-15.897,-15.8737,-15.7864,-15.6061,-15.5421,-15.4665,-15.3618,-15.4407,-15.4561,-15.3989,-15.6268,-15.6742,-15.4968,-15.4286,-15.2546,-15.0046,-14.8955,-14.5195,-13.8934,-13.9145,-13.5743,-8.0122,-8.0131,-8.1832,-8.3975,-8.2905,0.0,-10.195,-10.4657,-10.7549,0.0,-12.4256,0.0,0.0,0.0,0.0,0.0,0.0,0.0,0.0,0.0,0.0,0.0,0.0,0.0,0.0,-13.6226,-13.7681,-13.7797,-13.7797,-13.7797,-13.7797,-13.9018,-13.9716,-13.9716,-14.1054,-14.1752,-14.1752,-14.2974,-14.3614,-14.3672,-14.4951,-14.5666,-14.5799,-14.6461,-14.7119,-14.7844,-14.8491,-14.9263,-15.0282,-15.2534,-15.333,-15.3451,-15.3995,-15.6891,-16.079,-16.1009,-16.1118,-16.1118,-16.1118,-15.7521,-15.2841,-15.2104,-14.9706,-14.7003,-14.5916,-14.5766,-14.594,-14.5899,-14.6772,-14.813,-15.0284,-15.1105,-15.1721,-15.3002,-15.3293,-15.3502,-15.4898,-15.5131,-15.4782,-15.3618,-15.3386,-15.3327,-15.3153,-15.3153,-15.3153,-15.3153,-15.4316,-15.5189,-15.5363,-15.6468,-15.769,-15.8853,-15.7981,-15.7632,-15.8446,-15.6468,-15.5072,-15.4956,-15.436,-15.3989,-15.3989,-15.5625,-15.5691,-15.3774,-15.4684,-15.3647,-15.0415,-14.8735,-14.5199,-13.9988,-14.1202,-13.8568,-7.8178,-7.9186,-8.1139,-8.2275,0.0,0.0,-9.8315,-10.3733,-10.9004,0.0,-12.0826,-12.2898,0.0,0.0,0.0,0.0,0.0,0.0,0.0,0.0,0.0,0.0,0.0,0.0,0.0,0.0,0.0,-13.7797,-13.7797,-13.7797,-13.7797,-13.832,-13.8611,-13.8611,-13.9193,-13.9426,-13.9426,-14.152,-14.2508,-14.2567,-14.4544,-14.5799,-14.6197,-14.6461,-14.6988,-14.7583,-14.8362,-14.8938,-14.9195,-15.0601,-15.1229,-15.1354,-15.2841,-15.4596,-15.6659,-15.8092,-15.8546,-15.8546,-15.8206,-15.5542,-15.2288,-15.1112,-14.9364,-14.7574,-14.6965,-14.722,-14.7627,-14.6929,-14.7627,-14.8732,-14.9607,-14.9858,-15.0477,-15.1757,-15.2048,-15.2397,-15.3676,-15.4025,-15.3793,-15.3269,-15.2571,-15.2048,-15.2048,-15.2048,-15.2048,-15.2048,-15.3793,-15.5131,-15.5131,-15.6294,-15.7283,-15.7806,-15.7399,-15.7283,-15.7806,-15.6178,-15.5131,-15.5131,-15.5113,-15.4796,-15.4361,-15.6034,-15.5687,-15.286,-15.3023,-15.2149,-15.0153,-14.8194,-14.5457,-14.2162,-13.9349,-13.7181,-7.7554,0.0,0.0,0.0,0.0,0.0,-9.8696,-10.4831,-11.0192,-11.4041,-11.7264,-12.0159,0.0,0.0,0.0,0.0,0.0,0.0,0.0,0.0,0.0,0.0,0.0,0.0,0.0,0.0,0.0,0.0,-13.7797,-13.7797,-13.7797,-13.7797,-13.7797,-13.7797,-13.7797,-13.7797,-13.7797,-14.0414,-14.1752,-14.1752,-14.4312,-14.5799,-14.6329,-14.6329,-14.6593,-14.7322,-14.8103,-14.8233,-14.8162,-14.8809,-14.9195,-14.9579,-15.1168,-15.2473,-15.3573,-15.5012,-15.566,-15.566,-15.5068,-15.3024,-15.0546,-14.9601,-14.8577,-14.7599,-14.7122,-14.7627,-14.8092,-14.722,-14.7627,-14.8383,-14.8732,-14.9081,-14.9663,-15.0943,-15.1233,-15.1582,-15.2862,-15.3153,-15.3269,-15.3618,-15.2688,-15.1757,-15.1757,-15.1757,-15.1641,-15.1292,-15.3153,-15.4607,-15.4607,-15.5421,-15.6119,-15.6468,-15.6527,-15.6701,-15.705,-15.5887,-15.5305,-15.5654,-15.5519,-15.5484,-15.5185,-15.6256,-15.5332,-15.1904,-15.1536,-15.0582,-14.905,-14.6247,-14.4626,-14.3937,-13.8179,-13.5807,0.0,0.0,0.0,-9.3008,-9.3535,-9.5326,-11.0183,-11.3205,-11.4052,-11.8629,-12.0622,-12.1764,0.0,0.0,0.0,0.0,0.0,0.0,0.0,0.0,0.0,0.0,0.0,0.0,0.0,0.0,0.0,0.0,0.0,-13.7797,-13.7797,-13.7797,-13.7797,-13.7797,-13.7797,-13.7797,-13.7797,-14.0414,-14.1752,-14.1752,-14.4312,-14.5533,-14.5666,-14.5666,-14.5932,-14.6593,-14.7322,-14.7191,-14.6725,-14.7381,-14.8162,-14.868,-14.7973,-15.0035,-15.3208,-15.2042,-15.2042,-15.2473,-15.1794,-14.9467,-14.6725,-14.6725,-14.6197,-14.5724,-14.5591,-14.5649,-14.5649,-14.5591,-14.5649,-14.594,-14.7278,-14.8441,-14.9663,-15.0943,-15.1233,-15.1582,-15.2862,-15.3153,-15.356,-15.484,-15.4025,-15.3095,-15.3095,-15.3095,-15.2688,-15.1466,-15.2397,-15.3211,-15.3211,-15.3269,-15.3793,-15.5072,-15.5189,-15.5712,-15.6934,-15.5887,-15.5712,-15.6934,-15.5603,-15.5242,-15.6388,-15.6258,-15.433,-15.0606,-15.0493,-14.9252,-14.6825,-14.2378,-14.1904,-14.5192,-13.9426,-13.6127,-8.3812,-8.7006,-9.099,-9.7614,-10.1463,-10.536,-11.1824,-11.5218,-11.749,-11.9311,-12.079,-12.2162,0.0,0.0,0.0,0.0,0.0,0.0,0.0,0.0,0.0,0.0,0.0,0.0,0.0,0.0,0.0,0.0,0.0,0.0,-13.7797,-13.7797,-13.7797,-13.7797,-13.7797,-13.7797,-13.7797,-14.0414,-14.1752,-14.1752,-14.4312,-14.5533,-14.5533,-14.5533,-14.5666,-14.5932,-14.6593,-14.6725,-14.6593,-14.7381,-14.7773,-14.8033,-14.7773,-14.8491,-14.9587,-14.9016,-14.9075,-14.9203,-14.8432,-14.7453,-14.6461,-14.6065,-14.5799,-14.5708,-14.6638,-14.6871,-14.6871,-14.6871,-14.6871,-14.6755,-14.6347,-14.6522,-14.7336,-14.9488,-15.0012,-15.0535,-15.2688,-15.3153,-15.356,-15.4898,-15.2688,-15.0884,-15.1757,-15.1175,-15.0477,-15.007,-15.1815,-15.2722,-15.135,-15.1929,-15.1994,-15.1223,-15.1773,-15.2751,-15.4018,-15.2982,-15.3155,-15.5342,-15.458,-15.4412,-15.5609,-15.5162,-15.3427,-15.055,-14.8857,-14.6092,-14.2322,-14.1475,-13.9481,-13.6522,-13.9073,-13.7666,-8.6888,-9.0281,-9.4313,-10.2751,-10.7304,-11.0725,-11.4248,-11.7148,-11.918,-11.9869,-12.112,-12.2662,-12.4571,0.0,0.0,0.0,0.0,0.0,0.0,0.0,0.0,0.0,0.0,0.0,0.0,0.0,0.0,0.0,0.0,-13.7797,-13.7797,-13.7797,-13.7797,-13.7797,-13.7797,-13.7797,-13.7797,-14.0414,-14.1752,-14.1752,-14.4312,-14.5533,-14.5533,-14.5799,-14.5799,-14.5533,-14.6065,-14.6197,-14.6197,-14.6666,-14.6988,-14.7309,-14.6988,-14.7309,-14.7701,-14.7119,-14.7119,-14.7119,-14.6461,-14.6197,-14.6197,-14.5666,-14.5533,-14.5708,-14.658,-14.7162,-14.7569,-14.7569,-14.7569,-14.7336,-14.6464,-14.5882,-14.594,-14.7627,-14.8674,-14.9896,-15.199,-15.2804,-15.3676,-15.548,-15.2688,-15.0419,-15.1699,-15.0477,-14.9198,-14.879,-15.0477,-15.1247,-14.974,-15.0178,-15.0071,-14.8563,-14.9454,-15.0543,-15.1345,-15.1059,-15.1804,-15.3867,-15.3306,-15.3433,-15.4684,-15.3992,-15.2355,-14.9873,-14.8236,-14.5486,-14.1452,-14.0378,-13.7344,-13.2718,-13.6487,-13.598,-8.8253,-9.0545,-9.4058,-10.8678,-11.1215,-11.1671,-11.7596,-11.895,-11.9289,-12.0361,-12.1715,-12.3254,-12.5283,-12.7143,0.0,0.0,0.0,0.0,0.0,0.0,0.0,0.0,0.0,0.0,0.0,0.0,0.0,0.0,-13.7797,-13.7797,-13.7797,-13.7797,-13.7797,-13.7797,-13.7797,-13.7797,-13.7797,-14.0298,-14.1578,-14.1752,-14.4253,-14.5475,-14.5533,-14.6197,-14.6197,-14.5533,-14.5666,-14.5666,-14.5533,-14.5533,-14.5932,-14.6461,-14.5799,-14.652,-14.744,-14.6065,-14.5932,-14.6461,-14.5799,-14.5533,-14.5533,-14.5533,-14.5533,-14.5533,-14.5533,-14.6464,-14.7569,-14.7569,-14.7569,-14.7569,-14.7569,-14.6638,-14.5649,-14.5649,-14.7511,-14.9663,-15.1001,-15.228,-15.3909,-15.6468,-15.3793,-15.1582,-15.2862,-15.0943,-14.8849,-14.7743,-14.8558,-14.8903,-14.8295,-14.8215,-14.78,-14.7047,-14.8053,-14.8938,-14.8996,-14.98,-15.1058,-15.2518,-15.1702,-15.1831,-15.3433,-15.2747,-15.117,-14.8834,-14.8721,-14.6791,-14.3336,-13.8848,-13.5582,-13.3199,-13.2181,-13.1781,-9.4368,-10.1998,-10.7957,-11.5385,-11.6923,-11.7031,-11.8611,-11.895,-11.9063,-11.9345,-12.1151,-12.3778,-12.7512,-12.8322,-12.8673,0.0,0.0,0.0,0.0,0.0,0.0,0.0,0.0,0.0,0.0,0.0,0.0,0.0,-13.7797,-13.7797,-13.7797,-13.7797,-13.7797,-13.7797,-13.7797,-13.7797,-13.7797,-13.8495,-13.9775,-14.1752,-14.3381,-14.4602,-14.5533,-14.5799,-14.5799,-14.5666,-14.6065,-14.6065,-14.5533,-14.5533,-14.5666,-14.5799,-14.5666,-14.5799,-14.6065,-14.5666,-14.5666,-14.5799,-14.5666,-14.5533,-14.5533,-14.5533,-14.5533,-14.5533,-14.5533,-14.6464,-14.7569,-14.7569,-14.7569,-14.7569,-14.7569,-14.7278,-14.7045,-14.7045,-14.8209,-14.9663,-15.1001,-15.228,-15.3676,-15.5305,-15.2513,-15.0245,-15.1524,-14.9663,-14.7918,-14.7569,-14.8149,-14.7868,-14.6201,-14.6335,-14.5923,-14.4369,-14.5192,-14.6268,-14.7231,-14.5284,-14.605,-15.071,-14.8484,-14.82,-15.1093,-15.1093,-15.0211,-14.8777,-14.7728,-14.4423,-13.8688,-13.8292,-13.4839,-12.8659,-13.0873,-13.1781,-9.2521,-10.2352,-11.15,-11.7487,-11.895,-11.9067,-11.9243,-11.936,-11.9699,-12.1185,-12.2254,-12.4145,-12.7768,-12.8632,-12.9035,-13.0116,0.0,0.0,0.0,0.0,0.0,0.0,0.0,0.0,0.0,0.0,0.0,0.0,-13.7797,-13.7797,-13.7797,-13.7797,-13.7797,-13.7797,-13.7797,-13.7797,-13.7797,-13.7797,-13.8844,-14.088,-14.2741,-14.4312,-14.5533,-14.5932,-14.5799,-14.5533,-14.5932,-14.5932,-14.5533,-14.5533,-14.5533,-14.5533,-14.5533,-14.5533,-14.5533,-14.5533,-14.5533,-14.5533,-14.5533,-14.5533,-14.5533,-14.5533,-14.5533,-14.5533,-14.5533,-14.6871,-14.8325,-14.8325,-14.8732,-14.9023,-14.85,-14.7976,-14.7569,-14.7569,-14.8441,-14.9837,-15.1699,-15.2222,-15.2688,-15.4025,-15.2048,-15.0419,-15.1117,-14.9198,-14.7336,-14.6755,-14.668,-14.6037,-14.4605,-14.4352,-14.3828,-14.2311,-14.3327,-14.3774,-14.3042,-14.1791,-14.2594,-14.657,-14.4927,-14.5432,-14.8654,-14.8857,-14.8518,-14.7841,-14.5744,-14.2217,-13.777,-13.6836,-13.3634,-12.8413,-13.0707,-13.2025,-8.9354,-9.8497,-10.8906,-11.6975,-11.895,-11.9067,-11.9535,-11.9651,-12.0449,-12.3603,-12.4057,-12.469,-12.7256,-12.8588,-12.9517,-12.9997,-13.0116,0.0,0.0,0.0,0.0,0.0,0.0,0.0,0.0,0.0,0.0,0.0,-13.7797,-13.7797,-13.7797,-13.7797,-13.7797,-13.7797,-13.7797,-13.7797,-13.7797,-13.7797,-13.8379,-13.9484,-14.2159,-14.4137,-14.5533,-14.6197,-14.6065,-14.5533,-14.5533,-14.5533,-14.5533,-14.5533,-14.5533,-14.5533,-14.5533,-14.5533,-14.5533,-14.5533,-14.5533,-14.5533,-14.5533,-14.5533,-14.5533,-14.5533,-14.5533,-14.5533,-14.5533,-14.722,-14.9081,-14.9081,-15.0012,-15.071,-14.943,-14.8441,-14.7802,-14.7802,-14.8732,-15.0245,-15.2629,-15.228,-15.1815,-15.292,-15.228,-15.1466,-15.1292,-14.9198,-14.7104,-14.5632,-14.4731,-14.4057,-14.338,-14.2618,-14.1874,-14.1183,-14.1722,-14.1068,-13.8426,-13.8383,-13.9524,-14.1725,-14.1332,-14.2616,-14.6117,-14.643,-14.6543,-14.6543,-14.2819,-14.0064,-13.8564,-13.5293,-13.2386,-13.0219,-13.1293,-13.2366,-9.9986,-10.3692,-10.5689,-11.6298,-11.895,-11.895,-11.9067,-11.9067,-11.9696,-12.1757,-12.4133,-12.6628,-12.9184,-12.9942,-12.9997,-12.9517,-12.9397,-12.9277,0.0,0.0,0.0,0.0,0.0,0.0,0.0,0.0,0.0,0.0,0.0,-13.7797,-13.7797,-13.7797,-13.7797,-13.7797,-13.7797,-13.7797,-13.7797,-13.7797,-13.7913,-13.8204,-14.0822,-14.3265,-14.5533,-14.5666,-14.5666,-14.5533,-14.5533,-14.5533,-14.5533,-14.5533,-14.5533,-14.5533,-14.5533,-14.5533,-14.5533,-14.5533,-14.5533,-14.5533,-14.5533,-14.5533,-14.5533,-14.5533,-14.5533,-14.5533,-14.5533,-14.6638,-14.786,-14.786,-14.8732,-14.9372,-14.8209,-14.8441,-14.9023,-14.9023,-15.0012,-15.135,-15.2804,-15.2978,-15.2862,-15.3095,-15.2978,-15.2513,-15.1466,-14.9198,-14.6834,-14.4904,-14.4057,-14.338,-14.2618,-14.1736,-14.1321,-14.1126,-13.8998,-13.7728,-13.8226,-13.3403,-13.3274,-14.0117,-13.788,-13.855,-14.3496,-14.4681,-14.5189,-14.5189,-13.9227,-13.707,-13.8564,-13.5293,-13.2386,-13.0219,-13.1293,-13.2366,-9.463,-10.095,-10.6536,-11.2574,-11.658,-11.9067,-11.936,-11.9592,-12.0679,-12.3596,-12.5279,-12.7025,-12.929,-12.9517,-12.9156,-12.8794,-12.8794,-12.8673,-12.8308,0.0,0.0,0.0,0.0,0.0,0.0,0.0,0.0,0.0,0.0,-13.7797,-13.7797,-13.7797,-13.7797,-13.7797,-13.7797,-13.7797,-13.7797,-13.7797,-13.7797,-13.7855,-14.0473,-14.2392,-14.3614,-14.4253,-14.4893,-14.5533,-14.5533,-14.5533,-14.5533,-14.5533,-14.5533,-14.5533,-14.5533,-14.5533,-14.5533,-14.5533,-14.5533,-14.5533,-14.5533,-14.5533,-14.5533,-14.5533,-14.5533,-14.5533,-14.5533,-14.6464,-14.7569,-14.7569,-14.8441,-14.9198,-14.8616,-14.8907,-14.9488,-15.0186,-15.0826,-15.1582,-15.2862,-15.3153,-15.3153,-15.3153,-15.3153,-15.2746,-15.1466,-14.9721,-14.7531,-14.4885,-14.3516,-14.2755,-14.2343,-14.1598,-14.1126,-14.1126,-13.8352,-13.5938,-13.4913,-13.0388,-13.0296,-13.6293,-13.5146,-13.6876,-14.282,-13.9781,-13.8535,-13.979,-13.4983,-13.3345,-13.5159,-13.2953,-13.1261,-13.0219,-13.1878,-13.2903,-9.0905,-9.8918,-10.7326,-11.0768,-11.4323,-11.7485,-11.9476,-12.0225,-12.1487,-12.4976,-12.5839,-12.6537,-12.8747,-12.8673,-12.8186,-12.8065,-12.8065,-12.8065,-12.7943,-12.843,0.0,0.0,0.0,0.0,0.0,0.0,0.0,0.0,0.0,0.0,-13.7797,-13.7797,-13.7797,-13.7797,-13.7797,-13.7797,-13.7797,-13.7797,-13.7797,0.0,-14.0182,-14.1461,-14.1752,-14.2799,-14.3904,-14.5126,-14.5417,-14.5533,-14.5533,-14.5533,-14.5533,-14.5533,-14.5533,-14.5533,-14.5533,-14.5533,-14.5533,-14.5533,-14.5533,-14.5533,-14.5533,-14.5533,-14.5533,-14.5533,-14.5533,-14.6289,-14.7104,-14.7104,-14.7976,-14.8907,-14.8616,-14.8907,-14.9663,-15.0943,-15.1233,-15.1582,-15.2862,-15.292,-15.2804,-15.3095,-15.292,-15.2397,-15.1408,-15.0186,-14.8285,-14.5348,-14.3415,-14.2206,-14.2012,-14.146,-14.1126,-14.1126,-13.7784,-13.4306,-13.1751,-12.8041,-12.7838,-13.2133,-13.2279,-13.483,-14.0807,-13.4364,-13.1853,-13.4714,-13.0806,-12.9682,-13.1701,-13.0488,-12.9828,-12.9877,-13.2269,-13.3245,-10.2755,-10.4279,-10.5182,-11.5508,-11.4267,-11.2235,-11.9123,-12.0213,-12.0622,-12.3297,-12.4343,-12.55,-12.8028,-12.8308,-12.8065,-12.7519,-12.7396,-12.715,-12.659,-12.7027,0.0,0.0,0.0,0.0,0.0,0.0,0.0,0.0,0.0,0.0,0.0,-13.7797,-13.7797,-13.7797,-13.7797,-13.7797,-13.7797,-13.7797,-13.7797,-13.7855,-13.9251,-14.0531,-14.1752,-14.1869,-14.2625,-14.3904,-14.5068,-14.5533,-14.5533,-14.5533,-14.5533,-14.5533,-14.5533,-14.5533,-14.5533,-14.5533,-14.5533,-14.5533,-14.5533,-14.5533,-14.5533,-14.5533,-14.5533,-14.5533,-14.5533,-14.5649,-14.5708,-14.5708,-14.6696,-14.7453,-14.6231,-14.7627,-14.9663,-15.0943,-15.1233,-15.1582,-15.2862,-15.2222,-15.1757,-15.292,-15.2222,-15.1408,-15.1292,-15.0186,-14.8576,-14.6504,-14.3988,-14.2012,-14.1321,-14.1183,-14.1126,-14.1126,-13.5612,-13.1899,-13.1602,-12.5993,-12.4408,-12.8649,-12.8093,-12.9624,-13.4094,-12.9725,-12.9268,-13.3554,-12.7545,-12.6451,-13.0633,-12.9185,-12.8657,-12.8755,-13.1927,-13.2854,-8.8253,-9.4235,-9.937,-10.157,-10.6423,-11.1276,-11.3533,-11.4434,-11.6584,-12.323,-12.3131,-12.234,-12.3991,-12.5795,-12.6289,-12.3778,-12.5186,-12.6657,-12.6466,-12.6904,-12.8553,0.0,0.0,0.0,0.0,0.0,0.0,0.0,0.0,0.0,0.0,-13.7797,-13.7797,-13.7797,-13.7797,-13.7797,-13.7797,-13.7797,-13.7797,-13.7855,-13.9135,-14.0007,-14.0531,-14.0531,-14.1229,-14.2567,-14.3846,-14.4428,-14.4428,-14.5242,-14.5533,-14.5533,-14.5533,-14.5533,-14.5533,-14.5533,-14.5533,-14.5533,-14.5533,-14.5533,-14.5533,-14.5533,-14.5533,-14.5533,-14.5533,-14.5533,-14.5533,-14.5533,-14.594,-14.6406,-14.6696,-14.7511,-14.8558,-14.9837,-15.0128,-15.0245,-15.0768,-15.1059,-15.1175,-15.0884,-15.1281,-15.1234,-14.9728,-14.9254,-14.8179,-14.5476,-14.4181,-14.2863,-14.1239,-14.1126,-14.1126,-14.1126,-13.5468,-13.1602,-13.1602,-12.6337,-12.4379,-12.7269,-12.7782,-12.7827,-12.7551,-12.5243,-12.5193,-12.7708,-12.5169,-12.4615,-12.6451,-12.7166,-12.7534,-12.7632,-13.0902,-13.183,-8.0974,-8.7745,-9.4347,-9.3804,-9.9652,-10.6084,-10.9019,-10.9132,-11.1442,-12.146,-12.084,-11.9138,-12.1067,-12.2979,-12.3351,-12.1094,-12.3859,-12.6342,-12.6342,-12.6657,-12.824,-13.1496,0.0,0.0,0.0,0.0,0.0,0.0,0.0,0.0,0.0,-13.7797,-13.7797,-13.7797,-13.7797,-13.7797,-13.7797,-13.7797,-13.7797,-13.7855,-13.8728,-13.9135,-13.9135,-13.9135,-13.9891,-14.1229,-14.2508,-14.3265,-14.373,-14.501,-14.5533,-14.5533,-14.5533,-14.5533,-14.5533,-14.5533,-14.5533,-14.5533,-14.5533,-14.5533,-14.5533,-14.5533,-14.5533,-14.5533,-14.5533,-14.5533,-14.5533,-14.5533,-14.5533,-14.5824,-14.722,-14.7569,-14.7743,-14.8616,-14.879,-14.8907,-14.9256,-14.9779,-14.9875,-14.9156,-14.9995,-15.0211,-14.8342,-14.8532,-14.7969,-14.4701,-14.4163,-14.3431,-14.1434,-14.1126,-14.071,-13.9816,-13.4888,-13.1304,-13.0258,-12.597,-12.4001,-12.5975,-12.6327,-12.5526,-12.3448,-12.2556,-12.2507,-12.3288,-12.3288,-12.3288,-12.3337,-12.5436,-12.6412,-12.6509,-12.978,-13.0707,-8.8761,-8.9156,-9.1018,-9.841,-9.5608,-9.446,-10.6818,-10.5802,-10.5567,-11.6693,-11.7031,-11.6411,-12.0022,-11.9796,-11.9401,-12.053,-12.3859,-12.6342,-12.6342,-12.6342,-12.7495,-13.0685,-13.1657,0.0,0.0,0.0,0.0,0.0,0.0,0.0,0.0,-13.7797,-13.7797,-13.7797,-13.7797,-13.7797,-13.7797,-13.7797,-13.7797,-13.7797,-13.7855,-13.7855,-13.7855,-13.7855,-13.8553,-13.9833,-14.1171,-14.245,-14.373,-14.501,-14.5533,-14.5533,-14.5533,-14.5533,-14.5533,-14.5533,-14.5533,-14.5533,-14.5533,-14.5533,-14.5533,-14.5533,-14.5533,-14.5533,-14.5533,-14.5533,-14.5533,-14.5533,-14.5533,-14.5824,-14.722,-14.7569,-14.7569,-14.7569,-14.7569,-14.786,-14.9081,-14.8441,-14.7647,-14.818,-14.833,-14.8054,-14.7301,-14.8251,-14.7969,-14.4701,-14.4163,-14.3431,-14.1434,-14.1126,-13.9956,-13.6784,-13.3575,-13.0258,-12.7225,-12.3912,-12.2605,-12.3727,-12.2751,-12.2117,-12.2166,-12.2117,-12.2117,-12.2166,-12.2166,-12.2166,-12.2166,-12.4264,-12.5338,-12.5387,-12.8706,-12.9584,-8.1143,-8.5263,-8.9946,-9.3162,-9.3106,-9.5363,-10.6987,-10.8454,-10.7834,-10.9696,-11.2122,-11.4041,-11.4267,-11.9627,-12.3295,-12.1094,-12.3859,-12.6342,-12.6342,-12.6342,-12.7495,-13.0685,-13.1279,-13.2881,0.0,0.0,0.0,0.0,0.0,0.0,0.0,-13.7797,-13.7797,-13.7797,-13.7797,-13.7797,-13.7797,-13.7797,-13.7797,-13.7797,-13.7797,-13.7797,-13.7797,-13.7797,-13.8553,-13.9833,-14.1171,-14.245,-14.373,-14.501,-14.5533,-14.5533,-14.5533,-14.5533,-14.5533,-14.5533,-14.5533,-14.5533,-14.5533,-14.5533,-14.5533,-14.5533,-14.6173,-14.6755,-14.5824,-14.6173,-14.6755,-14.5824,-14.6231,-14.722,-14.8441,-14.879,-14.879,-14.879,-14.8151,-14.7394,-14.6871,-14.6699,-14.6524,-14.5732,-14.6235,-14.6685,-14.6462,-14.6978,-14.6834,-14.505,-14.4711,-14.3778,-14.1408,-14.1126,-14.071,-13.9816,-13.4888,-13.0258,-12.7225,-12.4656,-12.3093,-12.2702,-12.2312,-12.2117,-12.2117,-12.2117,-12.2117,-12.2117,-12.2117,-12.2117,-12.2117,-12.28,-12.3532,-12.4362,-12.6802,-12.7778,-7.962,-8.4529,-8.9608,-9.13,-9.0228,-9.1752,-10.3489,-10.4279,-10.2868,-10.3658,-10.6649,-10.9132,-10.9301,-11.5564,-12.0079,-11.8216,-12.1094,-12.4198,-12.606,-12.6342,-12.737,-13.0306,-13.0843,-13.2502,-13.6042,0.0,0.0,0.0,0.0,0.0,-13.7797,-13.7797,-13.7797,-13.7797,-13.7797,-13.7797,-13.7797,-13.7797,-13.7797,-13.7797,-13.6725,-13.6214,-13.6214,-13.4998,-13.5813,-13.817,-13.9493,-14.1476,-14.373,-14.501,-14.5533,-14.5533,-14.5533,-14.5533,-14.5533,-14.5533,-14.5533,-14.5533,-14.5533,-14.5533,-14.5533,-14.5533,-14.6115,-14.6755,-14.6406,-14.6522,-14.6755,-14.6406,-14.6929,-14.7743,-14.8441,-14.9023,-14.9198,-14.879,-14.8092,-14.7162,-14.5824,-14.5636,-14.525,-14.423,-14.4709,-14.5301,-14.4936,-14.5926,-14.5717,-14.2916,-14.2741,-14.1697,-13.8004,-13.8635,-13.8917,-13.7729,-13.396,-12.9807,-12.5423,-12.4368,-12.3337,-12.2214,-12.2117,-12.2117,-12.2117,-12.2117,-12.2117,-12.2117,-12.2117,-12.2117,-12.2117,-12.2117,-12.2702,-12.3825,-12.5533,-12.6509,-8.2667,-8.594,-8.9325,-9.209,-8.7915,-8.6165,-9.7733,-9.5777,-9.3127,-9.8692,-10.0724,-10.2304,-10.4843,-10.8398,-11.1727,-11.3928,-11.6693,-12.0304,-12.5214,-12.5665,-12.6511,-12.9163,-13.0136,-13.1906,-13.5414,-13.64,0.0,0.0,0.0,0.0,-13.7797,-13.7797,-13.7797,-13.7797,-13.7797,-13.7797,-13.7797,-13.7797,-13.7729,-13.7418,-13.4812,-13.3452,-13.3058,-13.034,-13.1518,-13.5596,-13.6647,-13.9695,-14.3846,-14.4877,-14.54,-14.5533,-14.5533,-14.5533,-14.5533,-14.5533,-14.5533,-14.5533,-14.5533,-14.5533,-14.5533,-14.5533,-14.5591,-14.594,-14.7162,-14.6696,-14.594,-14.7162,-14.7569,-14.7569,-14.755,-14.8422,-14.9061,-14.7841,-14.755,-14.7143,-14.5749,-14.4865,-14.4057,-14.3516,-14.3667,-14.3771,-14.2904,-14.4678,-14.429,-13.8663,-13.8825,-13.7684,-13.2365,-13.416,-13.4942,-13.1899,-13.1453,-12.8801,-12.286,-12.3253,-12.3239,-12.2214,-12.2117,-12.2117,-12.2117,-12.2117,-12.2117,-12.2117,-12.2117,-12.2117,-12.2117,-12.2117,-12.2654,-12.3727,-12.4752,-12.5777,-8.0579,-8.2103,-8.4811,-9.0115,-9.3727,-9.6774,-9.9652,-9.92,-9.7507,-9.5137,-9.4855,-9.5815,-9.8354,-10.3432,-11.0768,-12.1546,-11.8442,-11.6354,-12.132,-11.9627,-11.9458,-12.3859,-12.5336,-12.8219,-13.3797,-13.537,-13.6585,0.0,0.0,0.0,-13.7797,-13.7797,-13.7797,-13.7797,-13.7797,-13.7797,-13.7797,-13.7797,-13.6725,-13.4552,-13.3901,-13.2398,-13.0071,-12.9394,-13.196,-13.6838,-13.4751,-13.8065,-14.4993,-14.2821,-14.3401,-14.5533,-14.5533,-14.5533,-14.5533,-14.5533,-14.5533,-14.5533,-14.5533,-14.5533,-14.5533,-14.5533,-14.6231,-14.7162,-14.7453,-14.7336,-14.7162,-14.7453,-14.7569,-14.7666,-14.8049,-14.8931,-14.937,-14.7685,-14.7259,-14.6683,-14.444,-14.338,-14.2698,-14.2618,-14.2101,-14.1301,-13.967,-13.9845,-13.8991,-13.515,-13.4862,-13.419,-13.1909,-13.2195,-13.2491,-13.1751,-12.9406,-12.7481,-12.5889,-12.3737,-12.241,-12.2166,-12.2117,-12.2117,-12.2117,-12.2117,-12.2117,-12.2117,-12.2117,-12.2117,-12.2117,-12.2117,-12.2263,-12.2556,-12.363,-12.4704,-8.1425,-8.3795,-8.6165,-8.6673,-8.9325,-9.1808,-9.1808,-9.1808,-9.1075,-8.8366,-8.7802,-8.9438,-9.4799,-9.6661,-10.1119,-11.2517,-11.2856,-11.3589,-11.9119,-12.0135,-12.1151,-12.3239,-12.5552,-12.8242,-13.1531,-13.4255,-13.6329,0.0,0.0,0.0,-13.7797,-13.7797,-13.7797,-13.7797,-13.7797,-13.7797,-13.7797,-13.5128,-13.377,-13.3508,-13.0799,-12.8441,-12.6511,-12.5167,-12.7247,-13.1908,0.0,-13.3694,-14.0385,-13.8809,-14.0173,-14.3401,-14.3401,-14.4404,-14.5533,-14.5533,-14.5533,-14.5533,-14.5533,-14.5533,-14.5533,-14.5533,-14.6057,-14.6871,-14.8034,-14.7569,-14.6871,-14.8034,-14.724,-14.639,-14.7255,-14.8054,-14.8269,-14.667,-14.6703,-14.6474,-14.3953,-14.2835,-14.1874,-14.0319,-13.948,-13.8092,-13.5553,-13.5705,-13.483,-13.1051,-13.0959,-13.0244,-12.7634,-12.8497,-12.8801,-12.7328,-12.7021,-12.6504,-12.555,-12.3313,-12.2361,-12.2849,-12.241,-12.2117,-12.2117,-12.2117,-12.2361,-12.2898,-12.2898,-12.2898,-12.2898,-12.2898,-12.2898,-12.2947,-12.402,-12.5045,-8.3005,-8.6391,-8.8366,-8.3118,-8.182,-8.182,-8.182,-8.182,-8.182,-8.182,-8.182,-8.4134,-9.1639,-9.0454,-9.0623,-9.7507,-10.4843,-11.1614,-11.7314,-12.1884,-12.4536,-12.4198,-12.7132,-12.9304,-12.9832,-13.3428,-13.6201,-13.684,0.0,-13.7797,-13.7797,-13.7797,-13.7544,-13.7164,-13.7164,-13.6979,-13.647,-13.1601,-13.0126,-13.2133,-12.7119,-12.4091,-12.2953,-12.0313,-12.1508,-12.5338,0.0,-12.8486,-13.4301,-13.4179,-13.6398,-14.0067,-14.0206,-14.1785,-14.4077,-14.4077,-14.4077,-14.4077,-14.4077,-14.4539,-14.4941,-14.54,-14.5533,-14.5998,-14.8325,-14.7394,-14.5865,-14.7644,-14.6058,-14.4017,-14.5007,-14.56,-14.5835,-14.5028,-14.5796,-14.5967,-14.3622,-14.2149,-14.0514,-13.776,-13.6387,-13.4651,-13.1453,-13.1846,-13.1207,-12.717,-12.7208,-12.6571,-12.2777,-12.4788,-12.5313,-12.2434,-12.4538,-12.5513,-12.3755,-12.2654,-12.2188,-12.263,-12.1806,-12.1481,-12.2117,-12.2117,-12.2556,-12.3532,-12.3727,-12.3454,-12.297,-12.3115,-12.284,-12.2352,-12.322,-12.4183,-8.2046,-8.2667,-8.3005,-8.2046,-8.182,-8.182,-8.182,-8.182,-8.182,-8.182,-8.182,-8.2554,-8.4868,-8.9833,-9.2993,-9.1188,-10.1457,-11.0712,-11.3759,-11.579,-11.8442,-12.2449,-12.4311,-12.7155,-13.1993,-13.4457,-13.6201,-13.684,-13.7476,-13.7797,-13.7797,-13.7797,-13.6725,-13.4292,-13.4162,-13.2926,-13.034,-12.953,-12.8084,-12.6147,-12.4604,-12.2523,-11.9926,-11.8801,-12.0483,-12.4523,0.0,0.0,-13.2477,-13.1507,-13.3067,-13.6134,-13.6708,-13.7279,-13.7705,-13.7705,-13.7705,-13.7705,-13.7705,-13.9452,-14.2116,-14.4673,-14.5533,-14.5824,-14.7336,-14.6755,-14.5289,-14.3405,-14.1693,-14.0431,-14.0449,-14.0521,-14.1061,-14.2904,-14.3495,-14.3269,-14.1742,-13.9254,-13.7213,-13.6729,-13.4306,-13.1304,-12.8245,-12.7787,-12.7168,-12.4664,-12.4432,-12.4321,-12.3581,-12.4013,-12.3781,-12.2214,-12.2592,-12.2641,-12.2361,-12.2214,-12.089,-11.8035,-11.7731,-11.8979,-12.1958,-12.2117,-12.2214,-12.2361,-12.3337,-12.2274,-11.9026,-11.9919,-11.8791,-11.5534,-11.5669,-11.6428,-8.182,-8.2166,-8.2285,-8.1611,-8.1442,-8.1523,-8.182,-8.182,-8.182,-8.182,-8.182,-8.2135,-8.3072,-8.6613,-8.9479,-8.976,-9.5977,-10.2484,-10.7559,-11.2131,-11.6855,-12.2046,-12.4075,-12.5598,-12.6872,-13.2404,-13.5371,-13.3958,-13.6342,-13.7164,-13.5515,-13.5515,-13.4162,-13.1201,-13.1201,-12.9665,-12.6842,-12.522,-12.4568,-12.4798,-12.2432,-12.0313,-11.8654,-11.7766,-11.841,0.0,0.0,0.0,-12.5491,-12.5535,-12.7656,-13.1147,-13.252,-13.4053,-13.5702,-13.6134,-13.6278,-13.6278,-13.6278,-13.7136,-13.8891,-14.2116,-14.427,-14.5824,-14.7162,-14.4843,-14.1152,-13.8225,-13.6804,-13.5955,-13.5828,-13.6039,-13.6362,-13.679,-13.7462,-13.7571,-13.6173,-13.4888,-13.3281,-13.1655,-13.016,-12.8092,-12.4801,-12.4382,-12.4151,-12.379,-12.3288,-12.3142,-12.3727,-12.3288,-12.2702,-12.2166,-12.2117,-12.1273,-11.9463,-11.7427,-11.5585,-11.3939,-11.5796,-11.7474,-11.9141,-12.1113,-12.2117,-12.2117,-12.1739,-11.9872,-11.6097,-11.71,-11.6699,-11.502,-11.502,-11.551,-8.3353,0.0,-8.5593,-8.4673,-8.3638,-8.2881,0.0,-8.2667,-8.182,-8.166,-8.166,-8.186,-8.2268,-8.3666,-8.5709,-8.842,-9.1256,-9.5371,-10.2002,-10.8234,-11.4318,-12.0237,-12.2015,-12.2518,-12.1928,-12.9375,-13.3152,-13.053,-13.4219,-13.5386,-13.2663,-13.2531,-13.1201,-12.8221,-12.7395,-12.6007,-12.386,-12.1526,-12.1577,-12.3717,-12.051,-11.8654,-11.7914,-11.7022,-11.6574,0.0,0.0,0.0,-11.9305,-12.0847,-12.3319,-12.6502,-12.8539,-13.0909,-13.3081,-13.3814,-13.4106,-13.4106,-13.4106,-13.4544,-13.5558,-13.776,-14.0901,-14.4173,-14.5151,-14.1691,-13.6851,-13.3468,-13.1994,-13.1549,-13.1453,-13.1689,-13.186,-13.1664,-13.2288,-13.2859,-13.1813,-13.1006,-12.9859,-12.7328,-12.6302,-12.4957,-12.2434,-12.2361,-12.28,-12.3679,-12.3288,-12.3093,-12.3727,-12.3044,-12.241,-12.2166,-12.1321,-11.9784,-11.7149,-11.2959,-11.0322,-11.0101,-11.3004,-11.4875,-11.5468,-11.8124,-11.9624,-11.9624,-11.8366,-11.6663,-11.4345,-11.4507,-11.4204,-11.341,-11.341,-11.3759,0.0,-9.1425,-9.4128,-9.4533,-9.1125,-8.7948,-8.8561,-8.515,0.0,-8.1224,-8.1143,-8.1037,-8.0742,-8.2884,-8.4728,-8.4637,-8.9269,-9.4612,-9.9188,-10.2642,-10.7509,-11.4944,-11.4897,-11.6182,-12.1418,-12.6329,-12.8648,-12.7425,-13.072,-13.1846,-12.9585,-12.9394,-12.8084,-12.522,-12.2535,-12.0997,-12.0903,-12.0611,-12.0611,-12.0757,-11.8949,-11.8062,-11.7914,-11.6424,-11.5776,0.0,0.0,0.0,0.0,-12.0565,-12.1762,-12.2376,-12.5122,-12.635,-12.6659,-12.7532,-12.7787,-12.7787,-12.7787,-12.9713,-13.2058,-13.1357,-13.478,-13.9032,-13.9143,-13.6906,-13.3468,-12.9506,-12.8294,-12.8142,-12.7481,-12.743,-12.8042,-13.0909,-13.1655,-13.1707,-13.1602,-12.9255,-12.7225,-12.6918,-12.4538,-12.2275,-12.2117,-12.2995,-12.3727,-12.3776,-12.4557,-12.4752,-12.3923,-12.3727,-12.3288,-12.2263,-11.9141,-11.7149,-11.6776,-11.1065,-10.7346,-10.6494,-10.739,-10.9152,-11.1612,-11.2068,-11.2068,-11.2068,-11.208,-11.2684,-11.439,-11.2703,-11.0096,-10.6643,-10.6643,-10.6643,-9.1603,-9.3896,-9.5428,-9.485,-9.1017,-8.7563,-8.8153,-8.4532,-8.0956,-8.0793,-8.0656,-8.0493,-8.0083,-8.1549,-8.3517,-8.5614,-8.8429,-9.1741,-9.5618,-10.1487,-10.5745,-10.6341,-11.1263,-11.546,-11.7436,-12.2597,-12.5096,-12.3358,-12.7185,-12.8768,-12.6564,-12.6425,-12.5079,-12.2247,-12.1142,-12.0466,-12.0466,-12.0466,-12.0466,-12.0466,-11.8801,-11.8062,-11.7914,-11.6424,-11.5625,0.0,0.0,0.0,0.0,-11.8911,-11.9947,-12.0298,-12.3161,-12.4638,-12.5263,-12.604,-12.6659,-12.7071,-12.7071,-12.7532,-12.8399,-12.9859,-13.1453,-13.3174,-13.5124,-13.2786,-12.8801,-12.5218,-12.4332,-12.4176,-12.3912,-12.3912,-12.4226,-12.5373,-12.5683,-12.5683,-12.5683,-12.4801,-12.3912,-12.3912,-12.286,-12.2117,-12.2117,-12.2458,-12.2995,-12.3679,-12.3532,-12.3435,-12.3776,-12.3191,-12.2605,-12.2166,-11.8979,-11.504,-11.0386,-10.6933,-10.4787,-10.4458,-10.6785,-10.8321,-10.8722,-11.0921,-11.1853,-11.1234,-10.9022,-10.8595,-10.9846,-10.756,-10.6319,-10.6026,-10.6026,-10.6026,-9.5868,-9.8181,-9.9602,-9.8984,-9.5077,-9.121,-9.0278,-8.621,-8.2271,-8.058,-8.0247,-8.0083,-7.9588,-8.0992,-8.2948,-8.5393,-8.7941,-9.0736,-9.3786,-9.9859,-10.3158,-10.0943,-10.7493,-11.1775,-11.1307,-11.7432,-12.0808,-11.9166,-12.32,-12.4864,-12.3053,-12.3276,-12.2483,-12.0611,-12.0466,-12.0466,-12.0466,-12.0466,-12.0466,-12.0173,-11.8654,-11.7914,-11.7617,-11.6275,-11.5625,0.0,0.0,0.0,0.0,-11.8163,-11.914,-11.9783,-12.2378,-12.3854,-12.4638,-12.5624,-12.6504,-12.7121,-12.6813,-12.635,-12.6195,-12.7685,-12.8497,-12.9255,-13.1155,-12.8801,-12.4957,-12.2702,-12.2117,-12.2117,-12.2117,-12.2117,-12.2117,-12.2117,-12.2117,-12.2117,-12.2117,-12.2117,-12.2117,-12.2117,-12.2117,-12.2117,-12.2117,-12.241,-12.28,-12.3239,-12.2947,-12.264,-12.2919,-12.2286,-12.1162,-11.9784,-11.6893,-11.2528,-10.6049,-10.3393,-10.2208,-10.2388,-10.4703,-10.5678,-10.4923,-10.733,-10.8401,-10.7764,-10.5104,-10.4442,-10.5654,-10.3686,-10.3771,-10.5583,-10.5865,-10.6026,-10.0884,-10.5144,-10.7989,-10.8723,-10.5036,-10.0139,-9.5987,-9.1203,-8.6145,-8.0774,-7.9699,-7.9534,-7.9174,-8.1397,-8.3216,-8.2837,-8.7555,-9.2065,-9.4348,-9.713,-9.9181,-9.9736,-10.2793,-10.4362,-10.2993,-11.053,-11.5269,-11.4819,-11.8547,0.0,-11.8789,-11.9856,-12.0466,-12.0466,-12.0466,-12.0466,-12.0466,-12.0466,-12.0123,-11.939,-11.8358,-11.7617,-11.6873,-11.5975,-11.5625,0.0,0.0,0.0,0.0,-11.8456,-11.953,-12.0604,-12.2673,-12.3854,-12.4638,-12.5624,-12.635,-12.6967,-12.6195,-12.5935,-12.5574,-12.4011,-12.5423,-12.794,-12.7021,-12.4695,-12.2117,-12.2117,-12.2117,-12.2117,-12.2117,-12.2117,-12.2117,-12.2117,-12.2117,-12.2117,-12.2117,-12.2117,-12.2117,-12.2117,-12.2117,-12.2117,-12.2117,-12.3044,-12.3435,-12.2153,-12.3093,-12.3065,-12.0987,-12.0842,-11.8979,-11.4599,-11.2461,-10.941,-10.4862,-10.1221,-9.9497,-10.0394,-10.0503,-10.0467,-10.0246,-10.0246,-10.0246,-10.0207,-9.9607,-10.0109,-10.1803,-10.1843,-10.2825,-10.4475,-10.5583,-10.5985,-10.4646,-10.7056,-10.7875,-10.8102,-10.449,-9.9618,-9.5,-9.0173,-8.5292,-8.0326,-7.9257,-7.9257,-7.909,-7.9775,-8.0899,-8.2564,-8.5672,-8.9166,-9.276,-9.7521,-10.126,-10.2741,-10.5856,-10.7717,-10.7419,-10.9589,-11.1535,-11.2815,-11.59,-11.7822,-11.7923,-11.8805,-11.9653,-12.0466,-11.9703,-11.9297,-11.9297,-11.8718,-11.8377,-11.8086,-11.7516,-11.7022,-11.6873,-11.5975,-11.5625,-11.5625,-11.5625,0.0,0.0,-11.8163,-11.914,-11.9579,-12.1749,-12.3067,-12.3854,-12.4011,-12.4638,-12.5263,-12.5107,-12.4638,-12.4011,-12.354,-12.3648,-12.3755,-12.3648,-12.286,-12.2117,-12.2117,-12.2117,-12.2117,-12.2117,-12.2117,-12.2117,-12.2117,-12.2117,-12.2117,-12.2117,-12.2117,-12.2117,-12.2117,-12.2117,-12.2117,-12.2117,-12.241,-12.1661,-11.8865,-11.7988,-11.6683,-11.3563,-11.2688,-11.1689,-11.035,-10.7477,-10.4018,-10.0097,-9.989,-10.0493,-10.1263,-10.1394,-10.1232,-10.1073,-10.1073,-10.0531,-9.9332,-9.9061,-9.9025,-9.8948,-9.9576,-10.0865,-10.2643,-10.3519,-10.4645,-10.4691,-10.7022,-10.7875,-10.7875,-10.569,-10.1812,-9.5094,-9.1174,-8.7283,-8.051,-7.909,-7.909,-7.909,-7.991,-8.1313,-8.3635,-8.6788,-9.0476,-9.488,-9.9297,-10.3063,-10.5404,-10.7509,-10.8854,-10.928,-10.928,-10.9667,-11.0873,-11.3553,-11.5268,-11.5412,-11.7274,-11.866,-11.9318,-11.8711,-11.8357,-11.8357,-11.7488,-11.7002,-11.671,-11.6775,-11.6723,-11.6424,-11.5824,-11.5625,-11.5625,-11.5625,0.0,0.0,-11.7724,-11.8798,-11.9676,-12.0994,-12.22,-12.3382,-12.3382,-12.3854,-12.4482,-12.4168,-12.3854,-12.3382,-12.3067,-12.2592,-12.2117,-12.2117,-12.2117,-12.2117,-12.2117,-12.2117,-12.2117,-12.2117,-12.2117,-12.2117,-12.2117,-12.2117,-12.2117,-12.2117,-12.2117,-12.2117,-12.2117,-12.2117,-12.2117,-12.2117,-12.0586,-11.8723,-11.6567,-11.4132,-11.1766,-10.9295,-10.845,-10.7432,-10.5595,-10.2186,-9.9226,-9.7373,-9.7836,-9.9011,-10.0542,-10.029,-10.0276,-10.0868,-10.0906,-10.0408,-9.9412,-9.9067,-9.8782,-9.8688,-9.9375,-9.9476,-9.9351,-10.1942,-10.2833,-10.2104,-10.547,-10.742,-10.7534,-10.7762,-10.5363,-9.575,-9.3565,-9.0779,-8.1111,-7.909,-7.9007,-7.8923,-8.1127,-8.3494,-8.5144,-8.9642,-9.4563,-9.9112,-10.1701,-10.4371,-10.7657,-10.7997,-10.8426,-10.9138,-10.928,-10.928,-10.928,-11.1393,-11.2555,-11.1986,-11.5312,-11.7237,-11.7438,-11.7287,-11.7237,-11.7337,-11.6461,-11.5732,-11.5097,-11.6034,-11.6326,-11.5625,-11.5625,-11.5625,-11.5625,-11.5625,0.0,0.0,-11.7187,-11.8407,-12.0213,-12.0311,-12.1514,-12.3234,-12.3234,-12.3598,-12.4325,-12.354,-12.3382,-12.3224,-12.2275,-12.2117,-12.2117,-12.2117,-12.2117,-12.2117,-12.2117,-12.2117,-12.2117,-12.2117,-12.2117,-12.2117,-12.2117,-12.2117,-12.1958,-12.164,-12.1799,-12.1958,-12.164,-12.1799,-12.1958,-12.1958,-11.8191,-11.4955,-11.4626,-11.0764,-10.7389,-10.6409,-10.6281,-10.4564,-10.0473,-9.7019,-9.5311,-9.6244,-9.5528,-9.6035,-9.8552,-9.801,-9.8217,-9.9812,-9.9926,-9.9926,-9.985,-9.9128,-9.8897,-9.9379,-9.9341,-9.7813,-9.4811,-9.9432,-9.9623,-9.9181,-10.2016,-10.4198,-10.4718,-10.6395,-10.5363,-9.575,-9.3565,-9.0779,-8.1111,-7.909,-7.8673,-7.7128,-8.0567,-8.368,-8.3575,-8.9867,-9.5914,-9.9239,-10.2217,-10.4701,-10.6943,-10.771,-10.814,-10.8283,-10.8854,-10.928,-10.928,-10.976,-11.0284,-11.0758,-11.2797,-11.4913,-11.6661,-11.5012,-11.4513,-11.5412,-11.3702,-11.3269,-11.3867,-11.4361,-11.5043,-11.5625,-11.5625,-11.5625,-11.5625,-11.5625,0.0,0.0,-11.6894,-11.7529,-11.8017,-11.8944,-12.0076,-12.1211,-12.1211,-12.17,-12.2592,-12.2434,-12.2434,-12.2275,-12.2117,-12.2117,-12.2117,-12.2117,-12.2117,-12.2117,-12.2117,-12.2117,-12.2117,-12.2117,-12.2117,-12.2117,-12.2117,-12.2117,-12.1321,-11.8609,-12.0153,-12.1273,-11.8447,-11.9671,-12.1162,-12.1162,-11.7427,-11.3397,-11.0517,-10.6238,-10.2139,-9.9145,-9.8084,-9.7375,-9.6345,-9.549,-9.5169,-9.5349,-9.5169,-9.5588,-9.6653,-9.7338,-9.7989,-9.8976,-9.9622,-9.966,-9.9014,-9.8862,-9.6878,-9.3187,-9.3114,-9.1899,-8.9386,-9.0516,-9.1283,-9.6102,-9.8945,-10.1298,-10.1538,-10.2901,-10.2232,-9.4834,-9.4203,-9.2308,-8.2644,-8.0986,-8.0147,-7.6813,-8.0236,-8.3679,-8.4324,-9.1026,-9.7192,-10.0235,-10.2474,-10.4365,-10.6126,-10.7087,-10.771,-10.7997,-10.8854,-10.928,-10.928,-10.928,-10.9422,-10.9848,-11.0764,-11.2227,-11.4342,-11.33,-11.2952,-11.3598,-11.2143,-11.2006,-11.3086,-11.3772,-11.4698,-11.5625,-11.5625,-11.5625,-11.5625,-11.5625,0.0,-11.5674,-11.626,-11.6797,-11.7285,-11.7871,-11.8798,-11.9774,-11.9774,-12.0457,-12.1385,-12.1385,-12.1678,-12.1799,-12.0153,-12.0634,-12.2117,-12.2117,-12.2117,-12.2117,-12.2117,-12.2117,-12.2117,-12.2117,-12.2117,-12.2117,-12.2117,-12.0794,-11.9141,-11.7149,-11.6613,-11.5703,-11.3893,-11.4389,-11.5047,-11.4882,-11.1143,-10.7645,-10.5595,-10.1482,-9.7907,-9.6026,-9.5311,-9.499,-9.499,-9.499,-9.499,-9.499,-9.499,-9.5332,-9.6205,-9.6698,-9.7496,-9.8711,-9.9166,-9.9356,-9.9356,-9.7398,-9.506,-9.2316,-9.0376,-8.767,-8.4733,-8.6682,-8.7043,-9.293,-9.5602,-9.8086,-9.8382,-9.924,-9.8683,-9.3993,-9.4562,-9.366,-8.4861,-8.301,-8.1725,-7.7312,-8.0522,-8.4026,-8.4827,-9.169,-9.7959,-10.046,-10.1864,-10.3414,-10.5453,-10.6366,-10.7279,-10.7997,-10.8854,-10.928,-10.928,-10.928,-10.928,-10.928,-10.928,-10.9956,-11.1552,-11.1749,-11.1848,-11.1848,-11.0983,-11.1135,-11.2258,-11.3331,-11.4405,-11.5381,-11.5577,-11.5625,-11.5625,-11.5625,0.0,-11.5625,-11.5625,-11.6162,-11.6992,-11.6992,-11.7675,-11.8651,-11.8651,-11.9432,-12.0349,-11.9878,-12.0716,-12.1273,-11.7102,-11.7752,-12.0266,-12.0266,-12.0266,-12.0266,-12.0266,-12.0266,-12.0266,-12.0266,-12.0266,-12.0266,-12.0266,-11.7961,-11.5796,-11.5632,-11.2189,-10.8958,-10.8789,-10.862,-10.845,-10.8238,-10.4522,-10.1657,-10.1657,-9.7907,-9.499,-9.499,-9.499,-9.499,-9.499,-9.499,-9.499,-9.499,-9.499,-9.5294,-9.6015,-9.6205,-9.6964,-9.8483,-9.8673,-9.8753,-9.8791,-9.548,-9.2947,-9.1561,-8.8062,-8.4135,-8.0229,-8.3772,-8.3376,-8.8728,-9.1883,-9.4216,-9.5447,-9.7519,-9.8151,-9.3878,-9.3209,-9.1851,-8.6404,-8.3173,-8.075,-7.8508,-8.2885,-8.5536,-8.1568,-8.9974,-9.7173,-9.7605,-9.9246,-10.182,-10.5264,-10.6366,-10.7279,-10.7997,-10.8854,-10.928,-10.928,-10.928,-10.928,-10.928,-10.928,-10.9329,-10.9618,-11.0546,-11.0986,-11.0986,-10.9964,-11.0012,-11.1086,-11.2209,-11.3331,-11.4356,-11.5235,-11.5625,-11.5625,-11.5625,0.0,-11.5625,-11.5625,-11.5723,-11.5869,-11.5869,-11.6504,-11.748,-11.748,-11.8798,-12.0036,-11.6883,-11.8555,-12.0794,-11.3352,-11.1689,-11.2733,-11.2733,-11.2733,-11.2733,-11.2733,-11.2733,-11.2733,-11.2733,-11.2733,-11.2733,-11.2733,-11.2446,-11.1901,-11.1188,-10.7942,-10.508,-10.426,-10.5938,-10.7432,-10.7432,-10.37,-10.0608,-10.0608,-9.7375,-9.499,-9.499,-9.499,-9.499,-9.499,-9.499,-9.499,-9.499,-9.499,-9.5028,-9.5142,-9.5863,-9.6698,-9.7648,-9.8369,-9.7401,-9.4486,-9.3945,-9.0204,-8.2949,-8.2355,-7.983,-7.5702,-7.6278,-7.6278,-8.4777,-8.8084,-9.1154,-9.2187,-9.3596,-9.4384,-9.2877,-9.3733,-9.3341,-8.8537,-8.5865,-8.3404,-7.9892,-8.3274,-8.5981,-8.3842,-9.1579,-9.803,-9.8638,-9.9994,-10.1819,-10.398,-10.5889,-10.6991,-10.7423,-10.8568,-10.928,-10.928,-10.8695,-10.8353,-10.8353,-10.8939,-10.928,-10.928,-10.972,-10.9964,-10.9964,-10.9524,-10.9817,-11.0842,-11.1379,-11.216,-11.3283,-11.4308,-11.4796,-11.4844,0.0,-11.5625,-11.5625,-11.5625,-11.5625,-11.5625,-11.5625,-11.4812,-11.3469,-11.3469,-11.3353,-11.2811,-11.1197,-11.2361,-11.3683,-10.862,-10.8663,-11.0685,-11.1232,-11.14,-11.14,-11.14,-11.1065,-11.0685,-11.0685,-11.0181,-10.9845,-10.9845,-10.8324,-10.6665,-10.6281,-10.3437,-10.0553,-9.9674,-9.9986,-10.0433,-10.0433,-9.8753,-9.7375,-9.7375,-9.5988,-9.499,-9.499,-9.499,-9.499,-9.499,-9.499,-9.499,-9.499,-9.499,-9.499,-9.499,-9.4791,-9.427,-9.3234,-9.3447,-9.2316,-8.9393,-8.7638,-8.4924,-8.1194,-7.883,-7.6681,-7.4922,-7.5264,-7.5264,-8.1026,-8.3636,-8.6722,-8.8316,-8.8717,-8.9112,-9.1552,-9.2957,-9.3198,-9.0796,-8.8896,-8.6617,-8.332,-8.5414,-8.739,-8.6596,-9.2888,-9.803,-9.8778,-9.976,-10.1163,-10.2851,-10.4701,-10.6131,-10.6704,-10.7606,-10.8124,-10.8274,-10.7254,-10.6672,-10.6672,-10.7691,-10.8416,-10.8558,-10.8565,-10.8711,-10.8996,-10.8711,-10.9099,-10.9732,-11.0312,-11.0992,-11.1868,-11.2004,-11.214,-11.2189,-11.2096,-11.2525,-11.3331,-11.3923,-11.4067,-11.4067,-11.4219,-11.2143,-10.8963,-10.8963,-10.7991,-10.6359,-10.4165,-10.3983,-10.4577,-10.2809,-10.4228,-10.6834,-10.7602,-10.8028,-10.8198,-10.8028,-10.7645,-10.7305,-10.6964,-10.6452,-10.5938,-10.5938,-10.3742,-10.1738,-10.1564,-9.9361,-9.7135,-9.6244,-9.5528,-9.499,-9.499,-9.499,-9.499,-9.499,-9.499,-9.499,-9.499,-9.499,-9.499,-9.499,-9.499,-9.499,-9.499,-9.481,-9.4347,-9.3413,-9.2362,-9.0599,-8.8111,-8.8024,-8.6722,-8.3874,-8.1561,-7.9999,-7.88,-7.5673,-7.4169,-7.4744,-7.5225,-7.5282,-7.7254,-7.8297,-7.9572,-8.3955,-8.2927,-8.2655,-8.9813,-8.9329,-8.8543,-9.274,-9.1192,-8.932,-9.0069,-9.1158,-9.1065,-8.7997,-9.2093,-9.56,-9.5646,-9.6535,-9.8585,-10.243,-10.2997,-10.3988,-10.6264,-10.5725,-10.5252,-10.546,-10.4599,-10.3977,-10.3977,-10.4982,-10.5887,-10.6642,-10.6895,-10.7423,-10.814,-10.7423,-10.7039,-10.7086,-10.8961,-10.9734,-10.9685,-10.7744,-10.6768,-10.6559,-10.3634,-10.4236,-10.7272,-10.8966,-10.9584,-10.9832,-11.0606,-10.8339,-10.4467,-10.4467,-10.5061,-10.4625,-9.6214,-9.3913,-9.4806,-9.5485,-9.6459,-9.7493,-9.8281,-9.9225,-9.9754,-9.8694,-9.9225,-9.9578,-9.8694,-9.834,-9.8379,-9.8379,-9.8202,-9.7847,-9.6919,-9.6562,-9.6244,-9.5349,-9.5169,-9.499,-9.499,-9.499,-9.499,-9.499,-9.499,-9.499,-9.499,-9.499,-9.499,-9.499,-9.499,-9.499,-9.499,-9.4091,-9.218,-8.8971,-8.7891,-8.6071,-8.3437,-8.3307,-8.1736,-7.834,-7.817,-7.6191,-7.2258,-7.2054,-7.2764,-7.4369,-7.4397,-7.5116,-7.4418,-7.5397,-7.6791,-8.0789,-8.1017,-8.1154,-8.4322,-8.4144,-8.396,-8.6234,-8.6108,-8.6229,-8.7698,-9.0424,-9.2187,-9.1766,-9.4898,-9.7423,-9.7423,-9.8311,-9.9525,-10.0929,-10.2055,-10.3422,-10.4845,-9.9375,-9.6099,-9.7377,-9.8957,-9.976,-9.976,-10.0924,-10.1809,-10.2605,-10.0752,-10.0177,-10.1107,-10.0855,-10.0706,-10.0706,-10.1365,-10.165,-10.1696,-10.1438,-10.1428,-10.1473,-10.1017,-10.2699,-10.591,-10.6537,-10.7088,-10.7531,-10.784,-10.4726,-10.0051,-10.0051,-9.888,-9.6763,-9.2988,-9.2283,-9.3221,-9.4089,-9.5077,-9.5932,-9.7436,-9.8612,-9.9264,-9.8911,-9.8557,-9.8025,-9.7135,-9.6422,-9.6065,-9.6065,-9.6065,-9.5886,-9.5707,-9.5528,-9.5528,-9.5131,-9.499,-9.499,-9.499,-9.499,-9.499,-9.499,-9.499,-9.499,-9.499,-9.499,-9.499,-9.499,-9.499,-9.481,-9.4091,-9.1743,-8.9534,-8.7553,-8.4391,-8.1252,-7.8085,-7.7948,-7.6322,-7.2812,-7.3623,-7.3218,-7.1647,-7.1647,-7.2151,-7.3163,-7.3163,-7.4113,-6.9591,-7.0461,-7.2048,-7.5942,-7.6872,-7.77,-8.0468,-8.0331,-8.0137,-8.2349,-8.3186,-8.3962,-8.5491,-8.7971,-9.0376,-9.2356,-9.4682,-9.6702,-9.7947,-9.9014,-9.9573,-9.9573,-9.9714,-10.0318,-10.1579,-9.4582,-9.0603,-9.2129,-9.3886,-9.4708,-9.4708,-9.5788,-9.6782,-9.7555,-9.6017,-9.5434,-9.6385,-9.6429,-9.645,-9.645,-9.645,-9.6602,-9.6754,-9.6332,-9.6126,-9.6212,-9.57,-9.7492,-10.0644,-10.1305,-10.1835,-10.2453,-10.2919,-9.9956,-9.513,-9.5453,-9.3969,-9.167,-9.0985,-9.1193,-9.186,-9.2685,-9.3318,-9.4243,-9.6011,-9.7123,-9.7986,-9.7907,-9.7669,-9.7135,-9.6244,-9.5528,-9.499,-9.499,-9.499,-9.499,-9.499,-9.499,-9.499,-9.499,-9.499,-9.499,-9.499,-9.499,-9.499,-9.499,-9.499,-9.499,-9.499,-9.499,-9.4593,-9.3115,-9.2717,-9.1595,-8.9595,-8.6917,-8.4624,-8.2776,-7.9806,-7.6408,-7.2924,-7.2807,-7.1819,-6.9429,-7.0247,-7.0628,-7.0628,-7.0628,-7.1128,-7.1927,-7.1927,-7.2981,-6.3584,-6.3786,-6.5221,-6.9059,-7.0164,-7.1912,-7.8375,-7.7543,-7.684,-8.167,-8.2752,-8.3139,-8.4191,-8.4498,-8.5819,-8.9655,-9.081,-9.2744,-9.6517,-9.7809,-9.8269,-9.8269,-9.5633,-9.4403,-9.6054,-9.1783,-8.9343,-9.0379,-8.9616,-8.9107,-8.9107,-8.9955,-9.0903,-9.1736,-9.2649,-9.3436,-9.4338,-9.4414,-9.4464,-9.4464,-9.4507,-9.4924,-9.5646,-9.2305,-9.0789,-9.0714,-8.7618,-8.8251,-9.1496,-9.3026,-9.3914,-9.4197,-9.5824,-9.3834,-9.0012,-9.1027,-9.0658,-8.9979,-8.9979,-9.0016,-9.013,-9.0928,-9.1193,-9.1535,-9.3168,-9.4406,-9.5128,-9.5082,-9.5669,-9.6205,-9.5311,-9.499,-9.499,-9.499,-9.499,-9.499,-9.499,-9.499,-9.499,-9.499,-9.499,-9.499,-9.499,-9.499,-9.499,-9.499,-9.499,-9.4773,-9.4773,-9.4773,-9.3115,-8.9195,-8.7844,-8.5571,-8.1681,-7.995,-7.7807,-7.4388,-7.3727,-7.2002,-6.8584,-6.8405,-6.8405,-6.8405,-6.8405,-6.8405,-6.8405,-6.8405,-6.9334,-7.0947,-7.092,-7.2157,-7.1722,-6.7979,-6.4723,-6.647,-6.702,-6.7394,-6.9232,-6.9133,-6.9695,-7.383,-7.6408,-7.8332,-7.9909,-8.2044,-8.4223,-8.6659,-8.7197,-8.8105,-9.0374,-9.0789,-9.1119,-9.1733,-9.1019,-8.9812,-8.7991,-8.4632,-8.2738,-8.2973,-8.478,-8.5798,-8.5798,-8.6149,-8.6746,-8.755,-8.5674,-8.505,-8.5794,-8.6544,-8.682,-8.682,-8.7448,-8.7722,-8.8039,-8.7088,-8.6649,-8.6688,-8.5677,-8.7158,-9.045,-9.085,-9.1453,-9.21,-9.2462,-9.1162,-8.9137,-8.9366,-8.9312,-8.9219,-8.9789,-9.0016,-9.0054,-9.0282,-9.0738,-9.1421,-9.3182,-9.4051,-9.4534,-9.5642,-9.5782,-9.5474,-9.5196,-9.499,-9.499,-9.499,-9.499,-9.499,-9.499,-9.499,-9.499,-9.499,-9.499,-9.499,-9.499,-9.499,-9.499,-9.499,-9.2536,-9.0469,-8.9706,-8.7076,-8.4464,-8.2797,-8.2206,-8.1308,-7.947,-7.7178,-7.5024,-7.3296,-7.1179,-6.9449,-6.8405,-6.8405,-6.8405,-6.8405,-6.8405,-6.8405,-6.8405,-6.8405,-6.8923,-6.9677,-6.9259,-7.0299,-7.0734,-6.6097,-6.2787,-6.4718,-6.4391,-6.4451,-6.7089,-6.6661,-6.6762,-7.0334,-7.2344,-7.3846,-7.4905,-7.651,-7.8641,-8.1414,-8.2044,-8.3349,-8.6535,-8.732,-8.7921,-8.9065,-8.697,-8.466,-8.2918,-8.12,-8.0032,-8.0032,-8.1762,-8.262,-8.262,-8.262,-8.2855,-8.3516,-8.2088,-8.1474,-8.1968,-8.3145,-8.3752,-8.3752,-8.4549,-8.4967,-8.4967,-8.4967,-8.4967,-8.4967,-8.4967,-8.605,-8.792,-8.792,-8.8195,-8.8667,-8.906,-8.8587,-8.7739,-8.7739,-8.8194,-8.884,-8.9333,-8.9713,-9.0016,-9.0016,-9.032,-9.0852,-9.2417,-9.2647,-9.3088,-9.4468,-9.4468,-9.3672,-9.2139,-9.1796,-9.1658,-8.9998,-9.1194,-9.2175,-9.0288,-9.1413,-9.1994,-9.0288,-8.9924,-8.9924,-8.9924,-9.1413,-9.1994,-9.0288,-8.7661,-8.5605,-8.5018,-8.2611,-8.0716,-8.0155,-7.85,-7.6458,-7.3672,-7.1997,-7.0788,-7.0221,-6.9175,-6.8405,-6.8405,-6.8405,-6.8405,-6.8405,-6.8405,-6.8405,-6.8405,-6.8405,-6.8587,-6.8898,-6.8561,-6.9181,-6.4776,-6.179,-6.128,-6.3283,-6.2261,-6.205,0.0,-6.6648,-6.5574,-6.8443,-6.9156,-6.9299,-6.9655,-6.9798,-7.1196,-7.5175,-7.6332,-7.8593,-8.3715,-8.5194,-8.6244,-8.7571,-8.2979,-7.9729,-7.9729,-7.9804,-7.988,-7.988,-8.0032,-8.0032,-8.0032,-8.0032,-8.0032,-8.0032,-8.0753,-8.1133,-8.1133,-8.2689,-8.3524,-8.36,-8.4436,-8.4853,-8.4967,-8.4967,-8.4967,-8.4967,-8.4967,-8.4967,-8.4967,-8.4967,-8.4967,-8.5043,-8.584,-8.6144,-8.6182,-8.6258,-8.7283,-8.865,-8.8764,-8.9333,-9.0016,-8.9468,-8.9298,-8.9448,-9.024,-9.0255,-9.0022,-9.1483,-9.1496,-9.037,-8.7015,-8.6657,-8.6285,-8.3048,-8.5239,-8.7224,-8.3757,-8.5824,-8.7329,-8.3791,-8.3049,-8.3049,-8.3049,-8.6008,-8.6962,-8.2863,-8.134,-8.0561,-8.0561,-7.9406,-7.8469,-7.8469,-7.5133,-7.1189,-6.6673,-6.6557,-6.6639,-6.6717,-6.773,-6.8353,-6.8405,-6.8405,-6.8405,-6.8405,-6.8405,-6.8405,-6.8405,-6.8405,-6.8405,-6.8405,-6.8405,-6.8174,0.0,0.0,0.0,0.0,0.0,0.0,0.0,-5.9069,-5.9089,-6.0687,-6.1456,-6.2668,-6.5235,-6.6198,-6.7869,-7.1919,-7.257,-7.3482,-7.5946,-7.7507,-7.8289,-7.7943,-7.7472,-7.7171,-7.7171,-7.8219,-7.9048,-7.9048,-7.9691,-8.0032,-8.0032,-8.0032,-8.0032,-8.0032,-8.0183,-8.0259,-8.0259,-8.1246,-8.2082,-8.2727,-8.3562,-8.4322,-8.4967,-8.4967,-8.4967,-8.4967,-8.4967,-8.4967,-8.4967,-8.4967,-8.4967,-8.4967,-8.5157,-8.5233,-8.5309,-8.603,-8.6941,-8.7852,-8.8536,-8.9333,-8.9468,-8.6448,-8.5415,-8.5559,-8.6317,-8.3971,-8.2009,-8.6621,-8.531,-8.2263,-8.2374,-8.2499,-8.2555,-8.2216,-8.2817,-8.3453,-8.3101,-8.3606,-8.3976,-8.3234,-8.3049,-8.3049,-8.3049,-8.3606,-8.2491,-7.781,-7.6111,-7.5133,-7.4344,-7.1189,-6.8746,-6.7974,-6.7228,-6.6285,-6.534,-6.5823,-6.6224,-6.6691,-6.7366,-6.7938,-6.8405,-6.8405,-6.8405,-6.8405,-6.8405,-6.8405,-6.8405,-6.8405,-6.8405,-6.8405,-6.8405,-6.6279,0.0,0.0,0.0,0.0,0.0,0.0,0.0,0.0,0.0,0.0,0.0,-5.9781,-6.1349,0.0,-6.5805,-6.7766,-6.9727,-7.1552,-7.326,-7.4138,-7.4543,-7.4141,-7.5096,-7.5872,-7.5872,-7.654,-7.7247,-7.8108,-7.8635,-7.9124,-8.0032,-8.0032,-8.0032,-8.0032,-8.0032,-8.0032,-8.0032,-8.0829,-8.1474,-8.1892,-8.2689,-8.3335,-8.3714,-8.3714,-8.3942,-8.436,-8.436,-8.4587,-8.4967,-8.4967,-8.4967,-8.4929,-8.4511,-8.3589,-8.2386,-8.2827,-8.2466,-8.1657,-8.205,-8.2943,-8.3564,-8.1668,-8.1216,-8.1595,-8.1975,-8.0574,-7.9207,-8.207,-8.1117,-7.8966,-7.7574,-7.7421,-7.7198,-7.5721,-7.7167,-7.8316,-7.6812,-7.8246,-7.9088,-7.7402,-7.7117,-7.7117,-7.7117,-7.6141,-7.4624,-7.2175,-7.1026,-7.0066,-6.9489,-6.7228,-6.4984,-6.2977,-6.2821,-6.2821,-6.2821,-6.3107,-6.4146,-6.6172,-6.6821,-6.7262,-6.7548,-6.7574,-6.7574,-6.7574,-6.7143,-6.694,-6.7574,-6.694,-6.7143,-6.7574,-6.5266,-6.2629,0.0,0.0,0.0,0.0,0.0,0.0,0.0,0.0,0.0,0.0,0.0,0.0,0.0,0.0,0.0,-6.4486,-6.7837,-7.0907,-7.2281,-7.2389,-7.2389,-7.2389,-7.3664,-7.447,-7.447,-7.4764,-7.5577,-7.6801,-7.7174,-7.7921,-7.935,-7.969,-7.9804,-7.9804,-7.9956,-8.0032,-8.0032,-8.0677,-8.1095,-8.1246,0.0,0.0,-8.2461,-8.2461,-8.2841,-8.3486,-8.3486,-8.3866,-8.4474,-8.4474,-8.4474,-8.4398,-8.3118,-8.1281,-7.9245,-7.8558,-7.7148,-7.5361,-7.5361,-7.6329,-7.739,-7.6862,-7.6941,-7.7466,-7.7598,-7.7133,0.0,-7.7454,-7.7101,-7.5893,-7.2713,-7.2422,-7.1938,-6.9032,-7.1252,-7.308,-7.0236,-7.251,-7.4222,-7.1237,-7.067,-7.0755,-7.0755,-6.9214,-6.7425,-6.694,-6.6439,-6.5853,-6.5384,-6.5115,-6.4068,-6.1757,-6.1523,-6.1523,-6.1523,-6.09,-6.2016,-6.547,-6.56,-6.5352,-6.5352,-6.5155,-6.4959,-6.4959,-6.4146,-6.4527,-6.6117,-6.5465,-6.5465,-6.6265,-6.048,-5.719,0.0,0.0,0.0,0.0,0.0,0.0,0.0,0.0,0.0,0.0,0.0,0.0,0.0,0.0,0.0,0.0,-6.7837,-7.0404,-7.0655,-7.0655,-7.0655,-7.0655,-7.137,-7.187,-7.187,-7.329,-7.4318,-7.4427,-7.5725,-7.6648,-7.676,0.0,0.0,0.0,0.0,-8.0032,-8.0032,-8.0107,-8.0525,-8.1246,-8.136,-8.1778,-8.2461,-8.2461,-8.2537,-8.2613,-8.2613,-8.2651,-8.2765,-8.2765,-8.2765,-8.2414,-7.9436,-7.801,-7.7445,-7.4495,-7.3917,-7.476,-7.476,0.0,0.0,-7.3735,-7.2758,-7.2945,-7.3569,-7.1307,-6.9381,-7.2713,-7.1307,-6.8685,-6.8169,-6.8227,-6.8217,-6.8394,-6.8749,-6.8978,-6.8298,-6.9614,-7.058,-6.9364,-6.943,-6.9793,-6.9793,-6.8056,-6.5633,-6.2694,-6.3758,-6.4052,-6.1004,-6.3081,-6.4821,-6.451,0.0,0.0,-6.4458,-6.1705,-6.1419,-6.4847,-6.2744,-6.0999,-6.0472,-5.955,-5.918,-5.918,-5.8995,-6.0477,-6.386,-6.4663,-6.5265,-6.5061,-5.4594,-4.8547,0.0,0.0,0.0,0.0,0.0,0.0,0.0,0.0,0.0,0.0,0.0,0.0,0.0,0.0,0.0,0.0,-6.413,-6.7017,-6.7017,-6.8942,-7.0368,-7.0368,-7.0689,-7.0903,-7.0903,-7.148,-7.2313,-7.326,-7.4288,-7.5389,-7.6314,-7.7426,-7.8057,-7.8057,-7.8855,-7.916,-7.8672,-7.9162,-7.9273,-7.9152,-7.9152,-7.9492,-8.0252,-8.0252,-8.0823,-8.1778,-8.1276,-8.154,-8.2305,-8.1875,-8.2031,0.0,0.0,0.0,0.0,0.0,-6.7212,-6.6222,-6.6728,-6.7802,-6.8777,-6.803,-6.8035,-6.8477,-6.8977,-6.8135,-6.7348,-6.9293,-6.8685,-6.747,-6.747,-6.747,-6.7345,-6.6994,-6.6867,-6.6851,-6.6565,-6.7083,-6.7471,-6.781,-6.814,0.0,-6.6885,-6.5761,-6.4539,-6.3285,-6.4191,-6.4432,-6.3003,-6.3782,-6.3643,-6.124,-6.1061,-6.0874,-6.029,-5.9146,0.0,0.0,0.0,-6.1288,-6.0907,-6.0527,0.0,0.0,0.0,0.0,0.0,0.0,0.0,0.0,-4.5619,-4.1109,0.0,0.0,0.0,0.0,0.0,0.0,0.0,0.0,0.0,0.0,0.0,0.0,0.0,0.0,0.0,0.0,-6.0601,-6.3952,-6.3096,-6.634,-6.8479,-6.7588,-6.9192,-6.9941,-6.8907,-6.9762,-7.0907,-7.2099,-7.2862,-7.3845,-7.5019,-7.6011,-7.66,-7.66,-7.7391,-7.7621,-7.7248,-7.7807,-7.7913,-7.7563,-7.7563,-7.7868,-7.844,-7.844,-7.9081,-8.0139,-7.9679,-7.9515,-7.9687,-7.9101,-7.8596,-7.7548,-6.9914,-6.6849,-6.6592,-6.361,-6.1164,-5.9462,-6.0328,-6.1355,-6.2406,-6.3269,-6.4096,-6.4892,-6.5691,-6.6068,-6.6389,-6.7015,-6.7214,-6.7242,-6.7021,-6.7077,-6.6684,-6.5744,-6.4619,-6.3995,-6.4665,-6.4298,-6.43,-6.6126,-6.6099,-6.5639,-6.4615,-6.4172,-6.3219,-6.1262,-6.2084,0.0,-5.9721,-5.9847,-5.8977,-5.5785,-5.6659,-5.7124,-5.6363,-5.6832,-5.86,-6.1654,-6.1011,-6.0719,-6.141,-6.0452,-5.9696,-5.9505,-5.5583,-5.2884,0.0,0.0,0.0,0.0,0.0,0.0,0.0,0.0,0.0,0.0,0.0,0.0,0.0,0.0,0.0,0.0,0.0,0.0,0.0,0.0,0.0,0.0,0.0,0.0,-5.9318,-6.2276,-6.3631,-6.053,-6.6233,-6.8907,-6.5128,-6.8194,-7.0404,-7.0404,-7.1161,-7.1593,-7.1629,-7.308,-7.3956,-7.3956,-7.4876,-7.5687,-7.6462,-7.6499,-7.6904,-7.7563,-7.7563,-7.7563,-7.7563,-7.7563,-7.76,-7.76,-7.76,-7.5843,-7.2805,-7.2805,-7.0905,-6.7579,-6.3993,-6.2554,-6.2262,-5.8798,-5.7552,-5.747,-5.8234,-5.9216,-6.0335,-6.0908,-6.2058,-6.3366,-6.3951,-6.4856,-6.5735,-6.6361,-6.656,-6.6493,-6.597,-6.5927,-6.5744,-6.483,-6.1629,-5.9575,-6.247,-6.1195,-6.0619,-6.3553,-6.3206,-6.2827,-6.3348,-6.3479,-6.0993,-5.4093,-5.5915,0.0,-4.6813,-4.8545,-5.0126,-4.8647,-5.2512,-5.5174,-5.498,-5.6051,-5.8206,-6.1629,-5.8698,-5.8007,-6.0161,-5.6997,-5.4527,-5.3475,-5.2864,-5.202,-5.0987,0.0,0.0,0.0,0.0,0.0,0.0,0.0,0.0,0.0,0.0,0.0,0.0,0.0,0.0,0.0,0.0,0.0,0.0,0.0,0.0,0.0,0.0,0.0,0.0,-6.0137,-6.3203,-5.9531,-6.3488,-6.4986,-6.1064,-6.4237,-6.6554,-6.6554,-6.9649,-7.1557,-7.1557,-7.2531,-7.3109,-7.3109,-7.3882,-7.4141,-7.3956,-7.4539,-7.4895,-7.505,-7.4546,-7.404,-7.3389,-7.4611,-7.4834,-7.4161,-7.3054,-7.2474,-7.2271,-6.9464,-6.4451,-5.8421,-5.7576,-5.7443,-5.728,-5.6165,-5.5675,-5.5754,-5.6363,-5.7172,-5.8269,-5.9538,-6.0205,-6.0732,-6.172,-6.2398,-6.2766,-6.379,-6.4095,-6.3944,-6.3957,-6.3833,-6.3653,-6.2574,-6.1574,-6.0378,-5.797,-5.934,-6.0586,-5.9256,-5.817,-5.7368,-5.7748,-5.7336,-5.5601,-5.0842,-5.1031,-5.0588,-4.7742,-4.8204,-4.8483,-4.7364,-4.8483,-4.9052,-4.8187,-5.1269,-5.3754,-5.5119,-5.6606,-5.7854,-5.8729,-5.7592,-5.6574,-5.5868,-5.568,-5.2547,-4.6251,0.0,0.0,0.0,0.0,0.0,0.0,0.0,0.0,0.0,0.0,0.0,0.0,0.0,0.0,0.0,0.0,0.0,0.0,0.0,0.0,0.0,0.0,0.0,0.0,0.0,0.0,-5.9139,-6.192,0.0,-5.864,-6.0565,-6.2062,-6.2062,-6.5026,-6.7524,-6.8964,-6.9455,-7.0389,-7.1808,-7.2317,-7.2426,-7.2313,-7.1783,-7.1639,-7.1772,-7.0042,-6.9556,-7.0095,-7.1342,-7.1562,-7.0865,-6.9776,-6.8582,-6.7274,-6.5557,-6.0538,-5.4051,-5.4426,-5.3452,-5.1939,-5.2589,-5.2875,-5.3057,-5.4251,-5.4994,-5.5649,-5.6248,-5.6144,-5.5899,-5.7522,-5.7606,-5.7551,-5.968,-6.0472,-6.0817,-6.196,-6.216,-6.1982,-6.091,-5.9914,-5.8698,-5.688,-5.6784,-5.666,-5.5743,-5.6096,-5.581,-5.3557,-5.2933,-5.0951,-4.5716,-4.4872,-4.4409,-4.3287,-4.3143,-4.2534,-4.1293,-4.2285,-4.2875,-4.1921,-4.6956,-5.0363,-5.0558,-5.4307,-5.6683,-5.6683,-5.6876,-5.6304,-5.4329,-5.4306,-5.0822,0.0,0.0,0.0,0.0,0.0,0.0,0.0,0.0,0.0,0.0,0.0,0.0,0.0,0.0,0.0,0.0,0.0,0.0,0.0,0.0,0.0,0.0,0.0,0.0,0.0,0.0,0.0,-5.8712,-6.0957,0.0,0.0,0.0,0.0,-5.7143,-5.8034,-6.0209,-6.3952,-6.4201,-6.6019,-6.9905,-7.0083,-7.0547,-7.1545,-6.8524,-6.7371,-6.8225,-6.5118,-6.515,-6.7989,-6.8073,-6.8073,-6.7989,-6.7955,-6.4417,-5.8722,-6.1279,-5.9227,-5.4365,-5.4222,-5.089,-4.6443,-4.8657,-4.9317,-4.9629,-5.2018,-5.2797,-5.2589,-5.1447,-5.0197,-4.9498,-5.1552,-5.0856,0.0,0.0,-5.5751,-5.6873,-5.9952,-6.0664,-6.0566,-5.9832,-5.6808,-5.5005,-5.8681,-5.4066,-5.0016,0.0,-5.6567,-5.6998,-5.0596,0.0,-4.662,-3.8532,-3.7348,-3.6338,-3.3402,-3.3459,-3.3106,-3.1562,-3.4496,-3.6468,-3.6347,-4.3232,-4.7736,-4.7736,-5.1889,-5.425,-5.425,-5.4863,-5.3354,-4.9256,-4.9091,0.0,0.0,0.0,0.0,0.0,0.0,0.0,0.0,0.0,0.0,0.0,0.0,0.0,0.0,0.0,0.0,0.0,0.0,0.0,0.0,0.0,0.0,0.0,0.0,0.0,0.0,-5.2861,-5.4363,-5.3578,-5.4184,-5.3115,0.0,0.0,0.0,0.0,0.0,0.0,-5.8391,-5.8997,-6.11,-6.5021,-6.5734,-6.7552,-7.0653,-6.9928,-6.9877,-7.0683,-6.917,-6.8261,-6.7804,-6.9116,-6.9072,-6.7652,-6.7087,-6.6249,-6.4838,-5.9637,-5.6386,-5.4284,-5.1785,-4.88,-4.6009,-4.7375,-4.6698,-4.5629,-4.9213,-5.02,-4.9655,-4.8512,-4.7876,-4.7297,-4.5306,0.0,0.0,0.0,0.0,-5.0266,-5.314,-5.4106,-5.4968,-5.6796,-5.707,-5.6426,-5.4459,-5.5696,-5.5944,0.0,-5.0186,-4.708,-4.0687,0.0,0.0,0.0,0.0,-3.0604,-2.9909,-3.1382,-3.2265,-3.1908,-3.2027,-3.1988,-3.1894,-3.8536,-4.2648,-4.3018,-4.9651,-5.3569,-5.3569,-5.1469,-4.9497,-4.7713,0.0,0.0,0.0,0.0,0.0,0.0,0.0,0.0,0.0,0.0,0.0,0.0,0.0,0.0,0.0,0.0,0.0,0.0,0.0,0.0,0.0,0.0,0.0,0.0,0.0,0.0,0.0,-5.2294,-5.3667,-5.3763,-5.2597,-5.0693,0.0,0.0,0.0,0.0,0.0,0.0,0.0,0.0,0.0,-5.9638,-6.0244,-6.167,-6.4201,-6.487,-6.5395,-6.5844,-6.6067,-6.6368,-6.6838,-6.7806,-6.7728,-6.6838,-6.6257,-6.5846,-6.5125,-6.0626,-5.593,-5.127,0.0,0.0,0.0,0.0,-4.2613,-4.1399,-4.3941,-4.4472,0.0,-4.2619,0.0,0.0,0.0,0.0,0.0,0.0,0.0,0.0,0.0,0.0,-5.4122,-5.5991,-5.6744,-5.6397,-5.4361,-5.3288,-5.1704,0.0,-4.5764,-4.1882,-3.473,0.0,0.0,0.0,0.0,-2.7138,-2.7796,-3.0309,-3.1882,-3.175,-3.087,-3.0203,-2.9802,-3.5893,-3.9632,-3.9655,-4.7065,-5.0944,-4.9467,-4.7878,-4.5111,0.0,0.0,0.0,0.0,0.0,0.0,0.0,0.0,0.0,0.0,0.0,0.0,0.0,0.0,0.0,0.0,0.0,0.0,0.0,0.0,0.0,0.0,0.0,0.0,0.0,0.0,0.0,0.0,0.0,-5.5648,-5.5695,0.0,0.0,0.0,0.0,0.0,0.0,0.0,0.0,0.0,0.0,0.0,0.0,0.0,-5.4897,-5.6181,-5.7304,-5.7951,-5.8084,-5.9376,-6.1628,-6.448,-6.4581,-6.4883,-6.532,-6.4472,0.0,-6.2223,-6.1169,0.0,0.0,0.0,0.0,0.0,0.0,0.0,0.0,0.0,0.0,0.0,0.0,0.0,0.0,0.0,0.0,0.0,0.0,0.0,0.0,0.0,0.0,-5.4122,-5.4537,-5.4667,-5.4693,0.0,-4.852,-4.3227,-4.2738,-4.2244,0.0,0.0,0.0,0.0,0.0,0.0,0.0,-2.6692,-2.9677,-3.1552,-3.1289,-3.0474,-3.0009,-3.0103,-3.5098,-3.8316,-3.856,-4.461,-4.7039,-4.4036,-4.3913,0.0,0.0,0.0,0.0,0.0,0.0,0.0,0.0,0.0,0.0,0.0,0.0,0.0,0.0,0.0,0.0,0.0,0.0,0.0,0.0,0.0,0.0,0.0,0.0,0.0,0.0,0.0,0.0,0.0,0.0,0.0,0.0,0.0,0.0,0.0,0.0,0.0,0.0,0.0,0.0,0.0,0.0,0.0,0.0,0.0,0.0,0.0,0.0,0.0,0.0,-5.6093,-5.6825,-5.8058,-5.8692,-6.0734,-6.3515,-5.8146,-5.7849,-6.0262,-5.4028,0.0,0.0,0.0,0.0,0.0,0.0,0.0,0.0,0.0,0.0,0.0,0.0,0.0,0.0,0.0,0.0,0.0,0.0,0.0,0.0,0.0,0.0,0.0,0.0,-4.7603,-4.891,0.0,0.0,0.0,0.0,0.0,0.0,0.0,0.0,0.0,0.0,0.0,0.0,-2.4826,-2.8636,-3.1315,-3.1262,-3.0129,-3.0728,-3.3816,-3.7109,-4.008,-4.2435,-4.4013,-4.4361,0.0,0.0,0.0,0.0,0.0,0.0,0.0,0.0,0.0,0.0,0.0,0.0,0.0,0.0,0.0,0.0,0.0,0.0,0.0,0.0,0.0,0.0,0.0,0.0,0.0,0.0,0.0,0.0,0.0,0.0,0.0,0.0,0.0,0.0,0.0,0.0,0.0,0.0,0.0,0.0,0.0,0.0,0.0,0.0,0.0,0.0,0.0,0.0,0.0,0.0,0.0,0.0,0.0,0.0,0.0,0.0,0.0,0.0,0.0,-5.0822,0.0,0.0,0.0,0.0,0.0,0.0,0.0,0.0,0.0,0.0,0.0,0.0,0.0,0.0,0.0,0.0,0.0,0.0,0.0,0.0,0.0,0.0,0.0,0.0,0.0,0.0,0.0,0.0,0.0,0.0,0.0,0.0,0.0,0.0,0.0,0.0,0.0,0.0,0.0,0.0,-2.3693,-2.8197,-3.1196,-3.1038,-3.0524,-3.1631,-3.502,-3.7989,-4.012,-4.1086,-4.2809,0.0,0.0,0.0,0.0,0.0,0.0,0.0,0.0,0.0,0.0,0.0,0.0,0.0,0.0,0.0,0.0,0.0,0.0,0.0,0.0,0.0,0.0,0.0,0.0,0.0,0.0,0.0,0.0,0.0,0.0,0.0,0.0,0.0,0.0,0.0,0.0,0.0,0.0,0.0,0.0,0.0,0.0,0.0,0.0,0.0,0.0,0.0,0.0,0.0,0.0,0.0,0.0,0.0,0.0,0.0,0.0,0.0,0.0,0.0,-4.9671,0.0,0.0,0.0,0.0,0.0,0.0,0.0,0.0,0.0,0.0,0.0,0.0,0.0,0.0,0.0,0.0,0.0,0.0,0.0,0.0,0.0,0.0,0.0,0.0,0.0,0.0,0.0,0.0,0.0,0.0,0.0,0.0,0.0,0.0,0.0,0.0,0.0,0.0,0.0,0.0,0.0,-2.326,-2.7878,-3.0986,-3.0748,-3.0669,-3.2313,-3.6588,-3.8836,-3.9998,-4.0264,-4.1503,0.0,0.0,0.0,0.0,0.0,0.0,0.0,0.0,0.0,0.0,0.0,0.0,0.0,0.0,0.0,0.0,0.0,0.0,0.0,0.0,0.0,0.0,0.0,0.0,0.0,0.0,0.0,0.0,0.0,0.0,0.0,0.0,0.0,0.0,0.0,0.0,0.0,0.0,0.0,0.0,0.0,0.0,0.0,0.0,0.0,0.0,0.0,0.0,0.0,0.0,0.0,0.0,0.0,0.0,0.0,0.0,0.0,0.0,0.0,0.0,0.0,0.0,0.0,0.0,0.0,0.0,0.0,0.0,0.0,0.0,0.0,0.0,0.0,0.0,0.0,0.0,0.0,0.0,0.0,0.0,0.0,0.0,0.0,0.0,0.0,0.0,0.0,0.0,0.0,0.0,0.0,0.0,0.0,0.0,0.0,0.0,0.0,0.0,0.0,0.0,0.0,-2.2824,-2.7415,-3.0471,-3.0445,-3.0194,-3.2947,-4.0167,-4.0227,-4.1119,-4.416,0.0,0.0,0.0,0.0,0.0,0.0,0.0,0.0,0.0,0.0,0.0,0.0,0.0,0.0,0.0,0.0,0.0,0.0,0.0,0.0,0.0,0.0,0.0,0.0,0.0,0.0,0.0,0.0,0.0,0.0,0.0,0.0,0.0,0.0,0.0,0.0,0.0,0.0,0.0,0.0,0.0,0.0,0.0,0.0,0.0,0.0,0.0,0.0,0.0,0.0,0.0,0.0,0.0,0.0,0.0,0.0,0.0,0.0,0.0,0.0,0.0,0.0,0.0,0.0,0.0,0.0,0.0,0.0,0.0,0.0,0.0,0.0,0.0,0.0,0.0,0.0,0.0,0.0,0.0,0.0,0.0,0.0,0.0,0.0,0.0,0.0,0.0,0.0,0.0,0.0,0.0,0.0,0.0,0.0,0.0,0.0,0.0,0.0,0.0,0.0,0.0,0.0,-2.2556,-2.7075,-3.0995,-3.3015,-3.3398,-3.5448,-4.021,-4.0085,-3.939,-3.8898,0.0,0.0,0.0,0.0,0.0,0.0,0.0,0.0,0.0,0.0,0.0,0.0,0.0,0.0,0.0,0.0,0.0,0.0,0.0,0.0,0.0,0.0,0.0,0.0,0.0,0.0,0.0,0.0,0.0,0.0,0.0,0.0,0.0,0.0,0.0,0.0,0.0,0.0,0.0,0.0,0.0,0.0,0.0,0.0,0.0,0.0,0.0,0.0,0.0,0.0,0.0,0.0,0.0,0.0,0.0,0.0,0.0,0.0,0.0,0.0,0.0,0.0,0.0,0.0,0.0,0.0,0.0,0.0,0.0,0.0,0.0,0.0,0.0,0.0,0.0,0.0,0.0,0.0,0.0,0.0,0.0,0.0,0.0,0.0,0.0,0.0,0.0,0.0,0.0,0.0,0.0,0.0,0.0,0.0,0.0,0.0,0.0,0.0,0.0,0.0,0.0,0.0,-2.3901,-2.8593,-3.2942,-3.6239,-3.6797,-3.7961,-3.995,-3.9263,-3.7642,-3.5107,0.0,0.0,0.0,0.0,0.0,0.0,0.0,0.0,0.0,0.0,0.0,0.0,0.0,0.0,0.0,0.0,0.0,0.0,0.0,0.0,0.0,0.0,0.0,0.0,0.0,0.0,0.0,0.0,0.0,0.0,0.0,0.0,0.0,0.0,0.0,0.0,0.0,0.0,0.0,0.0,0.0,0.0,0.0,0.0,0.0,0.0,0.0,0.0,0.0,0.0,0.0,0.0,0.0,0.0,0.0,0.0,0.0,0.0,0.0,0.0,0.0,0.0,0.0,0.0,0.0,0.0,0.0,0.0,0.0,0.0,0.0,0.0,0.0,0.0,0.0,0.0,0.0,0.0,0.0,0.0,0.0,0.0,0.0,0.0,0.0,0.0,0.0,0.0,0.0,0.0,0.0,0.0,0.0,0.0,0.0,0.0,0.0,0.0,0.0,0.0,0.0,0.0,-2.7188,-3.1844,-3.6172,-3.9705,-4.0236,-4.009,-3.988,-3.808,-3.6261,0.0,0.0,0.0,0.0,0.0,0.0,0.0,0.0,0.0,0.0,0.0,0.0,0.0,0.0,0.0,0.0,0.0,0.0,0.0,0.0,0.0,0.0,0.0,0.0,0.0,0.0,0.0,0.0,0.0,0.0,0.0,0.0,0.0,0.0,0.0,0.0,0.0,0.0,0.0,0.0,0.0,0.0,0.0,0.0,0.0,0.0,0.0,0.0,0.0,0.0,0.0,0.0,0.0,0.0,0.0,0.0,0.0,0.0,0.0,0.0,0.0,0.0,0.0,0.0,0.0,0.0,0.0,0.0,0.0,0.0,0.0,0.0,0.0,0.0,0.0,0.0,0.0,0.0,0.0,0.0,0.0,0.0,0.0,0.0,0.0,0.0,0.0,0.0,0.0,0.0,0.0,0.0,0.0,0.0,0.0,0.0,0.0,0.0,0.0,0.0,0.0,0.0,0.0,-2.2866,-2.8717,-3.4236,-3.8921,-4.1932,-4.2472,-3.9612,-3.7905,-3.5353,-3.1406,0.0,0.0,0.0,0.0,0.0,0.0,0.0,0.0,0.0,0.0,0.0,0.0,0.0,0.0,0.0,0.0,0.0,0.0,0.0,0.0,0.0,0.0,0.0,0.0,0.0,0.0,0.0,0.0,0.0,0.0,0.0,0.0,0.0,0.0,0.0,0.0,0.0,0.0,0.0,0.0,0.0,0.0,0.0,0.0,0.0,0.0,0.0,0.0,0.0,0.0,0.0,0.0,0.0,0.0,0.0,0.0,0.0,0.0,0.0,0.0,0.0,0.0,0.0,0.0,0.0,0.0,0.0,0.0,0.0,0.0,0.0,0.0,0.0,0.0,0.0,0.0,0.0,0.0,0.0,0.0,0.0,0.0,0.0,0.0,0.0,0.0,0.0,0.0,0.0,0.0,0.0,0.0,0.0,0.0,0.0,0.0,0.0,0.0,0.0,0.0,0.0,0.0,0.0,-2.9379,-3.566,-4.0248,-4.4293,-4.4785,-4.04,-3.7606,-3.4702,-3.1079,0.0,0.0,0.0,0.0,0.0,0.0,0.0,0.0,0.0,0.0,0.0,0.0,0.0,0.0,0.0,0.0,0.0,0.0,0.0,0.0,0.0,0.0,0.0,0.0,0.0,0.0,0.0,0.0,0.0,0.0,0.0,0.0,0.0,0.0,0.0,0.0,0.0,0.0,0.0,0.0,0.0,0.0,0.0,0.0,0.0,0.0,0.0,0.0,0.0,0.0,0.0,0.0,0.0,0.0,0.0,0.0,0.0,0.0,0.0,0.0,0.0,0.0,0.0,0.0,0.0,0.0,0.0,0.0,0.0,0.0,0.0,0.0,0.0,0.0,0.0,0.0,0.0,0.0,0.0,0.0,0.0,0.0,0.0,0.0,0.0,0.0,0.0,0.0,0.0,0.0,0.0,0.0,0.0,0.0,0.0,0.0,0.0,0.0,0.0,0.0,0.0,0.0,0.0,-3.2725,-3.8765,-4.2541,-4.6403,-4.6736,-4.1765,-3.7579,-3.4476,-3.2918,-2.7748,0.0,0.0,0.0,0.0,0.0,0.0,0.0,0.0,0.0,0.0,0.0,0.0,0.0,0.0,0.0,0.0,0.0,0.0,0.0,0.0,0.0,0.0,0.0,0.0,0.0,0.0,0.0,0.0,0.0,0.0,0.0,0.0,0.0,0.0,0.0,0.0,0.0,0.0,0.0,0.0,0.0,0.0,0.0,0.0,0.0,0.0,0.0,0.0,0.0,0.0,0.0,0.0,0.0,0.0,0.0,0.0,0.0,0.0,0.0,0.0,0.0,0.0,0.0,0.0,0.0,0.0,0.0,0.0,0.0,0.0,0.0,0.0,0.0,0.0,0.0,0.0,0.0,0.0,0.0,0.0,0.0,0.0,0.0,0.0,0.0,0.0,0.0,0.0,0.0,0.0,0.0,0.0,0.0,0.0,0.0,0.0,0.0,0.0,0.0,0.0,0.0,0.0,-2.8302,-3.4443,-3.7401,-4.353,-4.5844,-4.2161,-3.9625,-3.615,-3.1097,-2.9342,0.0,0.0,0.0,0.0,0.0,0.0,0.0,0.0,0.0,0.0,0.0,0.0,0.0,0.0,0.0,0.0,0.0,0.0,0.0,0.0,0.0,0.0,0.0,0.0,0.0,0.0,0.0,0.0,0.0,0.0,0.0,0.0,0.0,0.0,0.0,0.0,0.0,0.0,0.0,0.0,0.0,0.0,0.0,0.0,0.0,0.0,0.0,0.0,0.0,0.0,0.0,0.0,0.0,0.0,0.0,0.0,0.0,0.0,0.0,0.0,0.0,0.0,0.0,0.0,0.0,0.0,0.0,0.0,0.0,0.0,0.0,0.0,0.0,0.0,0.0,0.0,0.0,0.0,0.0,0.0,0.0,0.0,0.0,0.0,0.0,0.0,0.0,0.0,0.0,0.0,0.0,0.0,0.0,0.0,0.0,0.0,0.0,0.0,0.0,0.0,0.0,0.0,-2.3642,-3.0421,-3.6847,-4.276,-4.5357,-4.3228,-4.0429,-3.7258,-3.361,-3.2373,0.0,0.0,0.0,0.0,0.0,0.0,0.0,0.0,0.0,0.0,0.0,0.0,0.0,0.0,0.0,0.0,0.0,0.0,0.0,0.0,0.0,0.0,0.0,0.0,0.0,0.0,0.0,0.0,0.0,0.0,0.0,0.0,0.0,0.0,0.0,0.0,0.0,0.0,0.0,0.0,0.0,0.0,0.0,0.0,0.0,0.0,0.0,0.0,0.0,0.0,0.0,0.0,0.0,0.0,0.0,0.0,0.0,0.0,0.0,0.0,0.0,0.0,0.0,0.0,0.0,0.0,0.0,0.0,0.0,0.0,0.0,0.0,0.0,0.0,0.0,0.0,0.0,0.0,0.0,0.0,0.0,0.0,0.0,0.0,0.0,0.0,0.0,0.0,0.0,0.0,0.0,0.0,0.0,0.0,0.0,0.0,0.0,0.0,0.0,0.0,0.0,0.0,0.0,-2.7652,-3.7176,-4.2232,-4.4745,-4.3994,-4.0817,-3.8165,-3.6526,0.0,0.0,0.0,0.0,0.0,0.0,0.0,0.0,0.0,0.0,0.0,0.0,0.0,0.0,0.0,0.0,0.0,0.0,0.0,0.0,0.0,0.0,0.0,0.0,0.0,0.0,0.0,0.0,0.0,0.0,0.0,0.0,0.0,0.0,0.0,0.0,0.0,0.0,0.0,0.0,0.0,0.0,0.0,0.0,0.0,0.0,0.0,0.0,0.0,0.0,0.0,0.0,0.0,0.0,0.0,0.0,0.0,0.0,0.0,0.0,0.0,0.0,0.0,0.0,0.0,0.0,0.0,0.0,0.0,0.0,0.0,0.0,0.0,0.0,0.0,0.0,0.0,0.0,0.0,0.0,0.0,0.0,0.0,0.0,0.0,0.0,0.0,0.0,0.0,0.0,0.0,0.0,0.0,0.0,0.0,0.0,0.0,0.0,0.0,0.0,0.0,0.0,0.0,0.0,-2.7843,-3.2312,-3.8996,-4.3279,-4.3491,-4.2129,-3.9137,-3.3865,0.0,0.0,0.0,0.0,0.0,0.0,0.0,0.0,0.0,0.0,0.0,0.0,0.0,0.0]}],[{"header":{"parameterUnit":"kt","parameterCategory":2,"dx":1,"dy":1,"la1":29.285339999999998,"la2":30.599998999999997,"lo1":-89.70041500000002,"lo2":-87.6738589999976,"nx":112,"ny":82,"refTime":"2022-10-28T18:00:00:Z","depth":0,"parameterNumber":2,"parameterNumberName":"V-component_of_WINDS"},"data":[8.1762,8.3493,0.0,7.2307,7.1894,0.0,6.0492,5.8982,5.9495,5.8233,5.5379,5.4642,5.9253,5.5372,5.221,5.4636,5.4142,5.2912,0.0,5.1312,5.2228,5.4844,5.7902,6.1201,6.4702,0.0,0.0,0.0,0.0,0.0,0.0,0.0,10.6604,11.2803,11.3226,11.3747,11.4929,11.0606,10.6152,10.1872,9.9145,9.688,9.499,9.499,9.499,9.499,9.499,9.499,9.499,9.499,9.499,9.499,9.499,9.5142,9.5408,9.5104,9.499,9.5142,9.6319,9.6888,9.7483,10.0272,10.2426,10.5265,11.1362,11.5127,11.8252,12.2686,12.4928,12.6021,12.6754,12.6705,12.6509,12.6851,12.69,12.6607,12.5533,12.5875,12.6119,12.5436,12.5289,12.4996,12.3971,12.5533,12.6558,12.5485,12.6802,12.7827,12.7534,12.8364,12.8901,12.8559,12.9145,12.9584,12.9584,12.895,12.8657,12.9096,12.9096,12.9633,13.0707,13.1146,13.1634,13.2144,13.209,13.1539,13.0769,12.9258,12.8474,12.8474,12.9356,13.168,0.0,0.0,7.7457,6.5587,0.0,6.5828,5.6051,5.5005,5.5729,5.4522,5.391,5.4037,5.5339,5.3264,5.1987,5.3595,5.3355,5.2763,0.0,5.1473,0.0,5.5286,6.1547,6.6635,0.0,0.0,0.0,0.0,0.0,0.0,0.0,10.6713,10.9351,11.5743,11.4793,11.4728,11.5959,11.14,10.7007,10.2743,9.9674,9.7946,9.7413,9.7058,9.688,9.688,9.688,9.6167,9.499,9.499,9.499,9.499,9.499,9.499,9.499,9.499,9.499,9.5104,9.5977,9.6812,9.8232,10.1945,10.4728,10.7581,11.3646,11.7138,11.9779,12.2593,12.4022,12.5045,12.6119,12.6119,12.6021,12.6754,12.7193,12.7046,12.5631,12.6168,12.6607,12.5533,12.5045,12.4606,12.3923,12.5533,12.6656,12.5973,12.7046,12.7827,12.7486,12.8413,12.895,12.8559,12.9194,12.9633,12.9633,12.895,12.8511,12.8511,12.8511,12.8852,12.9584,13.0312,13.0797,13.147,13.1577,13.1198,12.9845,12.8717,12.7975,12.7732,12.8734,13.2207,7.0458,6.7961,6.6633,5.7821,5.6373,5.6413,5.377,5.3636,5.424,5.428,5.4924,5.5487,5.5528,5.4763,5.3878,5.3166,5.3206,0.0,0.0,5.2884,5.4294,5.6223,0.0,0.0,0.0,0.0,0.0,0.0,0.0,0.0,10.2579,10.9263,11.2803,11.2803,11.554,11.6986,11.6823,11.2446,10.8368,10.4778,10.2917,10.2087,10.2047,10.1173,10.0648,10.0648,10.0648,9.8399,9.5131,9.5131,9.499,9.499,9.499,9.499,9.499,9.499,9.499,9.5104,9.5939,9.6774,9.8155,10.2006,10.5779,10.9542,11.4347,11.8274,12.1162,12.1799,12.2947,12.402,12.5045,12.6119,12.69,12.6949,12.7778,12.7974,12.5875,12.6217,12.6656,12.5582,12.4557,12.3874,12.3874,12.5533,12.69,12.69,12.6949,12.7339,12.8413,12.7632,12.7388,12.8462,12.8511,12.8511,12.8511,12.8511,12.8511,12.8511,12.8511,12.8511,12.8511,13.0376,13.142,13.142,13.2092,13.1972,13.0866,12.9651,12.8341,12.7377,13.2868,13.7651,6.2709,6.3439,6.4788,5.7438,5.8224,5.9592,5.4964,5.3636,5.3516,5.416,5.3476,0.0,0.0,0.0,5.1504,5.2037,0.0,5.758,0.0,6.1,0.0,0.0,0.0,0.0,0.0,0.0,0.0,0.0,0.0,0.0,11.1611,11.4804,11.6466,11.7091,11.9525,11.9463,11.6776,11.5632,11.2733,10.845,10.7942,10.7134,10.5767,10.5595,10.508,10.4219,10.1657,9.9946,9.8753,9.6167,9.499,9.499,9.499,9.499,9.499,9.499,9.499,9.499,9.5256,9.5484,9.6718,10.3092,10.95,11.4992,11.7711,12.0072,12.1799,12.1958,12.2418,12.3002,12.4067,12.5133,12.615,12.6924,12.8446,12.934,12.7925,12.7876,12.7778,12.6705,12.5631,12.4899,12.4899,12.6021,12.69,12.69,12.7583,12.8462,12.9584,12.8755,12.8511,12.9584,12.8999,12.8511,12.8511,12.8511,12.8511,12.8511,12.8511,12.8511,12.8511,13.0425,13.1459,13.1282,13.2772,13.3054,13.1831,13.1382,13.0627,12.9666,13.4434,13.8453,5.9707,6.0443,6.2511,5.7019,5.8466,5.9908,5.505,5.4011,5.3929,5.3811,0.0,0.0,0.0,0.0,0.0,0.0,5.7781,0.0,0.0,0.0,7.6089,0.0,0.0,0.0,0.0,0.0,0.0,0.0,0.0,10.6271,11.5183,11.7264,11.8431,11.8944,12.0994,12.0474,11.6823,11.6823,11.4764,11.0517,11.0137,11.0013,11.0226,10.9677,10.917,10.8198,10.6152,10.3396,10.0297,9.8222,9.6345,9.499,9.499,9.499,9.499,9.499,9.499,9.5028,9.5408,9.6295,9.8163,10.3566,11.0446,11.7305,12.0386,12.1727,12.1958,12.164,12.1597,12.2098,12.3104,12.4135,12.5334,12.6831,12.8715,13.0024,12.934,12.9584,12.9584,12.8511,12.7388,12.6656,12.6656,12.7193,12.7583,12.7583,12.812,12.8901,13.0024,12.9633,12.9487,13.0121,12.9584,12.9047,12.8559,12.8511,12.8511,12.8511,12.8511,12.8511,12.8511,13.0927,13.2059,13.1861,13.3166,13.3392,13.2151,13.1694,13.2337,13.3964,13.7918,14.1395,5.9503,5.8346,5.9817,5.6574,5.7484,5.8321,5.5511,0.0,5.5743,5.5211,0.0,5.4873,5.4859,0.0,0.0,0.0,0.0,0.0,6.8555,7.5768,8.2272,0.0,0.0,0.0,0.0,0.0,10.4492,11.4841,10.7131,10.5885,11.5235,11.7724,11.8944,11.8944,12.0994,12.0634,11.7474,11.7474,11.5796,11.2567,11.1689,11.2567,11.4856,11.3985,11.3111,11.2324,11.1823,10.7858,10.1657,10.0823,9.8576,9.5669,9.5669,9.549,9.499,9.499,9.499,9.5066,9.5863,9.8037,10.089,10.3749,10.9889,11.7233,12.2303,12.3083,12.1958,12.1162,12.0939,12.1309,12.2467,12.342,12.4706,12.6735,12.8715,13.0219,13.0365,13.1097,13.1488,13.0561,12.9487,12.8657,12.8511,12.8511,12.8511,12.8511,12.8608,12.9096,13.0219,13.0365,13.0414,13.0561,13.0316,12.978,12.8803,12.8559,12.8511,12.8511,12.8511,12.8511,12.8511,13.1094,13.279,13.3157,13.376,13.3726,13.271,13.1491,13.3543,13.867,14.1968,14.5195,5.7565,5.5931,5.6256,5.5882,5.5126,5.5694,0.0,0.0,0.0,6.6737,6.6778,6.5735,6.5782,0.0,0.0,0.0,0.0,0.0,0.0,0.0,0.0,0.0,0.0,0.0,0.0,11.0556,11.2305,11.543,11.3815,11.3572,11.5577,11.7724,11.8944,11.8944,12.0994,12.1799,12.1113,12.1113,12.0794,11.9945,11.9784,11.9624,11.951,11.8704,11.7731,11.6707,11.3156,11.0774,10.8876,10.3049,10.0122,9.9458,9.9458,9.773,9.499,9.499,9.499,9.499,9.518,9.753,10.1336,10.6344,11.0561,11.4727,12.0876,12.25,12.1958,12.1162,12.147,12.2274,12.2659,12.3949,12.5624,12.6879,12.8715,13.0414,13.1293,13.1634,13.1732,13.1537,13.0609,12.9584,12.8657,12.8511,12.8511,12.8511,12.9292,13.0268,13.1341,13.1488,13.183,13.2708,13.1244,13.0121,12.9877,12.9047,12.8511,12.8511,12.8511,12.8511,12.8511,12.9921,13.2188,13.5398,13.608,13.647,13.6267,13.4184,13.5087,13.867,14.1968,14.5842,5.6401,5.5334,5.6057,5.5278,5.5195,0.0,0.0,6.0225,6.2407,6.8701,6.9536,7.0129,7.3302,0.0,0.0,0.0,0.0,0.0,0.0,0.0,0.0,0.0,0.0,0.0,0.0,11.3527,11.4552,11.5577,11.5625,11.5625,11.5625,11.7187,11.8066,11.8066,11.9676,12.0506,12.0506,12.1043,12.1336,12.1336,12.1873,12.1481,12.0249,11.9767,11.8751,11.7453,11.5231,11.3201,11.1321,10.7518,10.5981,10.5638,10.2006,9.9458,9.7552,9.5669,9.499,9.499,9.499,9.8576,10.3784,10.7478,11.2763,11.8437,12.1276,12.2967,12.3469,12.213,12.2001,12.2612,12.3164,12.4525,12.5865,12.6928,12.8278,12.9633,13.0756,13.1,13.1,13.1,13.0561,12.9828,12.8706,12.8511,12.8511,12.8511,12.9487,13.0561,13.1634,13.2269,13.2806,13.3343,13.2415,13.1341,13.0268,12.9682,12.9096,12.8559,12.9047,12.9508,13.0012,13.1582,13.381,13.6727,13.6568,13.601,13.4897,13.4061,13.6246,14.1048,14.273,14.6366,5.5327,5.5184,5.6472,5.5326,5.592,0.0,5.9519,6.158,6.5089,7.2421,7.4303,7.6045,0.0,0.0,0.0,0.0,0.0,0.0,0.0,0.0,0.0,0.0,0.0,0.0,0.0,11.3673,11.4796,11.5577,11.5625,11.5625,11.5625,11.665,11.7236,11.7236,11.8359,11.8944,11.8944,11.9969,12.0506,12.0555,12.1629,12.1321,12.0089,11.9928,11.8913,11.7453,11.729,11.556,11.2491,11.1823,11.1656,11.0942,10.495,10.1831,10.0122,9.7197,9.6167,9.6167,9.6167,10.0958,10.7475,10.9127,11.5488,12.2459,12.2175,12.3337,12.4346,12.2873,12.2614,12.2871,12.3927,12.4932,12.6032,12.7096,12.8009,12.8803,12.9975,13.017,13.0121,12.9926,12.9877,12.9584,12.8657,12.8511,12.8511,12.8511,12.9487,13.0512,13.139,13.2415,13.3147,13.3391,13.3196,13.2464,13.0951,13.0414,12.978,12.8901,12.985,13.0846,13.1519,13.3761,13.5654,13.7104,13.6501,13.5258,13.3042,13.324,13.6885,14.387,14.4089,14.7813,5.3663,5.3922,5.5067,5.6642,5.592,0.0,7.3732,7.569,7.7781,0.0,9.2998,0.0,0.0,0.0,0.0,0.0,0.0,0.0,0.0,0.0,0.0,0.0,0.0,0.0,0.0,11.4308,11.5528,11.5625,11.5625,11.5625,11.5625,11.665,11.7236,11.7236,11.8359,11.8944,11.8944,11.9969,12.0506,12.0555,12.1629,12.1958,12.1799,12.1002,12.0201,11.9188,11.838,11.7406,11.6099,11.2869,11.1656,11.1489,11.0606,10.6323,10.0473,10.0122,9.9946,9.9946,9.9946,10.5252,11.2068,11.3066,11.6963,12.118,12.1896,12.2312,12.2458,12.2153,12.2884,12.3746,12.3885,12.5394,12.7027,12.81,12.8343,12.8803,12.9975,13.017,12.9877,12.8901,12.8706,12.8657,12.8511,12.8511,12.8511,12.8511,12.9487,13.0219,13.0365,13.1293,13.2318,13.3294,13.2562,13.2269,13.2952,13.1293,13.0121,13.0024,13.0965,13.1519,13.1519,13.4391,13.5937,13.6048,13.6853,13.6534,13.5138,13.246,13.5994,14.5279,14.6219,15.0889,5.2608,5.3286,5.46,5.5496,0.0,0.0,7.1759,7.7461,8.3831,0.0,9.5465,9.6885,0.0,0.0,0.0,0.0,0.0,0.0,0.0,0.0,0.0,0.0,0.0,0.0,0.0,0.0,0.0,11.5625,11.5625,11.5625,11.5625,11.6065,11.6309,11.6309,11.6797,11.6992,11.6992,11.8749,11.9579,11.9628,12.1287,12.1799,12.1321,12.1002,12.0362,11.951,11.8542,11.7941,11.7615,11.556,11.4737,11.4572,11.2324,10.9764,10.6665,10.4391,10.37,10.37,10.4219,10.8155,11.2945,11.4389,11.8014,12.1921,12.2773,12.3532,12.3874,12.3288,12.3874,12.4801,12.4703,12.5468,12.6265,12.7339,12.7583,12.7876,12.895,12.9243,12.9047,12.8608,12.8023,12.7583,12.7583,12.7583,12.7583,12.7583,12.9047,13.017,13.017,13.1146,13.1976,13.2415,13.2074,13.1976,13.2415,13.1049,13.017,13.017,13.1604,13.2794,13.33,13.6237,13.7438,13.6733,13.598,13.4906,13.3722,13.2268,13.5049,14.1543,14.6522,15.1025,5.2311,0.0,0.0,0.0,0.0,0.0,7.5561,8.2272,8.9431,9.633,9.8396,10.0379,0.0,0.0,0.0,0.0,0.0,0.0,0.0,0.0,0.0,0.0,0.0,0.0,0.0,0.0,0.0,0.0,11.5625,11.5625,11.5625,11.5625,11.5625,11.5625,11.5625,11.5625,11.5625,11.7822,11.8944,11.8944,12.1092,12.1799,12.1162,12.1162,12.0842,11.9832,11.8865,11.8704,11.8913,11.8103,11.7615,11.7127,11.4691,11.2824,11.1321,10.9045,10.7985,10.7985,10.8832,11.1689,11.5257,11.6357,11.9246,12.2485,12.3177,12.3874,12.4264,12.3532,12.3874,12.4508,12.4801,12.5094,12.5582,12.6656,12.69,12.7193,12.8267,12.8511,12.8608,12.8901,12.812,12.7339,12.7339,12.7339,12.7242,12.6949,12.8511,12.9731,12.9731,13.0414,13.1,13.1293,13.1341,13.1488,13.1781,13.0805,13.0316,13.0609,13.2533,13.3974,13.49,13.794,13.8639,13.6775,13.5251,13.3811,13.2449,13.2842,13.5161,13.9302,14.721,15.2159,0.0,0.0,0.0,6.8979,7.1934,7.7021,9.266,9.5201,9.6552,10.4035,10.6483,10.7255,0.0,0.0,0.0,0.0,0.0,0.0,0.0,0.0,0.0,0.0,0.0,0.0,0.0,0.0,0.0,0.0,0.0,11.5625,11.5625,11.5625,11.5625,11.5625,11.5625,11.5625,11.5625,11.7822,11.8944,11.8944,12.1092,12.2117,12.1958,12.1958,12.164,12.0842,11.9832,11.9993,12.0682,11.988,11.8913,11.8265,11.9027,11.617,11.1823,11.3277,11.3277,11.2567,11.3608,11.6776,12.0682,12.0682,12.1321,12.2007,12.2166,12.2214,12.2214,12.2166,12.2214,12.2458,12.3581,12.4557,12.5582,12.6656,12.69,12.7193,12.8267,12.8511,12.8852,12.9926,12.9243,12.8462,12.8462,12.8462,12.812,12.7095,12.7876,12.8559,12.8559,12.8608,12.9047,13.0121,13.0219,13.0658,13.1683,13.0805,13.0658,13.1683,13.3486,13.495,13.5946,13.8854,13.896,13.5606,13.5505,13.4387,13.2202,13.4228,13.7035,14.0516,14.8538,15.5223,6.0198,6.3941,6.8255,7.6093,8.2714,8.8603,9.4248,9.9278,10.3491,10.5558,10.6866,10.7606,0.0,0.0,0.0,0.0,0.0,0.0,0.0,0.0,0.0,0.0,0.0,0.0,0.0,0.0,0.0,0.0,0.0,0.0,11.5625,11.5625,11.5625,11.5625,11.5625,11.5625,11.5625,11.7822,11.8944,11.8944,12.1092,12.2117,12.2117,12.2117,12.1958,12.164,12.0842,12.0682,12.0842,11.988,11.9397,11.9074,11.9397,11.838,11.687,11.7474,11.7521,11.7359,11.8333,11.9671,12.1002,12.1481,12.1799,12.2263,12.3044,12.3239,12.3239,12.3239,12.3239,12.3142,12.28,12.2947,12.363,12.5436,12.5875,12.6314,12.812,12.8511,12.8852,12.9975,12.812,12.6607,12.7339,12.6851,12.6265,12.5924,12.7388,12.8433,12.8411,12.8902,12.9529,12.9729,13.0488,13.1329,13.2418,13.1527,13.1676,13.3557,13.467,13.6013,13.7067,13.8487,13.8147,13.5556,13.4031,13.3576,13.4176,13.5729,13.9177,14.4494,14.7516,15.2225,6.5624,7.0061,7.4518,8.4138,9.1242,9.6464,9.866,10.3189,10.7075,10.6988,10.7867,10.8761,10.9006,0.0,0.0,0.0,0.0,0.0,0.0,0.0,0.0,0.0,0.0,0.0,0.0,0.0,0.0,0.0,0.0,11.5625,11.5625,11.5625,11.5625,11.5625,11.5625,11.5625,11.5625,11.7822,11.8944,11.8944,12.1092,12.2117,12.2117,12.1799,12.1799,12.2117,12.1481,12.1321,12.1321,12.0634,12.0362,12.0089,12.0362,12.0089,11.9606,12.0201,12.0201,12.0201,12.1002,12.1321,12.1321,12.1958,12.2117,12.2263,12.2995,12.3483,12.3825,12.3825,12.3825,12.363,12.2898,12.241,12.2458,12.3874,12.4752,12.5777,12.7534,12.8218,12.895,13.0463,12.812,12.6217,12.729,12.6265,12.5192,12.485,12.6265,12.7474,12.7608,12.8264,12.874,12.886,12.9919,13.0865,13.1562,13.1313,13.1961,13.3754,13.4742,13.5746,13.6853,13.7745,13.7181,13.4946,13.3472,13.3899,13.63,13.7949,14.1604,14.7076,14.9603,15.3023,6.9573,7.4474,7.9979,9.3025,9.7748,10.0549,10.5884,10.7103,10.7408,10.8373,10.9593,11.0493,11.0841,11.1256,0.0,0.0,0.0,0.0,0.0,0.0,0.0,0.0,0.0,0.0,0.0,0.0,0.0,0.0,11.5625,11.5625,11.5625,11.5625,11.5625,11.5625,11.5625,11.5625,11.5625,11.7724,11.8798,11.8944,12.1043,12.2068,12.2117,12.1321,12.1321,12.2117,12.1958,12.1958,12.2117,12.2117,12.164,12.1002,12.1799,12.105,11.9928,12.1481,12.164,12.1002,12.1799,12.2117,12.2117,12.2117,12.2117,12.2117,12.2117,12.2898,12.3825,12.3825,12.3825,12.3825,12.3825,12.3044,12.2214,12.2214,12.3776,12.5582,12.6705,12.7778,12.9145,13.1293,12.9047,12.7193,12.8267,12.6656,12.4899,12.3971,12.4655,12.5777,12.6376,12.6588,12.7072,12.7826,12.8984,12.947,12.952,13.0794,13.1892,13.2875,13.392,13.492,13.5746,13.6631,13.6114,13.3717,13.3615,13.5396,13.8721,14.0984,14.4128,14.8584,15.4422,15.705,7.8311,8.6347,9.2816,10.186,10.4587,10.5376,10.6798,10.7103,10.7205,10.7459,10.9085,11.0476,11.0601,11.1058,11.1116,0.0,0.0,0.0,0.0,0.0,0.0,0.0,0.0,0.0,0.0,0.0,0.0,0.0,11.5625,11.5625,11.5625,11.5625,11.5625,11.5625,11.5625,11.5625,11.5625,11.6211,11.7285,11.8944,12.0311,12.1336,12.2117,12.1799,12.1799,12.1958,12.1481,12.1481,12.2117,12.2117,12.1958,12.1799,12.1958,12.1799,12.1481,12.1958,12.1958,12.1799,12.1958,12.2117,12.2117,12.2117,12.2117,12.2117,12.2117,12.2898,12.3825,12.3825,12.3825,12.3825,12.3825,12.3581,12.3386,12.3386,12.4362,12.5582,12.6705,12.7778,12.895,13.0316,12.7974,12.607,12.7144,12.5582,12.4118,12.3825,12.514,12.6292,12.6253,12.7488,12.8535,12.8571,12.9588,13.0549,13.1409,13.4006,13.5303,13.4809,13.7257,13.7897,13.5746,13.5746,13.5251,13.3666,13.3015,13.5267,14.0822,14.2271,14.5549,15.064,15.4936,15.705,7.8151,8.8387,9.7999,10.5323,10.7103,10.6973,10.6663,10.6533,10.6836,10.7451,10.8877,10.9835,10.9607,11.0348,11.0694,10.9422,0.0,0.0,0.0,0.0,0.0,0.0,0.0,0.0,0.0,0.0,0.0,0.0,11.5625,11.5625,11.5625,11.5625,11.5625,11.5625,11.5625,11.5625,11.5625,11.5625,11.6504,11.8212,11.9774,12.1092,12.2117,12.164,12.1799,12.2117,12.164,12.164,12.2117,12.2117,12.2117,12.2117,12.2117,12.2117,12.2117,12.2117,12.2117,12.2117,12.2117,12.2117,12.2117,12.2117,12.2117,12.2117,12.2117,12.3239,12.446,12.446,12.4801,12.5045,12.4606,12.4167,12.3825,12.3825,12.4557,12.5729,12.729,12.773,12.812,12.9243,12.7583,12.6217,12.6802,12.5192,12.363,12.3142,12.4173,12.5279,12.5427,12.6872,12.7809,12.8138,12.9052,13.0595,13.2516,13.4848,13.6206,13.6082,13.7831,13.7408,13.4143,13.4031,13.3726,13.3117,13.3843,13.7038,14.2354,14.451,14.809,15.3037,15.577,15.7341,7.6484,8.657,9.8059,10.5325,10.7103,10.6973,10.6221,10.6091,10.6564,10.7921,10.8556,10.887,10.8687,10.9582,11.013,10.9564,10.9422,0.0,0.0,0.0,0.0,0.0,0.0,0.0,0.0,0.0,0.0,0.0,11.5625,11.5625,11.5625,11.5625,11.5625,11.5625,11.5625,11.5625,11.5625,11.5625,11.6113,11.7041,11.9286,12.0945,12.2117,12.1321,12.1481,12.2117,12.2117,12.2117,12.2117,12.2117,12.2117,12.2117,12.2117,12.2117,12.2117,12.2117,12.2117,12.2117,12.2117,12.2117,12.2117,12.2117,12.2117,12.2117,12.2117,12.3532,12.5094,12.5094,12.5875,12.6461,12.5387,12.4557,12.402,12.402,12.4801,12.607,12.8071,12.7778,12.7388,12.8315,12.7778,12.7095,12.6949,12.5192,12.3435,12.2471,12.3067,12.3854,12.4638,12.5624,12.635,12.7121,12.845,13.0402,13.3094,13.5102,13.6215,13.6564,13.708,13.5633,13.1854,13.1847,13.1948,13.1948,13.553,13.9454,14.3488,14.668,15.0625,15.5189,15.6468,15.7748,8.9241,9.2956,9.5163,10.4715,10.7103,10.7103,10.6973,10.6973,10.7068,10.7721,10.7196,10.7198,10.8879,10.9276,10.9564,11.013,11.0272,11.0413,0.0,0.0,0.0,0.0,0.0,0.0,0.0,0.0,0.0,0.0,0.0,11.5625,11.5625,11.5625,11.5625,11.5625,11.5625,11.5625,11.5625,11.5625,11.5723,11.5967,11.8163,12.0213,12.2117,12.1958,12.1958,12.2117,12.2117,12.2117,12.2117,12.2117,12.2117,12.2117,12.2117,12.2117,12.2117,12.2117,12.2117,12.2117,12.2117,12.2117,12.2117,12.2117,12.2117,12.2117,12.2117,12.3044,12.4069,12.4069,12.4801,12.5338,12.4362,12.4557,12.5045,12.5045,12.5875,12.6998,12.8218,12.8364,12.8267,12.8462,12.8364,12.7974,12.7095,12.5192,12.3755,12.3214,12.3854,12.4638,12.5624,12.6504,12.6967,12.7071,12.9618,13.1846,13.3192,13.8444,13.9829,13.5605,13.788,13.645,12.9772,13.0272,13.0729,13.0729,13.652,14.0706,14.3488,14.668,15.0625,15.5189,15.6468,15.7748,8.5205,9.0895,9.5925,10.1362,10.4969,10.6973,10.6533,10.6272,10.6533,10.8391,10.8424,10.8489,10.9694,11.013,11.0554,11.0976,11.0976,11.1116,11.1537,0.0,0.0,0.0,0.0,0.0,0.0,0.0,0.0,0.0,0.0,11.5625,11.5625,11.5625,11.5625,11.5625,11.5625,11.5625,11.5625,11.5625,11.5625,11.5674,11.7871,11.9481,12.0506,12.1043,12.158,12.2117,12.2117,12.2117,12.2117,12.2117,12.2117,12.2117,12.2117,12.2117,12.2117,12.2117,12.2117,12.2117,12.2117,12.2117,12.2117,12.2117,12.2117,12.2117,12.2117,12.2898,12.3825,12.3825,12.4557,12.5192,12.4704,12.4948,12.5436,12.6021,12.6558,12.7193,12.8267,12.8511,12.8511,12.8511,12.8511,12.8169,12.7095,12.5631,12.4342,12.3471,12.4482,12.5468,12.5935,12.6659,12.7071,12.7071,12.9864,13.2715,13.4619,13.9214,14.0338,13.6889,13.8127,13.5983,12.9161,13.178,13.4074,13.5289,14.0085,14.3309,14.494,14.9617,15.301,15.5189,15.7166,15.8388,8.1852,8.9066,9.6637,9.9736,10.2937,10.5552,10.6402,10.59,10.6073,10.912,10.9632,10.9755,11.0447,11.1116,11.1677,11.1816,11.1816,11.1816,11.1956,11.1397,0.0,0.0,0.0,0.0,0.0,0.0,0.0,0.0,0.0,0.0,11.5625,11.5625,11.5625,11.5625,11.5625,11.5625,11.5625,11.5625,11.5625,0.0,11.7626,11.87,11.8944,11.9823,12.075,12.1775,12.2019,12.2117,12.2117,12.2117,12.2117,12.2117,12.2117,12.2117,12.2117,12.2117,12.2117,12.2117,12.2117,12.2117,12.2117,12.2117,12.2117,12.2117,12.2117,12.2751,12.3435,12.3435,12.4167,12.4948,12.4704,12.4948,12.5582,12.6656,12.69,12.7193,12.8267,12.8315,12.8218,12.8462,12.8315,12.7876,12.7046,12.6021,12.4979,12.3865,12.4944,12.609,12.6195,12.6813,12.7071,12.7071,13.0467,13.3721,13.6134,13.9732,14.1047,13.9239,13.8785,13.6308,13.1018,13.4952,13.8037,13.95,14.3377,14.5616,14.5948,15.1773,15.4723,15.4782,15.7632,15.8795,9.2521,9.3893,9.4706,10.4004,10.2886,10.1057,10.7024,10.7059,10.6483,10.8845,10.8806,10.9096,11.1048,11.1537,11.1816,11.2324,11.2463,11.2741,11.3483,11.2879,0.0,0.0,0.0,0.0,0.0,0.0,0.0,0.0,0.0,0.0,0.0,11.5625,11.5625,11.5625,11.5625,11.5625,11.5625,11.5625,11.5625,11.5674,11.6846,11.7919,11.8944,11.9042,11.9676,12.075,12.1726,12.2117,12.2117,12.2117,12.2117,12.2117,12.2117,12.2117,12.2117,12.2117,12.2117,12.2117,12.2117,12.2117,12.2117,12.2117,12.2117,12.2117,12.2117,12.2214,12.2263,12.2263,12.3093,12.3727,12.2702,12.3874,12.5582,12.6656,12.69,12.7193,12.8267,12.773,12.7339,12.8315,12.773,12.7046,12.6949,12.6021,12.5223,12.485,12.5443,12.6195,12.6967,12.7121,12.7071,12.7071,13.2396,13.599,13.6278,14.1785,14.4382,14.2566,14.1329,13.9614,13.7351,13.9417,13.9841,13.8299,14.4163,14.643,14.4764,15.0589,15.3327,15.3444,15.7225,15.833,7.9464,8.4849,8.9473,9.1454,9.5824,10.0193,10.2226,10.2586,10.4055,10.9265,10.8459,10.7289,10.8977,11.1294,11.2223,11.0476,11.1978,11.3294,11.3621,11.3018,11.2987,0.0,0.0,0.0,0.0,0.0,0.0,0.0,0.0,0.0,0.0,11.5625,11.5625,11.5625,11.5625,11.5625,11.5625,11.5625,11.5625,11.5674,11.6748,11.748,11.7919,11.7919,11.8505,11.9628,12.0701,12.1189,12.1189,12.1873,12.2117,12.2117,12.2117,12.2117,12.2117,12.2117,12.2117,12.2117,12.2117,12.2117,12.2117,12.2117,12.2117,12.2117,12.2117,12.2117,12.2117,12.2117,12.2458,12.2849,12.3093,12.3776,12.4655,12.5729,12.5973,12.607,12.6509,12.6754,12.6851,12.6607,12.7786,12.8312,12.7035,12.7475,12.7679,12.674,12.6722,12.6951,12.7172,12.7071,12.7071,12.7071,13.2544,13.6278,13.6278,14.2798,14.5308,14.1968,14.1916,14.259,14.3854,14.3759,14.3702,14.3714,14.6231,14.7201,14.643,15.0215,15.199,15.2106,15.6003,15.7108,7.2909,7.9006,8.4951,8.4647,8.9727,9.5519,9.8161,9.8263,10.0123,10.817,10.7381,10.5868,10.7583,11.0004,11.1066,10.9034,11.1523,11.3759,11.3759,11.3294,11.3457,11.4813,0.0,0.0,0.0,0.0,0.0,0.0,0.0,0.0,0.0,11.5625,11.5625,11.5625,11.5625,11.5625,11.5625,11.5625,11.5625,11.5674,11.6406,11.6748,11.6748,11.6748,11.7382,11.8505,11.9579,12.0213,12.0604,12.1678,12.2117,12.2117,12.2117,12.2117,12.2117,12.2117,12.2117,12.2117,12.2117,12.2117,12.2117,12.2117,12.2117,12.2117,12.2117,12.2117,12.2117,12.2117,12.2117,12.2361,12.3532,12.3825,12.3971,12.4704,12.485,12.4948,12.524,12.568,12.6039,12.5713,12.7543,12.8576,12.7257,12.8549,12.9196,12.7739,12.7545,12.7456,12.7069,12.7071,12.7532,12.8399,13.3134,13.6565,13.7563,14.3325,14.583,14.3017,14.3416,14.472,14.6795,14.6057,14.5998,14.6929,14.6929,14.6929,14.6987,14.9488,15.0652,15.0768,15.4665,15.577,7.9921,8.0277,8.1953,8.8609,8.6275,8.5052,9.6179,9.5265,9.4845,10.5071,10.5376,10.4817,10.8068,10.7865,10.751,10.8526,11.1523,11.3759,11.3759,11.3759,11.4294,11.5621,11.5206,0.0,0.0,0.0,0.0,0.0,0.0,0.0,0.0,11.5625,11.5625,11.5625,11.5625,11.5625,11.5625,11.5625,11.5625,11.5625,11.5674,11.5674,11.5674,11.5674,11.626,11.7334,11.8456,11.953,12.0604,12.1678,12.2117,12.2117,12.2117,12.2117,12.2117,12.2117,12.2117,12.2117,12.2117,12.2117,12.2117,12.2117,12.2117,12.2117,12.2117,12.2117,12.2117,12.2117,12.2117,12.2361,12.3532,12.3825,12.3825,12.3825,12.3825,12.4069,12.5094,12.4557,12.444,12.6278,12.6686,12.7009,12.7765,12.8872,12.9196,12.7739,12.7545,12.7456,12.7069,12.7071,12.8246,13.1515,13.4452,13.7563,14.068,14.3807,14.6115,14.7453,14.6289,14.5533,14.5591,14.5533,14.5533,14.5591,14.5591,14.5591,14.5591,14.8092,14.9372,14.943,15.3386,15.4433,7.3062,7.6771,8.0988,8.3884,8.3833,8.5865,9.6332,9.7653,9.7094,9.8771,10.0955,10.2683,10.2886,10.7713,11.1015,10.9034,11.1523,11.3759,11.3759,11.3759,11.4294,11.5621,11.5636,11.5767,0.0,0.0,0.0,0.0,0.0,0.0,0.0,11.5625,11.5625,11.5625,11.5625,11.5625,11.5625,11.5625,11.5625,11.5625,11.5625,11.5625,11.5625,11.5625,11.626,11.7334,11.8456,11.953,12.0604,12.1678,12.2117,12.2117,12.2117,12.2117,12.2117,12.2117,12.2117,12.2117,12.2117,12.2117,12.2117,12.2117,12.2654,12.3142,12.2361,12.2654,12.3142,12.2361,12.2702,12.3532,12.4557,12.485,12.485,12.485,12.4313,12.3679,12.3239,12.3915,12.4591,12.4467,12.6561,12.8357,12.8727,13.0322,13.1055,12.9747,12.9443,12.8891,12.7325,12.7071,12.7532,12.8399,13.3134,13.7563,14.068,14.467,14.6696,14.6231,14.5766,14.5533,14.5533,14.5533,14.5533,14.5533,14.5533,14.5533,14.5533,14.6347,14.722,14.8209,15.1117,15.228,7.169,7.611,8.0683,8.2207,8.1242,8.2614,9.3182,9.3893,9.2623,9.3334,9.6027,9.8263,9.8415,10.4055,10.8119,10.6443,10.9034,11.1828,11.3505,11.3759,11.4433,11.6048,11.6015,11.6201,11.7221,0.0,0.0,0.0,0.0,0.0,11.5625,11.5625,11.5625,11.5625,11.5625,11.5625,11.5625,11.5625,11.5625,11.5625,11.6774,11.737,11.737,11.8651,11.9105,11.9055,12.0195,12.0565,12.0604,12.1678,12.2117,12.2117,12.2117,12.2117,12.2117,12.2117,12.2117,12.2117,12.2117,12.2117,12.2117,12.2117,12.2605,12.3142,12.2849,12.2947,12.3142,12.2849,12.3288,12.3971,12.4557,12.5045,12.5192,12.485,12.4264,12.3483,12.2361,12.329,12.433,12.4003,12.6349,12.8551,12.9076,13.0817,13.207,13.1533,13.1948,13.1845,13.0675,12.9562,12.9259,13.0414,13.396,13.7989,14.239,14.5617,14.6987,14.5649,14.5533,14.5533,14.5533,14.5533,14.5533,14.5533,14.5533,14.5533,14.5533,14.5533,14.6231,14.7569,14.9605,15.0768,7.4434,7.738,8.0429,8.2919,7.9159,7.7584,8.7999,8.6427,8.4036,8.8863,9.0692,9.2115,9.4401,9.7602,10.06,10.2581,10.5071,10.8322,11.2743,11.3149,11.3911,11.6299,11.5896,11.6188,11.7714,11.727,0.0,0.0,0.0,0.0,11.5625,11.5625,11.5625,11.5625,11.5625,11.5625,11.5625,11.5625,11.5824,11.6076,11.8748,12.0161,12.0597,12.3419,12.372,12.2091,12.3308,12.2509,12.0701,12.1836,12.2275,12.2117,12.2117,12.2117,12.2117,12.2117,12.2117,12.2117,12.2117,12.2117,12.2117,12.2117,12.2166,12.2458,12.3483,12.3093,12.2458,12.3483,12.3825,12.3825,12.4084,12.4817,12.5354,12.4328,12.4084,12.3742,12.2569,12.2909,12.3854,12.4482,12.627,12.7758,12.8954,13.0842,13.2507,13.3613,13.4648,13.5597,13.6173,13.3868,13.3187,13.599,13.6421,13.9032,14.4807,14.6562,14.6871,14.5649,14.5533,14.5533,14.5533,14.5533,14.5533,14.5533,14.5533,14.5533,14.5533,14.5533,14.6173,14.7453,14.8674,14.9896,7.2554,7.3926,7.6364,8.114,8.4392,8.7136,8.9727,8.932,8.7796,8.5662,8.5408,8.6272,8.8558,9.3131,9.9736,10.944,10.6646,10.4766,10.9237,10.7713,10.756,11.1523,11.2606,11.3938,11.6565,11.7417,11.7171,0.0,0.0,0.0,11.5625,11.5625,11.5625,11.5625,11.5625,11.5625,11.5625,11.5625,11.6774,11.9042,11.9774,12.1321,12.3703,12.441,12.4136,12.3209,12.5933,12.5135,12.1933,12.4701,12.4382,12.2117,12.2117,12.2117,12.2117,12.2117,12.2117,12.2117,12.2117,12.2117,12.2117,12.2117,12.2702,12.3483,12.3727,12.363,12.3483,12.3727,12.3825,12.4181,12.5611,12.6918,12.7574,12.6973,12.6886,12.639,12.4457,12.4638,12.5418,12.5624,12.6552,12.8349,13.1676,13.2707,13.393,13.6632,13.7236,13.715,13.6298,13.5702,13.5414,13.6134,13.8468,14.0346,14.1979,14.4558,14.5882,14.5591,14.5533,14.5533,14.5533,14.5533,14.5533,14.5533,14.5533,14.5533,14.5533,14.5533,14.5708,14.6057,14.7336,14.8616,7.3316,7.545,7.7584,7.8041,8.0429,8.2664,8.2664,8.2664,8.2004,7.9565,7.9057,8.0531,8.5357,8.7034,9.1048,10.1311,10.1616,10.2276,10.7256,10.817,10.9085,11.0965,11.3048,11.4712,11.535,11.6964,11.7469,0.0,0.0,0.0,11.5625,11.5625,11.5625,11.5625,11.5625,11.5625,11.5625,11.8504,11.992,12.0212,12.3043,12.5395,12.7341,12.8768,12.8643,12.7382,0.0,12.8264,12.585,12.7474,12.6767,12.4382,12.4382,12.3333,12.2117,12.2117,12.2117,12.2117,12.2117,12.2117,12.2117,12.2117,12.2556,12.3239,12.4216,12.3825,12.3239,12.4216,12.4098,12.3928,12.549,12.7009,12.8039,12.7218,12.7527,12.7328,12.5136,12.5263,12.635,12.7736,12.8652,13.0473,13.4082,13.5114,13.6308,13.9007,13.9823,14.0282,14.0514,13.9312,13.9032,14.0485,14.0762,14.1736,14.3794,14.502,14.5824,14.6406,14.5882,14.5533,14.5533,14.5533,14.5824,14.6464,14.6464,14.6464,14.6464,14.6464,14.6464,14.6522,14.7802,14.9023,7.4738,7.7787,7.9565,7.484,7.3671,7.3671,7.3671,7.3671,7.3671,7.3671,7.3671,7.5755,8.2512,8.1445,8.1598,8.7796,9.4401,10.0498,10.563,10.9745,11.2133,11.1828,11.447,11.5916,11.4866,11.6756,11.7617,11.6873,0.0,11.5625,11.5625,11.5625,11.5926,11.6375,11.6375,11.6476,11.7072,12.2185,12.3755,12.1609,12.6842,12.9911,13.0988,13.3621,13.377,13.2078,0.0,13.1895,13.026,13.0712,12.972,12.7787,12.7634,12.5993,12.3598,12.3598,12.3598,12.3598,12.3598,12.3175,12.2702,12.2275,12.2117,12.2507,12.446,12.3679,12.2666,12.5267,12.5021,12.4367,12.5775,12.7407,12.8175,12.6907,12.7298,12.7448,12.54,12.604,12.7634,13.016,13.1707,13.3481,13.6421,13.7728,13.9173,14.1547,14.2838,14.401,14.5673,14.3552,14.2892,14.5266,14.3265,14.312,14.6834,14.6173,14.6265,14.7775,14.6781,14.6065,14.5533,14.5533,14.6057,14.722,14.7453,14.778,14.8184,14.8359,14.8686,14.9087,15.0143,15.1317,7.3875,7.4434,7.4738,7.3875,7.3671,7.3671,7.3671,7.3671,7.3671,7.3671,7.3671,7.4332,7.6415,8.0886,8.3731,8.2106,9.1353,9.9685,10.2429,10.4258,10.6646,11.0253,11.193,11.399,11.6778,11.7656,11.7617,11.6873,11.6125,11.5625,11.5625,11.5625,11.6774,11.9335,11.9482,12.0742,12.3419,12.4269,12.5867,12.7809,12.9313,13.139,13.4071,13.5169,13.4693,13.2951,0.0,0.0,13.19,13.4995,13.4527,13.1751,13.1155,13.0558,13.0108,13.0108,13.0108,13.0108,13.0108,12.8345,12.5734,12.3017,12.2117,12.2361,12.363,12.3142,12.2996,12.7713,12.8142,12.7838,13.0399,13.1325,13.0968,12.8954,12.8638,12.8435,12.7067,12.9007,13.1067,13.1462,13.3721,13.6565,13.9648,14.0375,14.1855,14.5963,14.666,14.6853,14.7278,14.6815,14.6216,14.5649,14.5133,14.5191,14.5824,14.5649,14.6652,14.9057,14.9007,14.7914,14.5666,14.5533,14.5649,14.5824,14.6987,14.866,15.0983,15.2116,15.3767,15.6135,15.6318,15.6985,7.3671,7.4308,7.4743,7.413,7.3977,7.3888,7.3671,7.3671,7.3671,7.3671,7.3671,7.4117,7.5457,7.8674,8.1277,8.1533,8.7562,9.3499,9.7059,10.3426,10.8494,11.0132,11.4443,11.7378,11.7793,11.7916,11.8456,11.9825,11.7221,11.6375,11.8061,11.8061,11.9482,12.2615,12.2615,12.4128,12.7119,12.8823,12.9558,12.9232,13.1579,13.3621,13.5299,13.6073,13.5915,0.0,0.0,0.0,13.5163,13.7599,13.7194,13.4921,13.4853,13.376,13.2195,13.1751,13.1602,13.1602,13.1602,13.0707,12.8953,12.5734,12.349,12.2361,12.3483,12.4804,12.6815,13.0884,13.1822,13.2153,13.3478,13.4563,13.4883,13.3255,13.3326,13.3432,13.2365,13.3134,13.4743,13.6332,13.776,13.9788,14.2936,14.3401,14.4403,14.7201,14.6929,14.6755,14.7453,14.6929,14.6231,14.5591,14.5533,14.6139,14.7524,14.8956,15.0294,15.1546,15.0228,14.9016,14.7784,14.6271,14.5533,14.5533,14.9001,15.2057,15.4768,15.6104,15.735,15.8676,15.8676,15.9352,7.5713,0.0,7.8776,7.7758,7.664,7.578,0.0,7.4434,7.3671,7.385,7.385,7.4194,7.555,7.6834,7.8538,8.1199,8.4172,8.7775,9.2449,10.1151,10.7539,10.8737,11.5535,11.9613,11.826,11.8551,12.0154,12.3328,11.9532,11.8209,12.1032,12.1176,12.2615,12.5728,12.6564,12.7946,13.0236,13.2622,13.2678,13.0371,13.3546,13.5299,13.5944,13.6713,13.7095,0.0,0.0,0.0,13.8155,13.9632,13.9386,13.8053,13.8446,13.7048,13.4834,13.4106,13.3814,13.3814,13.3814,13.3375,13.2343,13.016,12.6867,12.3953,12.4795,12.7579,13.1006,13.4344,13.5792,13.6223,13.6421,13.7564,13.8345,13.664,13.6988,13.728,13.6496,13.6851,13.8044,14.0485,14.1509,14.28,14.5266,14.5824,14.6347,14.7394,14.6929,14.6696,14.7453,14.6638,14.5882,14.5591,14.6197,14.7263,14.9272,15.2656,15.4666,15.4357,15.2717,15.141,15.048,14.8502,14.7394,14.7394,15.1501,15.4817,15.7383,15.9794,16.1222,16.1967,16.1967,16.2464,0.0,8.5441,8.7776,8.7003,8.3867,8.059,7.9916,7.6669,0.0,7.4103,7.4192,7.442,7.4964,7.645,7.781,7.858,8.1621,8.5564,9.069,9.3438,9.7227,10.3496,11.144,11.6945,11.8022,12.0144,12.2885,12.6318,12.3238,12.2144,12.4322,12.441,12.5867,12.8823,13.169,13.3207,13.3396,13.3659,13.3659,13.3527,13.504,13.5815,13.5944,13.7222,13.7671,0.0,0.0,0.0,0.0,14.1476,14.2251,14.2024,14.2048,14.1874,14.1598,14.071,14.0375,14.0375,14.0375,13.8493,13.6154,13.6619,13.3027,12.8801,12.8904,13.1059,13.4344,13.8272,13.9397,13.9536,14.0346,14.0597,14.004,13.7048,13.6332,13.6387,13.6278,13.8609,14.068,14.0957,14.3265,14.54,14.5533,14.658,14.7453,14.7511,14.8441,14.8674,14.7685,14.7453,14.6929,14.5708,14.7784,14.9272,14.9467,15.5348,15.84,15.7143,15.8094,15.6976,15.3268,15.2841,15.2841,15.2841,15.3208,15.4741,15.7444,16.246,16.6336,16.902,16.902,16.902,8.636,8.8909,9.0163,8.9226,8.5433,8.2012,8.1488,7.7799,7.4508,7.4685,7.4721,7.4897,7.5335,7.6547,7.8222,8.0537,8.2642,8.499,8.7618,9.5469,10.2117,10.5417,11.6227,12.3545,12.4293,12.4484,12.5643,12.83,12.5805,12.5167,12.7395,12.7533,12.8959,13.1957,13.3075,13.3791,13.3791,13.3791,13.3791,13.3791,13.5169,13.5815,13.5944,13.7222,13.7797,0.0,0.0,0.0,0.0,14.1086,14.2,14.2101,14.3251,14.338,14.2835,14.2149,14.1598,14.1126,14.1126,14.071,13.9816,13.8044,13.6421,13.4635,13.2786,13.5124,13.9032,14.247,14.3344,14.3479,14.3807,14.3807,14.3536,14.2333,14.2059,14.2059,14.2059,14.2936,14.3807,14.3807,14.4807,14.5533,14.5533,14.594,14.658,14.7394,14.722,14.7104,14.7511,14.6813,14.6115,14.5591,14.7914,15.1285,15.5831,16.0415,16.291,16.2399,16.1334,16.0215,15.8933,15.7313,15.6091,15.5227,15.6789,15.8007,15.8712,16.3279,16.6888,16.9676,16.9676,16.9676,9.1573,9.3988,9.514,9.4137,9.0422,8.6555,8.4555,8.0568,7.6887,7.5471,7.516,7.5335,7.5857,7.7026,7.8715,8.1213,8.3271,8.573,8.8805,9.7279,10.4517,10.8012,11.654,12.3325,12.6087,12.6482,12.7584,13.0047,12.8135,12.7897,12.9955,13.0475,13.1635,13.3659,13.3791,13.3791,13.3791,13.3791,13.3791,13.4053,13.5299,13.5944,13.6201,13.7349,13.7797,0.0,0.0,0.0,0.0,14.0822,14.1985,14.2436,14.3921,14.4057,14.338,14.2618,14.1736,14.1183,14.146,14.1874,14.2012,14.0263,13.9312,13.8609,13.6708,13.9032,14.28,14.4941,14.5533,14.5533,14.5533,14.5533,14.5533,14.5533,14.5533,14.5533,14.5533,14.5533,14.5533,14.5533,14.5533,14.5533,14.5533,14.5882,14.6347,14.6871,14.6522,14.6481,14.7139,14.6382,14.6329,14.7263,14.9954,15.3821,15.9089,16.3079,16.5166,16.5054,16.3956,16.351,16.3905,16.2157,16.0711,15.9767,16.1076,16.1597,16.1533,16.4332,16.6877,16.8968,16.9419,16.9676,9.7422,10.1537,10.4056,10.3399,9.9894,9.5236,8.9901,8.5234,8.086,7.6484,7.5631,7.5805,7.629,7.7921,7.9315,7.982,8.2906,8.7749,9.4967,9.7555,10.2035,11.0768,11.0958,11.3642,12.193,12.5759,12.8864,13.1793,13.051,0.0,13.1928,13.3113,13.3791,13.3791,13.3791,13.3791,13.3791,13.3791,13.3997,13.465,13.5557,13.6201,13.684,13.7602,13.7797,0.0,0.0,0.0,0.0,14.1171,14.245,14.373,14.4268,14.4057,14.338,14.2618,14.1874,14.1321,14.2012,14.2343,14.2561,14.3922,14.239,13.9928,14.0762,14.3129,14.5533,14.5533,14.5533,14.5533,14.5533,14.5533,14.5533,14.5533,14.5533,14.5533,14.5533,14.5533,14.5533,14.5533,14.5533,14.5533,14.5533,14.6638,14.7104,14.5899,14.6696,14.7314,14.6769,14.6593,14.7914,15.1047,15.4434,15.6981,15.8054,16.2382,16.4776,16.4231,16.6031,16.7205,16.725,16.725,16.725,16.7185,16.5773,16.5382,16.6128,16.6193,16.6569,16.7601,16.8968,16.9612,10.1941,10.3383,10.4174,10.3938,10.0465,9.5781,9.0943,8.6322,8.1649,7.7064,7.6204,7.6204,7.6377,7.687,7.7783,7.9557,8.4742,8.9947,9.4188,10.4351,11.2461,11.5619,12.0971,12.5287,12.7733,12.8881,13.0015,13.1218,13.2159,13.259,13.2703,13.2527,13.2888,13.3791,13.2944,13.2493,13.2493,13.3012,13.3214,13.3472,13.5485,13.6713,13.684,13.7602,13.7797,13.7797,13.7797,0.0,0.0,14.0822,14.1985,14.2508,14.4454,14.4731,14.4057,14.3922,14.338,14.2835,14.2971,14.338,14.3922,14.4327,14.4135,14.3942,14.4135,14.4807,14.5533,14.5533,14.5533,14.5533,14.5533,14.5533,14.5533,14.5533,14.5533,14.5533,14.5533,14.5533,14.5533,14.5533,14.5533,14.5533,14.5533,14.5882,14.6606,14.8103,14.8997,15.0021,15.1733,15.2289,15.3024,15.3993,15.7851,16.1328,16.3344,16.5426,16.6836,16.7701,16.8332,16.9314,17.0734,17.0734,16.982,16.7794,16.7337,16.6033,16.3866,16.4906,16.5812,16.6681,16.8104,16.9104,10.492,10.4941,10.4174,10.4174,10.2064,9.8319,9.1831,8.8239,8.4289,7.7748,7.6377,7.6377,7.6377,7.7168,7.9211,8.3453,8.909,9.555,10.2866,11.2482,11.9875,12.2869,12.7558,13.0592,13.0235,13.0235,13.0407,13.068,13.1785,13.2309,13.2183,13.2264,13.2656,13.3392,13.2713,13.2316,13.2316,13.3088,13.3415,13.367,13.5824,13.6968,13.7222,13.7729,13.7797,13.7797,13.7797,0.0,0.0,14.0298,14.1578,14.2625,14.4195,14.4669,14.4462,14.4462,14.4057,14.3516,14.3787,14.4057,14.4462,14.4731,14.5133,14.5533,14.5533,14.5533,14.5533,14.5533,14.5533,14.5533,14.5533,14.5533,14.5533,14.5533,14.5533,14.5533,14.5533,14.5533,14.5533,14.5533,14.5533,14.5533,14.5533,14.6608,14.7926,14.9534,15.1115,15.2779,15.4649,15.5243,15.595,15.7291,16.0787,16.352,16.4895,16.5679,16.6837,16.8577,16.8992,17.0235,17.2529,17.2594,17.1742,17.0038,16.9448,16.8118,16.588,16.662,16.762,16.8665,16.9242,17.0301,10.7126,10.6395,10.4644,10.4526,10.4292,10.1748,9.2464,9.0354,8.7664,7.8328,7.6377,7.6463,7.6549,7.8858,8.2949,8.9723,9.5709,10.3877,11.656,12.0934,12.4937,13.0598,13.1302,13.0948,13.0354,13.0235,13.0235,13.0235,13.0137,13.0339,13.0829,13.2068,13.2804,13.3031,13.2861,13.2804,13.2918,13.3384,13.4017,13.4762,13.6159,13.7106,13.7797,13.7797,13.7797,13.7797,13.7797,0.0,0.0,13.9658,14.1112,14.3265,14.3381,14.3857,14.4289,14.4289,14.4077,14.3651,14.4327,14.4462,14.4596,14.54,14.5533,14.5533,14.5533,14.5533,14.5533,14.5533,14.5533,14.5533,14.5533,14.5533,14.5533,14.5533,14.5533,14.5666,14.5932,14.5799,14.5666,14.5932,14.5799,14.5666,14.5666,14.8254,15.049,15.0741,15.3507,15.5887,15.665,15.6828,15.7978,16.079,16.3074,16.4254,16.3797,16.4216,16.5502,16.7725,16.8482,17.0117,17.2879,17.3076,17.3076,17.2945,17.1695,17.0864,17.0408,17.0343,17.1137,17.2818,17.2221,17.2988,11.1367,10.9399,10.743,10.7028,10.547,10.1748,9.2464,9.0354,8.7664,7.8328,7.6377,7.6807,7.8144,8.3066,8.8181,9.2009,10.338,11.3299,11.7746,12.4552,12.9873,13.177,13.1537,13.1184,13.1066,13.0592,13.0235,13.0235,13.0229,12.9985,12.9681,13.0331,13.1611,13.3613,13.1725,13.1153,13.2183,13.1957,13.2329,13.3616,13.5388,13.6799,13.7797,13.7797,13.7797,13.7797,13.7797,0.0,0.0,13.9309,14.0065,14.0647,14.1752,14.2785,14.3815,14.3815,14.4395,14.5133,14.5266,14.5266,14.54,14.5533,14.5533,14.5533,14.5533,14.5533,14.5533,14.5533,14.5533,14.5533,14.5533,14.5533,14.5533,14.5533,14.5533,14.6197,14.8114,14.706,14.6139,14.8244,14.7453,14.6329,14.6329,14.8956,15.1857,15.3872,15.6766,15.9557,16.179,16.2436,16.2862,16.3561,16.415,16.4424,16.432,16.4424,16.5147,16.6987,16.817,16.9722,17.1432,17.255,17.2616,17.1498,17.1235,17.1232,17.1629,17.1495,17.2838,17.543,17.5277,17.5821,11.453,11.2083,11.0065,10.9843,10.8672,10.5634,9.8633,9.6071,9.2712,8.3368,8.1163,8.0498,7.9196,8.548,9.2529,9.7433,10.8481,11.8166,12.323,12.8252,13.1794,13.2526,13.1947,13.1537,13.1302,13.0592,13.0235,13.0235,13.0235,13.0116,12.9757,12.9975,13.0822,13.2408,13.1201,13.0799,13.1546,13.1593,13.2307,13.3582,13.5288,13.6692,13.7797,13.7797,13.7797,13.7797,13.7797,0.0,13.7855,13.8553,13.9193,13.9775,14.0473,14.1578,14.2741,14.2741,14.3555,14.4661,14.4661,14.501,14.5799,14.706,14.6666,14.5533,14.5533,14.5533,14.5533,14.5533,14.5533,14.5533,14.5533,14.5533,14.5533,14.5533,14.6535,14.7784,14.9272,14.9594,15.0108,15.1485,15.1112,15.0611,15.0737,15.3327,15.5895,15.7291,16.0065,16.2543,16.3837,16.4254,16.4527,16.4527,16.4527,16.4527,16.4527,16.4527,16.5119,16.6632,16.7487,16.8868,17.0972,17.1761,17.209,17.209,17.3031,17.3721,17.4078,17.5007,17.6803,17.9153,17.8218,17.8465,11.6828,11.4948,11.2836,11.2679,11.1924,11.0081,10.5311,10.2746,9.8913,9.0408,8.7666,8.5744,8.2185,8.9037,9.7088,10.2675,11.1974,12.097,12.8007,13.038,13.177,13.2869,13.2529,13.1889,13.1302,13.0592,13.0235,13.0235,13.0235,13.0235,13.0235,13.0235,13.0461,13.09,13.1131,13.1246,13.1246,13.168,13.2446,13.3783,13.5063,13.6343,13.7506,13.7739,13.7797,13.7797,13.7797,0.0,13.7797,13.7797,13.8437,13.9426,13.9426,14.024,14.1403,14.1403,14.2334,14.3745,14.4138,14.4824,14.6139,14.9212,14.8699,14.687,14.687,14.687,14.687,14.687,14.687,14.687,14.687,14.687,14.687,14.687,14.863,15.0228,15.0354,15.2657,15.4888,15.5006,15.5125,15.5243,15.5299,15.7915,15.9954,15.9954,16.2543,16.4527,16.4527,16.4527,16.4527,16.4527,16.4527,16.4527,16.4527,16.4527,16.5054,16.6303,16.6632,16.7947,17.0577,17.0906,17.1911,17.3726,17.5395,17.6664,17.7301,17.9065,18.0943,18.2875,18.1195,18.1378,11.8821,11.8135,11.6087,11.5274,11.3426,11.0453,10.5413,10.3975,10.2235,9.7021,9.3188,9.0872,9.1719,9.856,10.3764,10.2774,11.4132,12.354,12.4649,12.7029,12.9739,13.2631,13.2529,13.1889,13.1302,13.0592,13.0235,13.0235,13.0235,13.0235,13.0235,13.0235,13.0293,13.0348,13.1453,13.1976,13.1976,13.105,13.1108,13.2387,13.3725,13.5063,13.6285,13.7332,13.7797,13.7797,13.7797,0.0,13.7797,13.7797,13.7913,13.8088,13.8088,13.8844,14.0007,14.0007,14.1578,14.4007,14.6286,14.6403,14.6535,15.1796,15.3024,15.235,15.235,15.235,15.235,15.235,15.235,15.235,15.235,15.235,15.235,15.235,15.2657,15.2963,15.3388,15.5597,15.7635,15.827,15.706,15.595,15.595,15.8546,16.0616,16.0616,16.2862,16.4527,16.4527,16.4527,16.4527,16.4527,16.4527,16.4527,16.4527,16.4527,16.4593,16.4791,16.604,16.7487,16.9131,17.038,17.2594,17.5846,17.6222,17.7995,18.149,18.176,18.3049,18.5041,18.4722,18.4722,11.5887,11.7691,11.8794,11.7994,11.6879,11.5264,11.2669,11.0967,10.8807,10.4123,10.0314,9.7223,9.5422,10.2377,10.8093,10.7072,11.7216,12.5473,12.6251,12.7986,13.0029,13.2194,13.223,13.2123,13.1772,13.0829,13.0235,13.0235,12.9537,12.913,12.913,12.9828,13.0235,13.0235,13.0759,13.105,13.105,13.0526,13.0875,13.2097,13.2736,13.3667,13.5005,13.6226,13.6808,13.6866,0.0,13.7797,13.7797,13.7797,13.7797,13.7797,13.7797,13.8969,14.075,14.075,14.3466,14.735,14.8572,14.9787,15.1549,15.5125,15.5187,15.3751,15.345,15.3328,15.3328,15.3328,15.3571,15.3751,15.3751,15.4113,15.4353,15.4353,15.5424,15.6659,15.6828,15.8899,16.0919,16.1465,16.1183,16.0726,16.0726,16.1941,16.2862,16.2862,16.3771,16.4527,16.4527,16.4527,16.4527,16.4527,16.4527,16.4527,16.4527,16.4527,16.4527,16.4527,16.543,16.7473,17.0825,17.166,17.4078,17.8319,17.9188,18.0574,18.2365,18.3482,18.4555,18.5439,18.6284,18.6284,11.3072,11.6713,11.9637,12.0448,12.0719,12.0428,11.8775,11.7388,11.5348,11.1625,10.8079,10.4841,10.1752,10.738,11.2106,11.1088,11.8891,12.5473,12.6431,12.7687,12.9192,13.1053,13.1333,13.1353,13.1475,13.0246,12.9717,13.0185,12.8959,12.8259,12.8259,12.9485,13.0067,12.9949,13.0536,13.0711,13.0473,13.0711,13.1178,13.2232,13.2342,13.2863,13.3911,13.5871,13.6643,13.6702,13.8736,13.9268,13.8711,13.8815,13.8991,13.8991,13.8867,14.0354,14.2646,14.2646,14.5942,15.0495,15.1561,15.3799,15.651,15.8312,15.7472,15.5808,15.5832,15.5722,15.5604,15.5722,15.5895,15.6129,15.6363,15.6712,15.706,15.706,15.861,16.0082,16.0193,16.1747,16.327,16.3797,16.4216,16.4527,16.4527,16.4527,16.4527,16.4527,16.4527,16.4527,16.4527,16.4527,16.4527,16.4527,16.4527,16.4527,16.4527,16.4631,16.5072,16.5951,16.6625,16.9056,17.3864,17.4163,17.6339,18.0897,18.2118,18.2892,18.3412,18.497,18.5906,18.6166,18.7364,18.7505,11.2932,11.608,11.7417,12.1871,12.4402,12.4583,12.0001,12.0172,12.1034,11.9776,11.6458,11.4067,11.5024,11.6678,11.6558,11.2884,11.7874,12.2362,12.2422,12.3559,12.5617,12.8773,12.9195,12.9277,12.9483,12.8254,12.825,12.9942,12.8881,12.8115,12.8115,12.9353,12.9889,12.9368,13.1124,13.1772,13.1184,13.1772,13.2182,13.2241,13.277,13.3117,13.3354,13.6672,13.8204,13.8557,14.264,14.314,14.107,14.1687,14.2169,14.217,14.1569,14.312,14.5784,14.5784,14.7972,15.1521,15.548,15.7854,15.9355,16.0895,16.0932,16.0663,16.1962,16.192,16.1594,16.2244,16.192,16.1703,16.2244,16.2459,16.2524,16.2524,16.2631,16.2845,16.3311,16.3522,16.3797,16.432,16.4424,16.4527,16.4527,16.4527,16.4527,16.4527,16.4527,16.4527,16.4527,16.4527,16.4527,16.4527,16.4527,16.4527,16.4527,16.5043,16.6726,17.0004,17.0651,17.3104,17.7917,17.8145,17.9873,18.3444,18.3599,18.4511,18.6412,18.6491,18.7112,18.8195,18.8266,18.8879,10.9811,11.4726,11.8531,12.3812,12.5654,12.5566,12.3553,12.3582,12.3891,12.3154,11.9612,11.6799,11.7978,11.8109,11.7994,11.7455,12.1464,12.4695,12.4695,12.5832,12.71,12.8315,12.8877,12.9439,13.0342,13.0095,13.0465,13.1598,12.9841,12.8842,12.8842,13.0052,13.1192,13.192,13.4006,13.5382,13.6016,13.6298,13.6407,13.6407,13.6675,13.6748,13.6808,13.8979,13.9925,13.9986,14.2276,14.2004,13.9912,14.0103,14.0829,14.1732,14.1497,14.4474,14.9032,14.9032,15.1537,15.5229,15.7078,15.8637,15.9848,16.0131,16.0607,16.1247,16.0965,16.1315,16.1985,16.2201,16.2416,16.2738,16.327,16.3692,16.3902,16.3902,16.3902,16.4007,16.4111,16.4216,16.4216,16.4358,16.4527,16.4527,16.4527,16.4527,16.4527,16.4527,16.4527,16.4527,16.4527,16.4527,16.4527,16.4527,16.4527,16.4631,16.5043,16.7226,16.9279,17.0909,17.3507,17.6755,18.0661,18.0885,18.2566,18.6034,18.5714,18.5874,18.6648,18.6648,18.7349,18.8749,18.8749,18.9357,10.564,11.1674,11.7572,12.3021,12.637,12.7732,12.6007,12.6094,12.6398,12.5603,12.3039,12.1313,12.2377,12.22,12.2137,12.2839,12.5079,12.6595,12.65,12.7017,12.7448,12.7448,12.8493,12.9562,13.0602,13.1382,13.2136,13.3113,13.132,13.0354,13.0354,13.1539,13.26,13.3352,13.5861,13.7567,13.8293,13.9002,13.9357,13.9357,13.9357,13.9252,13.9146,14.0821,14.1512,14.1638,14.3903,14.3522,14.1423,14.1697,14.2439,14.3303,14.3624,14.6805,15.1504,15.2018,15.4097,15.6796,15.7195,15.7952,15.8706,15.893,15.9615,16.0393,16.0581,16.1242,16.1874,16.2543,16.2951,16.327,16.3797,16.4216,16.4527,16.4527,16.4527,16.4527,16.4527,16.4527,16.4527,16.4527,16.4527,16.4527,16.4527,16.4527,16.4527,16.4527,16.4527,16.4527,16.4527,16.4527,16.4669,16.5422,16.5558,16.6095,16.7182,17.0126,17.2548,17.4031,17.7163,18.0553,18.3949,18.4241,18.528,18.7565,18.7261,18.7036,18.7036,18.7036,18.774,18.9224,18.9224,19.0121,10.1019,10.7481,11.4113,11.9615,12.6579,13.1078,12.6962,12.7473,12.8517,12.7581,12.7426,12.7718,12.9026,12.9188,12.9045,12.8637,12.8197,12.7651,12.7214,12.6607,12.6346,12.6346,12.8069,12.9637,13.0404,13.169,13.3082,13.4308,13.3174,13.2418,13.2418,13.3678,13.4137,13.3477,13.6714,13.8199,13.7585,13.9646,14.0711,14.0711,14.0774,14.0401,13.9818,14.2137,14.3199,14.3427,14.7639,14.7969,14.5716,14.6726,14.7061,14.715,14.7909,15.0165,15.3192,15.4533,15.5453,15.5847,15.5847,15.5913,15.611,15.7491,15.7952,15.8543,16.1371,16.1881,16.1899,16.386,16.4046,16.3732,16.4254,16.4527,16.4527,16.4527,16.4527,16.4527,16.4527,16.4527,16.4527,16.4527,16.4527,16.4527,16.4527,16.4527,16.4527,16.4527,16.4527,16.4565,16.4565,16.4565,16.5422,16.731,16.7852,16.8852,17.0767,17.3425,17.6308,17.9587,18.1909,18.4557,18.7795,18.7941,18.7941,18.7941,18.7941,18.7941,18.7941,18.7941,18.8572,18.9755,18.9684,19.1085,11.2852,11.4263,11.4397,12.1159,12.4404,12.5755,12.4578,12.472,12.6058,12.9833,12.9392,12.877,12.9763,12.8784,12.8461,13.031,13.0499,13.0621,13.1188,13.1178,13.1042,13.0705,13.1203,13.2216,13.389,13.5769,13.7021,13.7411,13.5677,13.4676,13.4676,13.4902,13.5511,13.6439,13.8786,14.0503,14.1384,14.2971,14.3781,14.3781,14.4821,14.5276,14.5084,14.5657,14.6007,14.6072,14.7282,14.6499,14.44,14.4687,14.5295,14.6323,14.6544,14.9494,15.3615,15.4009,15.4303,15.4532,15.5519,15.5913,15.5979,15.6373,15.7163,15.8346,15.9782,16.0066,16.0487,16.3182,16.3012,16.2488,16.4057,16.4527,16.4527,16.4527,16.4527,16.4527,16.4527,16.4527,16.4527,16.4527,16.4527,16.4527,16.4527,16.4527,16.4527,16.4527,16.5659,16.6624,16.695,16.8166,16.9408,17.0229,17.0431,17.0945,17.1891,17.5921,17.8911,18.0281,18.4225,18.6991,18.7941,18.7941,18.7941,18.7941,18.7941,18.7941,18.7941,18.7941,18.8722,19.0144,18.9004,18.9915,10.7887,10.9193,11.0694,11.7357,11.9524,12.1214,12.6176,12.5371,12.5231,13.0898,13.1187,13.0522,13.1056,13.0213,12.9915,13.1243,13.1298,13.1464,13.2302,13.224,13.2206,13.2355,13.3922,13.5484,13.6645,13.785,13.8619,13.8619,13.7429,13.6826,13.6826,13.6826,13.7216,13.797,13.9706,14.1117,14.1972,14.4011,14.5063,14.5063,14.6444,14.7167,14.7167,14.7167,14.7167,14.7167,14.7167,14.6449,14.5245,14.5245,14.57,14.6479,14.7129,14.9271,15.1968,15.1968,15.2757,15.3875,15.4729,15.5387,15.5913,15.5913,15.6439,15.736,15.8471,15.8864,15.9222,16.1582,16.1582,16.143,16.327,16.4333,16.4931,16.5757,16.5795,16.5861,16.6723,16.6195,16.5961,16.6723,16.6919,16.6919,16.6919,16.6195,16.5961,16.6723,16.7947,16.8919,16.9131,17.0319,17.1142,17.1405,17.2253,17.3252,17.4619,17.8759,18.1444,18.1746,18.5635,18.7941,18.7941,18.7941,18.7941,18.7941,18.7941,18.7941,18.7941,18.7941,18.8441,18.9297,18.8369,18.879,9.3591,9.7931,10.5079,10.9886,11.2034,11.5782,0.0,12.469,12.2681,12.8723,13.0064,13.0332,13.1003,13.1271,13.1468,13.1863,13.1548,13.145,13.2041,13.1815,13.1857,13.262,13.6075,13.8443,13.8443,13.8574,13.8706,13.8706,13.8619,13.8619,13.8619,13.8619,13.8619,13.8619,13.9868,14.0526,14.0526,14.3222,14.4668,14.48,14.6247,14.697,14.7167,14.7167,14.7167,14.7167,14.7167,14.7167,14.7167,14.7167,14.7167,14.7299,14.868,14.9206,14.9272,14.9403,15.1179,15.3546,15.3743,15.4729,15.5913,15.6141,15.6239,15.6502,15.7887,15.8315,15.8709,16.0062,16.0492,16.0955,16.2793,16.4272,16.5753,16.7483,16.7743,16.8003,16.9843,16.8894,16.8206,16.9911,17.0275,17.0275,17.0275,16.88,16.8396,17.0366,17.1014,17.1298,17.1298,17.1753,17.2183,17.2183,17.383,17.5646,17.7734,18.1017,18.3089,18.3303,18.6086,18.7799,18.7941,18.7941,18.7941,18.7941,18.7941,18.7941,18.7941,18.7941,18.7941,18.7941,18.7941,18.7944,0.0,0.0,0.0,0.0,0.0,0.0,0.0,10.5206,10.6326,11.3239,11.5583,11.7862,12.2689,12.4499,12.7308,13.3149,13.4006,13.4287,13.5265,13.5953,13.5942,13.5002,13.6584,13.7799,13.7799,13.8604,13.9008,13.9008,13.8727,13.8619,13.8619,13.8619,13.8619,13.8619,13.8882,13.9013,13.9013,14.0723,14.217,14.3288,14.4734,14.6049,14.7167,14.7167,14.7167,14.7167,14.7167,14.7167,14.7167,14.7167,14.7167,14.7167,14.7496,14.7628,14.7759,14.9009,15.0587,15.2165,15.3349,15.4729,15.6141,15.7573,15.8136,15.8403,15.9806,16.0451,16.0952,16.2056,16.2578,16.3207,16.4765,16.5467,16.6033,16.7639,16.7936,16.8299,16.9912,17.0002,16.982,17.0184,17.0275,17.0275,17.0275,17.0002,17.0546,17.2732,17.3487,17.383,17.4087,17.5646,17.678,17.7078,17.7444,17.7879,17.8309,18.0235,18.1948,18.3232,18.5087,18.6657,18.7941,18.7941,18.7941,18.7941,18.7941,18.7941,18.7941,18.7941,18.7941,18.7941,18.7941,18.7816,0.0,0.0,0.0,0.0,0.0,0.0,0.0,0.0,0.0,0.0,0.0,11.2432,11.5382,0.0,12.3762,12.7449,13.1137,13.3864,13.4927,13.5486,13.5524,13.4792,13.5826,13.6525,13.6525,13.7022,13.7583,13.8056,13.7932,13.8089,13.8619,13.8619,13.8619,13.8619,13.8619,13.8619,13.8619,14.0,14.1117,14.1841,14.3222,14.434,14.4997,14.4997,14.5392,14.6115,14.6115,14.651,14.7167,14.7167,14.7167,14.7102,14.6378,14.6994,14.8628,14.9425,15.1097,15.3172,15.3909,15.5584,15.7576,15.8567,15.9396,16.014,16.0884,16.1166,16.1504,16.1943,16.2252,16.2804,16.448,16.5558,16.65,16.8093,16.8354,16.8911,17.1515,17.12,17.1064,17.2832,17.3209,17.3209,17.3209,17.3557,17.4215,17.5326,17.5794,17.6179,17.6407,17.7444,17.6741,17.3029,17.2601,17.2601,17.2601,17.3385,17.624,18.1805,18.3589,18.4802,18.5587,18.5658,18.5658,18.5658,18.5734,18.5807,18.5658,18.5807,18.5734,18.5658,18.624,18.6503,0.0,0.0,0.0,0.0,0.0,0.0,0.0,0.0,0.0,0.0,0.0,0.0,0.0,0.0,0.0,12.1281,12.7583,13.2658,13.3472,13.3672,13.3672,13.3672,13.462,13.5391,13.5391,13.5575,13.5994,13.6788,13.6753,13.7027,13.7785,13.8027,13.8224,13.8224,13.8487,13.8619,13.8619,13.9737,14.046,14.0723,0.0,0.0,14.2827,14.2827,14.3485,14.4603,14.4603,14.526,14.6312,14.6312,14.6312,14.6181,14.5427,14.6635,14.9037,14.9314,15.1412,15.4087,15.4087,15.6065,15.8673,15.9351,16.0409,16.1504,16.1778,16.2168,0.0,16.1931,16.21,16.2752,16.4281,16.557,16.6939,16.8736,16.8883,16.9589,17.2755,17.239,17.2239,17.5217,17.6019,17.6231,17.6231,17.6841,17.68,17.4954,17.6524,17.7311,17.546,17.7098,17.6025,16.9675,16.9033,16.9033,16.9033,16.7321,17.0389,17.9878,18.0235,18.0164,18.0164,18.0235,18.0306,18.0306,18.0516,18.1589,18.3521,18.3593,18.3593,18.3306,17.9455,17.9335,0.0,0.0,0.0,0.0,0.0,0.0,0.0,0.0,0.0,0.0,0.0,0.0,0.0,0.0,0.0,0.0,12.7583,13.2411,13.2535,13.2535,13.2535,13.2535,13.3875,13.4813,13.4813,13.5688,13.6167,13.6367,13.5563,13.5131,13.5329,0.0,0.0,0.0,0.0,13.8619,13.8619,13.875,13.9474,14.0723,14.092,14.1644,14.2827,14.2827,14.2959,14.309,14.309,14.3156,14.3353,14.3353,14.3353,14.3468,14.4792,14.5565,14.6038,14.7395,14.989,15.2437,15.2437,0.0,0.0,16.0404,16.1516,16.1932,16.3316,16.4978,16.5962,16.4281,16.4978,16.6334,16.6628,16.6768,16.7265,16.875,16.9097,16.966,17.1734,17.2843,17.3599,17.4415,17.5696,17.6614,17.6614,17.7291,17.4961,16.6575,17.2823,17.5385,16.704,17.3314,17.8095,17.7238,0.0,0.0,17.7096,16.9532,16.8748,17.8166,17.2387,16.8738,16.9009,16.9336,16.9465,16.9465,16.953,17.4401,18.4157,18.3877,18.3664,18.3092,16.1407,15.8172,0.0,0.0,0.0,0.0,0.0,0.0,0.0,0.0,0.0,0.0,0.0,0.0,0.0,0.0,0.0,0.0,12.0611,12.6041,12.6041,12.9662,13.2344,13.2344,13.2947,13.3349,13.3349,13.373,13.4231,13.4927,13.4364,13.4272,13.4884,13.5125,13.5199,13.5199,13.658,13.7456,13.7648,13.8505,13.9404,14.0257,14.0257,14.0501,14.0768,14.0768,14.1054,14.1644,14.1845,14.2306,14.2917,14.3252,14.3162,0.0,0.0,0.0,0.0,0.0,15.1852,15.4602,15.4384,15.6401,15.9124,16.0269,16.1257,16.2306,16.3991,16.5,16.5651,16.5752,16.6334,16.6994,16.6994,16.6994,16.7208,16.7922,16.8136,16.8632,17.0621,17.1397,17.2387,17.4374,17.5223,0.0,17.4812,17.5886,17.553,17.1541,17.5172,17.7024,17.31,17.5241,17.5453,17.1153,17.0653,17.0719,17.0846,16.819,0.0,0.0,0.0,17.4278,17.4412,17.4544,0.0,0.0,0.0,0.0,0.0,0.0,0.0,0.0,15.5879,15.4772,0.0,0.0,0.0,0.0,0.0,0.0,0.0,0.0,0.0,0.0,0.0,0.0,0.0,0.0,0.0,0.0,11.3974,12.0276,11.8667,12.4768,12.879,12.7114,13.0131,13.1539,12.9595,13.1204,13.2658,13.3484,13.3155,13.322,13.3957,13.4008,13.4022,13.4022,13.5407,13.6499,13.7234,13.8226,13.9124,13.9928,13.9928,13.9758,13.9351,13.9351,13.9774,14.057,14.0832,14.1621,14.2656,14.3069,14.3261,14.3572,14.5758,14.6688,14.6971,14.9855,15.2343,15.44,15.4634,15.676,15.9447,15.9597,16.0657,16.2138,16.3618,16.4039,16.4319,16.5868,16.636,16.6431,16.6929,16.707,16.7146,16.7436,16.7792,16.8356,16.9564,17.0272,17.1407,17.3395,17.3893,17.3823,17.3397,17.4532,17.4879,17.2999,17.593,0.0,17.5303,17.6303,17.4994,16.9174,16.8724,16.8887,16.9063,16.8024,17.0791,17.9055,17.7189,17.6968,17.962,17.6818,17.5231,17.5296,16.6121,16.0377,0.0,0.0,0.0,0.0,0.0,0.0,0.0,0.0,0.0,0.0,0.0,0.0,0.0,0.0,0.0,0.0,0.0,0.0,0.0,0.0,0.0,0.0,0.0,0.0,11.156,11.7125,11.9672,11.384,12.4566,12.9595,12.2488,12.8254,13.2411,13.2411,13.2091,13.1858,13.1925,13.2863,13.342,13.342,13.4733,13.6193,13.7587,13.7653,13.8383,13.9928,13.9928,13.9928,13.9928,13.9928,13.9994,13.9994,13.9994,14.0782,14.212,14.212,14.2993,14.4511,14.63,14.6921,14.7127,14.8791,14.944,14.9715,15.1211,15.3762,15.6667,15.8156,15.9583,16.0865,16.2349,16.2562,16.27,16.4248,16.4741,16.5095,16.6939,16.7365,16.7436,16.7792,16.8752,16.9407,16.8766,17.0443,17.1777,17.1118,17.1327,17.2033,17.3459,17.3816,17.1644,16.5255,17.2088,0.0,16.7384,17.431,17.923,17.767,17.7991,17.8377,17.8437,17.0606,16.9642,17.8983,17.1078,17.0272,17.9802,16.9731,16.4152,16.4578,16.27,16.01,15.6923,0.0,0.0,0.0,0.0,0.0,0.0,0.0,0.0,0.0,0.0,0.0,0.0,0.0,0.0,0.0,0.0,0.0,0.0,0.0,0.0,0.0,0.0,0.0,0.0,11.3102,11.8868,11.1962,11.9404,12.222,11.4845,12.0812,12.517,12.517,12.9284,13.1791,13.1791,13.1865,13.1892,13.1892,13.3287,13.4445,13.5153,13.6219,13.7582,13.9311,13.8375,13.9249,14.1734,13.8858,13.891,14.1332,14.071,14.1095,14.2223,14.3614,14.5185,14.6898,14.8535,14.9157,14.9219,14.9723,14.9906,15.012,15.1757,15.2914,15.3799,15.5103,15.5822,15.6677,15.9226,15.994,16.0366,16.2983,16.376,16.3901,16.4466,16.4677,16.4747,16.516,16.6345,16.759,16.8358,16.9329,17.0499,17.2091,16.4267,15.7617,15.8125,16.5926,16.9235,16.0638,17.0907,17.8627,17.587,17.8341,18.0153,17.9901,18.0153,17.992,17.9053,17.6614,17.6509,17.9586,17.6174,17.5448,17.8757,17.5295,17.2832,17.1944,17.1366,16.2324,14.4489,0.0,0.0,0.0,0.0,0.0,0.0,0.0,0.0,0.0,0.0,0.0,0.0,0.0,0.0,0.0,0.0,0.0,0.0,0.0,0.0,0.0,0.0,0.0,0.0,0.0,0.0,11.1225,11.6454,0.0,11.0286,11.3907,11.6722,11.6722,12.1337,12.534,12.8014,12.7921,12.8969,13.1568,13.2501,13.3393,13.4231,13.5719,13.7252,13.898,13.8585,13.9509,14.1361,13.8519,13.8576,14.0976,14.0332,14.1004,14.2641,14.3438,14.3487,14.3136,14.4131,14.3442,14.2219,14.4488,14.5273,14.5772,14.9054,15.0076,14.9835,14.9449,14.7702,14.6577,15.0834,15.007,14.8952,15.4967,15.7022,15.8435,16.2469,16.353,16.3598,16.4,16.5174,16.6335,16.6965,16.4912,16.4553,16.9668,16.2338,15.4385,15.124,15.82,16.2832,15.8776,16.6735,17.4862,17.9442,18.057,18.0636,17.9755,18.046,18.0321,17.8908,17.9145,17.9321,17.9266,17.8325,17.7744,17.7744,17.7682,17.5234,17.0365,16.9017,15.8173,0.0,0.0,0.0,0.0,0.0,0.0,0.0,0.0,0.0,0.0,0.0,0.0,0.0,0.0,0.0,0.0,0.0,0.0,0.0,0.0,0.0,0.0,0.0,0.0,0.0,0.0,0.0,11.042,11.4644,0.0,0.0,0.0,0.0,10.747,10.9147,11.3236,12.0276,12.0745,12.4164,13.1472,13.1807,13.2679,13.4556,13.5949,13.737,13.8727,14.0045,14.0114,13.9012,13.8802,13.8802,13.9012,13.8944,14.0536,14.3091,14.1353,13.7856,13.3716,13.3365,13.0442,12.717,13.3233,13.5498,13.6354,14.2918,14.5059,14.4488,14.1348,13.6065,13.195,13.7424,13.3791,0.0,0.0,14.4763,14.8643,15.9819,16.2795,16.3075,16.383,16.4984,16.5593,16.4569,15.8138,15.5083,0.0,16.3701,15.9848,15.1216,0.0,15.2488,15.7467,15.9391,16.476,17.6985,18.0527,18.0824,17.7862,17.9559,18.0253,17.8651,17.8361,17.8152,17.8152,17.7304,17.6755,17.6755,17.6009,17.0514,15.986,15.5696,0.0,0.0,0.0,0.0,0.0,0.0,0.0,0.0,0.0,0.0,0.0,0.0,0.0,0.0,0.0,0.0,0.0,0.0,0.0,0.0,0.0,0.0,0.0,0.0,0.0,0.0,9.7359,10.2241,10.0766,10.1906,9.9895,0.0,0.0,0.0,0.0,0.0,0.0,10.9817,11.0957,11.4912,12.2287,12.3628,12.7047,13.288,13.3263,13.4232,13.5781,13.5025,13.6166,13.9018,13.5649,13.5927,13.9092,13.7931,13.8504,13.984,13.3947,13.0067,12.7499,12.3116,12.0405,11.9467,12.3416,12.4485,12.5366,13.5212,13.7923,13.6425,13.3286,13.1093,12.8636,12.322,0.0,0.0,0.0,0.0,13.5796,14.4529,14.7652,15.0005,15.6047,15.95,16.158,16.2173,16.1753,15.853,0.0,14.172,13.3878,12.5221,0.0,0.0,0.0,0.0,16.314,16.6433,17.5734,18.1824,18.0962,18.1635,18.1411,17.9731,17.8425,17.7643,17.7476,17.6051,17.5216,17.5216,16.7044,16.0024,15.4853,0.0,0.0,0.0,0.0,0.0,0.0,0.0,0.0,0.0,0.0,0.0,0.0,0.0,0.0,0.0,0.0,0.0,0.0,0.0,0.0,0.0,0.0,0.0,0.0,0.0,0.0,0.0,9.0804,9.6569,9.8251,9.4645,9.0751,0.0,0.0,0.0,0.0,0.0,0.0,0.0,0.0,0.0,11.2163,11.3303,11.5985,12.0745,12.5282,12.8,12.8879,13.2509,13.5325,13.7039,13.4525,13.4735,13.7039,13.6224,13.389,13.0264,12.6043,12.0285,11.3816,0.0,0.0,0.0,0.0,11.101,11.1469,12.0728,12.3443,0.0,11.8299,0.0,0.0,0.0,0.0,0.0,0.0,0.0,0.0,0.0,0.0,14.8698,15.3835,15.5904,15.7079,15.8438,15.2059,14.3516,0.0,12.8787,12.2501,11.4041,0.0,0.0,0.0,0.0,15.4894,16.0714,17.2994,18.0812,18.0065,18.0834,18.0485,17.8088,17.6419,17.5149,17.4366,17.3379,17.0616,16.5668,15.8455,14.9296,0.0,0.0,0.0,0.0,0.0,0.0,0.0,0.0,0.0,0.0,0.0,0.0,0.0,0.0,0.0,0.0,0.0,0.0,0.0,0.0,0.0,0.0,0.0,0.0,0.0,0.0,0.0,0.0,0.0,9.3768,9.7693,0.0,0.0,0.0,0.0,0.0,0.0,0.0,0.0,0.0,0.0,0.0,0.0,0.0,10.3247,10.566,11.4309,11.8817,11.909,12.8061,13.1786,13.0753,13.0958,13.157,13.2456,13.1096,0.0,11.9212,11.7193,0.0,0.0,0.0,0.0,0.0,0.0,0.0,0.0,0.0,0.0,0.0,0.0,0.0,0.0,0.0,0.0,0.0,0.0,0.0,0.0,0.0,0.0,14.8698,14.9839,15.0196,15.0267,0.0,13.514,12.1227,12.0273,12.0125,0.0,0.0,0.0,0.0,0.0,0.0,0.0,15.6358,17.0483,17.8943,17.7447,17.8514,17.813,17.5188,17.3481,17.1943,17.041,16.8691,16.3373,15.3571,15.0049,0.0,0.0,0.0,0.0,0.0,0.0,0.0,0.0,0.0,0.0,0.0,0.0,0.0,0.0,0.0,0.0,0.0,0.0,0.0,0.0,0.0,0.0,0.0,0.0,0.0,0.0,0.0,0.0,0.0,0.0,0.0,0.0,0.0,0.0,0.0,0.0,0.0,0.0,0.0,0.0,0.0,0.0,0.0,0.0,0.0,0.0,0.0,0.0,0.0,0.0,10.8621,11.0037,11.0937,11.2148,11.605,12.1364,11.3201,11.2926,11.7321,10.4902,0.0,0.0,0.0,0.0,0.0,0.0,0.0,0.0,0.0,0.0,0.0,0.0,0.0,0.0,0.0,0.0,0.0,0.0,0.0,0.0,0.0,0.0,0.0,0.0,13.0788,13.4837,0.0,0.0,0.0,0.0,0.0,0.0,0.0,0.0,0.0,0.0,0.0,0.0,14.5431,16.4499,17.7597,17.7298,17.6493,17.5387,17.3967,17.1819,17.0215,16.9408,15.8705,15.1579,0.0,0.0,0.0,0.0,0.0,0.0,0.0,0.0,0.0,0.0,0.0,0.0,0.0,0.0,0.0,0.0,0.0,0.0,0.0,0.0,0.0,0.0,0.0,0.0,0.0,0.0,0.0,0.0,0.0,0.0,0.0,0.0,0.0,0.0,0.0,0.0,0.0,0.0,0.0,0.0,0.0,0.0,0.0,0.0,0.0,0.0,0.0,0.0,0.0,0.0,0.0,0.0,0.0,0.0,0.0,0.0,0.0,0.0,0.0,9.9207,0.0,0.0,0.0,0.0,0.0,0.0,0.0,0.0,0.0,0.0,0.0,0.0,0.0,0.0,0.0,0.0,0.0,0.0,0.0,0.0,0.0,0.0,0.0,0.0,0.0,0.0,0.0,0.0,0.0,0.0,0.0,0.0,0.0,0.0,0.0,0.0,0.0,0.0,0.0,0.0,14.2541,16.3034,17.6924,17.6027,17.5346,17.3838,17.1172,16.9604,16.5521,15.8155,15.1157,0.0,0.0,0.0,0.0,0.0,0.0,0.0,0.0,0.0,0.0,0.0,0.0,0.0,0.0,0.0,0.0,0.0,0.0,0.0,0.0,0.0,0.0,0.0,0.0,0.0,0.0,0.0,0.0,0.0,0.0,0.0,0.0,0.0,0.0,0.0,0.0,0.0,0.0,0.0,0.0,0.0,0.0,0.0,0.0,0.0,0.0,0.0,0.0,0.0,0.0,0.0,0.0,0.0,0.0,0.0,0.0,0.0,0.0,0.0,9.7748,0.0,0.0,0.0,0.0,0.0,0.0,0.0,0.0,0.0,0.0,0.0,0.0,0.0,0.0,0.0,0.0,0.0,0.0,0.0,0.0,0.0,0.0,0.0,0.0,0.0,0.0,0.0,0.0,0.0,0.0,0.0,0.0,0.0,0.0,0.0,0.0,0.0,0.0,0.0,0.0,0.0,14.1843,16.2241,17.5728,17.4382,17.3933,17.2245,16.8514,16.7386,16.1173,14.7687,14.3554,0.0,0.0,0.0,0.0,0.0,0.0,0.0,0.0,0.0,0.0,0.0,0.0,0.0,0.0,0.0,0.0,0.0,0.0,0.0,0.0,0.0,0.0,0.0,0.0,0.0,0.0,0.0,0.0,0.0,0.0,0.0,0.0,0.0,0.0,0.0,0.0,0.0,0.0,0.0,0.0,0.0,0.0,0.0,0.0,0.0,0.0,0.0,0.0,0.0,0.0,0.0,0.0,0.0,0.0,0.0,0.0,0.0,0.0,0.0,0.0,0.0,0.0,0.0,0.0,0.0,0.0,0.0,0.0,0.0,0.0,0.0,0.0,0.0,0.0,0.0,0.0,0.0,0.0,0.0,0.0,0.0,0.0,0.0,0.0,0.0,0.0,0.0,0.0,0.0,0.0,0.0,0.0,0.0,0.0,0.0,0.0,0.0,0.0,0.0,0.0,0.0,14.0145,15.9547,17.2811,17.2662,17.1241,16.9495,16.7306,16.5964,15.9714,14.6728,0.0,0.0,0.0,0.0,0.0,0.0,0.0,0.0,0.0,0.0,0.0,0.0,0.0,0.0,0.0,0.0,0.0,0.0,0.0,0.0,0.0,0.0,0.0,0.0,0.0,0.0,0.0,0.0,0.0,0.0,0.0,0.0,0.0,0.0,0.0,0.0,0.0,0.0,0.0,0.0,0.0,0.0,0.0,0.0,0.0,0.0,0.0,0.0,0.0,0.0,0.0,0.0,0.0,0.0,0.0,0.0,0.0,0.0,0.0,0.0,0.0,0.0,0.0,0.0,0.0,0.0,0.0,0.0,0.0,0.0,0.0,0.0,0.0,0.0,0.0,0.0,0.0,0.0,0.0,0.0,0.0,0.0,0.0,0.0,0.0,0.0,0.0,0.0,0.0,0.0,0.0,0.0,0.0,0.0,0.0,0.0,0.0,0.0,0.0,0.0,0.0,0.0,13.8496,15.8604,17.1406,16.8863,16.8865,16.7671,16.4327,16.4592,15.7255,13.9084,0.0,0.0,0.0,0.0,0.0,0.0,0.0,0.0,0.0,0.0,0.0,0.0,0.0,0.0,0.0,0.0,0.0,0.0,0.0,0.0,0.0,0.0,0.0,0.0,0.0,0.0,0.0,0.0,0.0,0.0,0.0,0.0,0.0,0.0,0.0,0.0,0.0,0.0,0.0,0.0,0.0,0.0,0.0,0.0,0.0,0.0,0.0,0.0,0.0,0.0,0.0,0.0,0.0,0.0,0.0,0.0,0.0,0.0,0.0,0.0,0.0,0.0,0.0,0.0,0.0,0.0,0.0,0.0,0.0,0.0,0.0,0.0,0.0,0.0,0.0,0.0,0.0,0.0,0.0,0.0,0.0,0.0,0.0,0.0,0.0,0.0,0.0,0.0,0.0,0.0,0.0,0.0,0.0,0.0,0.0,0.0,0.0,0.0,0.0,0.0,0.0,0.0,13.6421,15.6176,16.849,16.517,16.598,16.525,16.1732,16.276,15.4558,13.3347,0.0,0.0,0.0,0.0,0.0,0.0,0.0,0.0,0.0,0.0,0.0,0.0,0.0,0.0,0.0,0.0,0.0,0.0,0.0,0.0,0.0,0.0,0.0,0.0,0.0,0.0,0.0,0.0,0.0,0.0,0.0,0.0,0.0,0.0,0.0,0.0,0.0,0.0,0.0,0.0,0.0,0.0,0.0,0.0,0.0,0.0,0.0,0.0,0.0,0.0,0.0,0.0,0.0,0.0,0.0,0.0,0.0,0.0,0.0,0.0,0.0,0.0,0.0,0.0,0.0,0.0,0.0,0.0,0.0,0.0,0.0,0.0,0.0,0.0,0.0,0.0,0.0,0.0,0.0,0.0,0.0,0.0,0.0,0.0,0.0,0.0,0.0,0.0,0.0,0.0,0.0,0.0,0.0,0.0,0.0,0.0,0.0,0.0,0.0,0.0,0.0,0.0,13.3635,15.1436,16.3163,16.2261,16.2131,16.1541,15.995,16.0154,15.1767,0.0,0.0,0.0,0.0,0.0,0.0,0.0,0.0,0.0,0.0,0.0,0.0,0.0,0.0,0.0,0.0,0.0,0.0,0.0,0.0,0.0,0.0,0.0,0.0,0.0,0.0,0.0,0.0,0.0,0.0,0.0,0.0,0.0,0.0,0.0,0.0,0.0,0.0,0.0,0.0,0.0,0.0,0.0,0.0,0.0,0.0,0.0,0.0,0.0,0.0,0.0,0.0,0.0,0.0,0.0,0.0,0.0,0.0,0.0,0.0,0.0,0.0,0.0,0.0,0.0,0.0,0.0,0.0,0.0,0.0,0.0,0.0,0.0,0.0,0.0,0.0,0.0,0.0,0.0,0.0,0.0,0.0,0.0,0.0,0.0,0.0,0.0,0.0,0.0,0.0,0.0,0.0,0.0,0.0,0.0,0.0,0.0,0.0,0.0,0.0,0.0,0.0,0.0,13.0512,14.3551,15.3637,15.831,15.9268,15.9203,15.8139,15.9415,15.2371,13.4033,0.0,0.0,0.0,0.0,0.0,0.0,0.0,0.0,0.0,0.0,0.0,0.0,0.0,0.0,0.0,0.0,0.0,0.0,0.0,0.0,0.0,0.0,0.0,0.0,0.0,0.0,0.0,0.0,0.0,0.0,0.0,0.0,0.0,0.0,0.0,0.0,0.0,0.0,0.0,0.0,0.0,0.0,0.0,0.0,0.0,0.0,0.0,0.0,0.0,0.0,0.0,0.0,0.0,0.0,0.0,0.0,0.0,0.0,0.0,0.0,0.0,0.0,0.0,0.0,0.0,0.0,0.0,0.0,0.0,0.0,0.0,0.0,0.0,0.0,0.0,0.0,0.0,0.0,0.0,0.0,0.0,0.0,0.0,0.0,0.0,0.0,0.0,0.0,0.0,0.0,0.0,0.0,0.0,0.0,0.0,0.0,0.0,0.0,0.0,0.0,0.0,0.0,0.0,14.1246,15.1441,15.6332,15.705,15.6831,15.6214,15.8159,15.182,13.3953,0.0,0.0,0.0,0.0,0.0,0.0,0.0,0.0,0.0,0.0,0.0,0.0,0.0,0.0,0.0,0.0,0.0,0.0,0.0,0.0,0.0,0.0,0.0,0.0,0.0,0.0,0.0,0.0,0.0,0.0,0.0,0.0,0.0,0.0,0.0,0.0,0.0,0.0,0.0,0.0,0.0,0.0,0.0,0.0,0.0,0.0,0.0,0.0,0.0,0.0,0.0,0.0,0.0,0.0,0.0,0.0,0.0,0.0,0.0,0.0,0.0,0.0,0.0,0.0,0.0,0.0,0.0,0.0,0.0,0.0,0.0,0.0,0.0,0.0,0.0,0.0,0.0,0.0,0.0,0.0,0.0,0.0,0.0,0.0,0.0,0.0,0.0,0.0,0.0,0.0,0.0,0.0,0.0,0.0,0.0,0.0,0.0,0.0,0.0,0.0,0.0,0.0,0.0,14.2457,15.4045,15.6038,15.5409,15.4675,15.4518,15.6527,15.008,13.2027,12.8475,0.0,0.0,0.0,0.0,0.0,0.0,0.0,0.0,0.0,0.0,0.0,0.0,0.0,0.0,0.0,0.0,0.0,0.0,0.0,0.0,0.0,0.0,0.0,0.0,0.0,0.0,0.0,0.0,0.0,0.0,0.0,0.0,0.0,0.0,0.0,0.0,0.0,0.0,0.0,0.0,0.0,0.0,0.0,0.0,0.0,0.0,0.0,0.0,0.0,0.0,0.0,0.0,0.0,0.0,0.0,0.0,0.0,0.0,0.0,0.0,0.0,0.0,0.0,0.0,0.0,0.0,0.0,0.0,0.0,0.0,0.0,0.0,0.0,0.0,0.0,0.0,0.0,0.0,0.0,0.0,0.0,0.0,0.0,0.0,0.0,0.0,0.0,0.0,0.0,0.0,0.0,0.0,0.0,0.0,0.0,0.0,0.0,0.0,0.0,0.0,0.0,0.0,13.3869,14.1426,15.4304,15.4346,15.415,15.5984,15.461,14.7732,13.4027,12.773,0.0,0.0,0.0,0.0,0.0,0.0,0.0,0.0,0.0,0.0,0.0,0.0,0.0,0.0,0.0,0.0,0.0,0.0,0.0,0.0,0.0,0.0,0.0,0.0,0.0,0.0,0.0,0.0,0.0,0.0,0.0,0.0,0.0,0.0,0.0,0.0,0.0,0.0,0.0,0.0,0.0,0.0,0.0,0.0,0.0,0.0,0.0,0.0,0.0,0.0,0.0,0.0,0.0,0.0,0.0,0.0,0.0,0.0,0.0,0.0,0.0,0.0,0.0,0.0,0.0,0.0,0.0,0.0,0.0,0.0,0.0,0.0,0.0,0.0,0.0,0.0,0.0,0.0,0.0,0.0,0.0,0.0,0.0,0.0,0.0,0.0,0.0,0.0,0.0,0.0,0.0,0.0,0.0,0.0,0.0,0.0,0.0,0.0,0.0,0.0,0.0,0.0,12.234,13.3092,15.2016,15.3537,15.374,15.5219,15.4245,14.7378,13.2949,12.5742,0.0,0.0,0.0,0.0,0.0,0.0,0.0,0.0,0.0,0.0,0.0,0.0,0.0,0.0,0.0,0.0,0.0,0.0,0.0,0.0,0.0,0.0,0.0,0.0,0.0,0.0,0.0,0.0,0.0,0.0,0.0,0.0,0.0,0.0,0.0,0.0,0.0,0.0,0.0,0.0,0.0,0.0,0.0,0.0,0.0,0.0,0.0,0.0,0.0,0.0,0.0,0.0,0.0,0.0,0.0,0.0,0.0,0.0,0.0,0.0,0.0,0.0,0.0,0.0,0.0,0.0,0.0,0.0,0.0,0.0,0.0,0.0,0.0,0.0,0.0,0.0,0.0,0.0,0.0,0.0,0.0,0.0,0.0,0.0,0.0,0.0,0.0,0.0,0.0,0.0,0.0,0.0,0.0,0.0,0.0,0.0,0.0,0.0,0.0,0.0,0.0,0.0,0.0,12.8029,14.638,15.1004,15.2891,15.3425,15.3672,14.691,13.0602,0.0,0.0,0.0,0.0,0.0,0.0,0.0,0.0,0.0,0.0,0.0,0.0,0.0,0.0,0.0,0.0,0.0,0.0,0.0,0.0,0.0,0.0,0.0,0.0,0.0,0.0,0.0,0.0,0.0,0.0,0.0,0.0,0.0,0.0,0.0,0.0,0.0,0.0,0.0,0.0,0.0,0.0,0.0,0.0,0.0,0.0,0.0,0.0,0.0,0.0,0.0,0.0,0.0,0.0,0.0,0.0,0.0,0.0,0.0,0.0,0.0,0.0,0.0,0.0,0.0,0.0,0.0,0.0,0.0,0.0,0.0,0.0,0.0,0.0,0.0,0.0,0.0,0.0,0.0,0.0,0.0,0.0,0.0,0.0,0.0,0.0,0.0,0.0,0.0,0.0,0.0,0.0,0.0,0.0,0.0,0.0,0.0,0.0,0.0,0.0,0.0,0.0,0.0,0.0,12.69,12.9596,14.1815,15.0312,15.1673,14.9376,14.2328,12.9199,0.0,0.0,0.0,0.0,0.0,0.0,0.0,0.0,0.0,0.0,0.0,0.0,0.0,0.0]}]]]